GFSNW_prec_precacc_024.txt.gz
Total_Precipitation_Accumulation
0.03 0.03 0.04 0.04 0.03 0.01 0.01 0.00 0.00 0.02 0.12 0.42 0.47 0.64 0.75 0.69 0.75 0.73 0.51 0.17 0.02 0.04 0.07 0.12 0.13 0.04 0.01 0.00 0.00 0.00 0.00 0.00 0.00 0.01 0.00 0.00 0.00 0.00 0.00 0.00 0.00 0.00 0.00 0.00
0.03 0.03 0.03 0.03 0.04 0.02 0.00 0.00 0.02 0.15 0.08 0.15 0.34 0.55 0.78 0.80 0.72 0.71 0.46 0.24 0.04 0.02 0.02 0.09 0.07 0.00 0.00 0.00 0.00 0.00 0.00 0.00 0.00 0.02 0.03 0.00 0.00 0.00 0.00 0.00 0.00 0.00 0.00 0.00
0.03 0.02 0.03 0.03 0.04 0.04 0.01 0.00 0.01 0.09 0.07 0.02 0.21 0.56 0.74 0.65 0.47 0.53 0.28 0.25 0.07 0.01 0.01 0.01 0.01 0.00 0.00 0.00 0.00 0.00 0.00 0.00 0.00 0.01 0.01 0.00 0.00 0.00 0.00 0.00 0.00 0.00 0.00 0.00
0.03 0.02 0.02 0.03 0.04 0.07 0.02 0.00 0.00 0.00 0.02 0.00 0.03 0.28 0.43 0.44 0.49 0.35 0.28 0.22 0.07 0.00 0.02 0.01 0.00 0.00 0.00 0.00 0.00 0.00 0.00 0.00 0.00 0.00 0.00 0.00 0.00 0.00 0.00 0.00 0.00 0.00 0.00 0.00
0.03 0.02 0.02 0.02 0.04 0.10 0.01 0.00 0.00 0.00 0.00 0.00 0.02 0.21 0.28 0.31 0.17 0.06 0.13 0.12 0.03 0.01 0.01 0.00 0.00 0.00 0.00 0.00 0.00 0.00 0.00 0.00 0.00 0.00 0.00 0.00 0.00 0.00 0.00 0.00 0.00 0.00 0.00 0.00
0.04 0.02 0.02 0.01 0.05 0.06 0.00 0.00 0.00 0.00 0.00 0.00 0.04 0.06 0.14 0.18 0.05 0.05 0.04 0.06 0.01 0.01 0.01 0.00 0.00 0.00 0.00 0.00 0.00 0.00 0.00 0.00 0.00 0.00 0.00 0.00 0.00 0.00 0.00 0.00 0.00 0.00 0.00 0.00
0.07 0.02 0.03 0.01 0.04 0.04 0.00 0.00 0.00 0.00 0.00 0.00 0.03 0.01 0.09 0.08 0.08 0.07 0.05 0.03 0.01 0.01 0.00 0.00 0.01 0.00 0.00 0.00 0.00 0.00 0.02 0.00 0.00 0.00 0.00 0.00 0.00 0.00 0.00 0.00 0.00 0.00 0.00 0.00
0.06 0.02 0.01 0.01 0.03 0.06 0.01 0.00 0.00 0.00 0.00 0.00 0.02 0.00 0.03 0.03 0.07 0.09 0.10 0.06 0.02 0.01 0.00 0.03 0.06 0.06 0.10 0.05 0.00 0.01 0.01 0.01 0.01 0.00 0.00 0.00 0.00 0.00 0.00 0.00 0.00 0.00 0.00 0.00
0.04 0.02 0.01 0.02 0.03 0.08 0.02 0.00 0.00 0.00 0.00 0.00 0.01 0.01 0.00 0.00 0.04 0.10 0.19 0.10 0.03 0.02 0.00 0.02 0.03 0.06 0.08 0.03 0.01 0.01 0.00 0.01 0.03 0.02 0.00 0.00 0.00 0.00 0.00 0.00 0.00 0.00 0.00 0.00
0.03 0.01 0.01 0.01 0.02 0.08 0.02 0.00 0.00 0.00 0.00 0.00 0.00 0.00 0.00 0.00 0.01 0.11 0.08 0.07 0.06 0.04 0.01 0.02 0.00 0.00 0.02 0.02 0.00 0.00 0.01 0.01 0.01 0.02 0.01 0.00 0.00 0.00 0.00 0.00 0.00 0.00 0.00 0.00
0.06 0.01 0.01 0.02 0.03 0.07 0.04 0.00 0.00 0.00 0.00 0.00 0.00 0.00 0.00 0.00 0.00 0.10 0.04 0.04 0.07 0.08 0.04 0.03 0.00 0.00 0.00 0.01 0.00 0.00 0.01 0.01 0.00 0.00 0.01 0.00 0.00 0.00 0.00 0.00 0.00 0.00 0.00 0.00
0.05 0.02 0.02 0.01 0.04 0.10 0.08 0.01 0.00 0.00 0.00 0.00 0.00 0.00 0.00 0.00 0.00 0.02 0.00 0.00 0.01 0.02 0.02 0.01 0.00 0.00 0.00 0.00 0.00 0.00 0.00 0.00 0.00 0.00 0.00 0.00 0.00 0.00 0.00 0.00 0.00 0.00 0.00 0.00
0.05 0.03 0.03 0.01 0.02 0.13 0.13 0.03 0.00 0.00 0.01 0.00 0.00 0.00 0.00 0.00 0.00 0.00 0.00 0.00 0.00 0.00 0.00 0.00 0.00 0.00 0.00 0.00 0.00 0.00 0.00 0.00 0.00 0.00 0.00 0.00 0.00 0.00 0.00 0.00 0.00 0.00 0.00 0.00
0.03 0.03 0.03 0.02 0.03 0.12 0.15 0.03 0.02 0.00 0.00 0.00 0.00 0.00 0.00 0.00 0.00 0.00 0.00 0.00 0.00 0.00 0.00 0.00 0.00 0.00 0.00 0.00 0.00 0.00 0.00 0.00 0.00 0.00 0.00 0.00 0.00 0.00 0.00 0.00 0.00 0.00 0.00 0.00
0.03 0.04 0.03 0.03 0.03 0.11 0.11 0.04 0.08 0.03 0.00 0.01 0.00 0.00 0.00 0.00 0.00 0.00 0.00 0.00 0.00 0.00 0.00 0.00 0.00 0.00 0.00 0.00 0.00 0.00 0.00 0.00 0.00 0.00 0.00 0.00 0.00 0.00 0.00 0.00 0.00 0.00 0.00 0.00
0.01 0.03 0.03 0.02 0.03 0.10 0.07 0.07 0.06 0.11 0.06 0.04 0.01 0.00 0.00 0.00 0.00 0.00 0.00 0.00 0.00 0.01 0.01 0.00 0.00 0.00 0.01 0.01 0.00 0.00 0.00 0.00 0.00 0.00 0.00 0.00 0.00 0.00 0.00 0.00 0.00 0.00 0.00 0.01
0.01 0.03 0.03 0.05 0.06 0.04 0.03 0.02 0.01 0.06 0.13 0.07 0.01 0.00 0.00 0.00 0.00 0.00 0.00 0.00 0.01 0.03 0.04 0.03 0.01 0.01 0.02 0.01 0.00 0.00 0.00 0.00 0.00 0.00 0.00 0.00 0.00 0.00 0.00 0.00 0.01 0.04 0.05 0.04
0.02 0.04 0.07 0.11 0.11 0.05 0.02 0.03 0.05 0.08 0.07 0.03 0.01 0.00 0.00 0.00 0.01 0.02 0.02 0.03 0.05 0.05 0.04 0.02 0.01 0.01 0.02 0.02 0.00 0.00 0.00 0.00 0.00 0.00 0.00 0.00 0.00 0.00 0.01 0.04 0.09 0.10 0.05 0.02
0.04 0.08 0.08 0.09 0.05 0.02 0.01 0.01 0.04 0.05 0.03 0.01 0.00 0.00 0.00 0.00 0.03 0.04 0.03 0.04 0.05 0.02 0.02 0.02 0.01 0.01 0.00 0.00 0.00 0.00 0.00 0.00 0.00 0.00 0.00 0.00 0.00 0.02 0.07 0.12 0.09 0.03 0.01 0.00
0.08 0.05 0.02 0.01 0.01 0.01 0.00 0.00 0.03 0.06 0.07 0.02 0.00 0.00 0.00 0.01 0.02 0.03 0.03 0.02 0.02 0.02 0.01 0.01 0.02 0.01 0.00 0.00 0.00 0.00 0.00 0.00 0.00 0.00 0.00 0.01 0.04 0.07 0.05 0.02 0.00 0.00 0.00 0.00
0.07 0.00 0.00 0.00 0.01 0.00 0.00 0.00 0.00 0.01 0.00 0.00 0.00 0.00 0.00 0.00 0.00 0.01 0.00 0.01 0.01 0.02 0.00 0.01 0.01 0.00 0.00 0.00 0.00 0.00 0.00 0.00 0.00 0.00 0.00 0.00 0.01 0.00 0.00 0.00 0.00 0.00 0.00 0.00
0.07 0.00 0.02 0.01 0.00 0.00 0.00 0.00 0.00 0.00 0.00 0.00 0.00 0.00 0.00 0.00 0.00 0.00 0.01 0.01 0.02 0.01 0.00 0.02 0.00 0.00 0.00 0.00 0.00 0.00 0.00 0.00 0.00 0.00 0.00 0.00 0.00 0.00 0.00 0.00 0.00 0.00 0.00 0.00
0.22 0.27 0.31 0.08 0.05 0.01 0.00 0.01 0.00 0.00 0.00 0.00 0.00 0.00 0.00 0.00 0.00 0.00 0.01 0.02 0.02 0.00 0.02 0.00 0.00 0.00 0.00 0.00 0.00 0.00 0.00 0.00 0.00 0.00 0.00 0.00 0.00 0.00 0.00 0.00 0.00 0.00 0.00 0.00
0.63 0.48 0.34 0.07 0.05 0.00 0.00 0.00 0.00 0.00 0.00 0.00 0.00 0.00 0.00 0.00 0.00 0.00 0.02 0.03 0.01 0.02 0.01 0.00 0.00 0.00 0.00 0.00 0.00 0.00 0.00 0.00 0.00 0.00 0.00 0.00 0.00 0.00 0.00 0.00 0.00 0.00 0.00 0.00
0.61 0.25 0.11 0.03 0.00 0.00 0.00 0.00 0.00 0.00 0.00 0.00 0.00 0.00 0.00 0.00 0.01 0.01 0.03 0.06 0.02 0.00 0.00 0.00 0.00 0.00 0.00 0.00 0.00 0.00 0.00 0.00 0.00 0.00 0.00 0.00 0.00 0.00 0.00 0.00 0.00 0.00 0.00 0.00
0.68 0.26 0.08 0.02 0.00 0.00 0.00 0.00 0.00 0.00 0.00 0.00 0.00 0.01 0.02 0.01 0.01 0.04 0.02 0.01 0.00 0.00 0.00 0.00 0.00 0.00 0.00 0.00 0.00 0.00 0.00 0.00 0.00 0.00 0.00 0.00 0.00 0.00 0.00 0.00 0.00 0.00 0.00 0.00
0.68 0.15 0.01 0.00 0.00 0.00 0.00 0.00 0.00 0.00 0.00 0.00 0.00 0.01 0.00 0.00 0.02 0.03 0.00 0.00 0.00 0.00 0.00 0.00 0.00 0.00 0.00 0.00 0.00 0.00 0.00 0.00 0.00 0.00 0.00 0.00 0.00 0.00 0.00 0.00 0.00 0.00 0.00 0.00

GFSNW_prec_precacc_027.txt.gz
Total_Precipitation_Accumulation
0.09 0.07 0.07 0.06 0.08 0.08 0.05 0.01 0.02 0.03 0.16 0.55 0.54 0.66 0.79 0.81 0.86 0.85 0.63 0.26 0.07 0.06 0.07 0.12 0.13 0.04 0.01 0.00 0.00 0.01 0.03 0.03 0.13 0.11 0.02 0.01 0.00 0.00 0.00 0.00 0.00 0.00 0.00 0.00
0.10 0.09 0.06 0.06 0.09 0.05 0.01 0.01 0.04 0.22 0.12 0.18 0.35 0.56 0.84 0.95 0.82 0.85 0.62 0.33 0.07 0.02 0.02 0.09 0.07 0.00 0.00 0.00 0.00 0.00 0.00 0.00 0.05 0.08 0.05 0.02 0.01 0.00 0.00 0.00 0.00 0.00 0.00 0.00
0.11 0.08 0.05 0.05 0.08 0.07 0.03 0.02 0.03 0.20 0.20 0.04 0.22 0.61 0.80 0.79 0.59 0.63 0.35 0.30 0.08 0.01 0.01 0.01 0.01 0.01 0.00 0.00 0.00 0.00 0.00 0.00 0.00 0.01 0.02 0.00 0.00 0.00 0.00 0.00 0.00 0.00 0.00 0.00
0.15 0.15 0.05 0.04 0.07 0.10 0.06 0.02 0.01 0.01 0.04 0.01 0.04 0.34 0.52 0.63 0.71 0.48 0.42 0.32 0.09 0.00 0.02 0.01 0.00 0.00 0.00 0.00 0.00 0.00 0.00 0.00 0.00 0.00 0.00 0.00 0.00 0.00 0.00 0.00 0.00 0.00 0.00 0.00
0.16 0.16 0.03 0.02 0.06 0.14 0.07 0.02 0.00 0.00 0.00 0.00 0.02 0.24 0.40 0.53 0.36 0.20 0.25 0.20 0.04 0.01 0.01 0.00 0.00 0.00 0.00 0.00 0.00 0.00 0.00 0.00 0.00 0.00 0.00 0.00 0.00 0.00 0.00 0.00 0.00 0.00 0.00 0.00
0.27 0.15 0.04 0.01 0.07 0.10 0.02 0.01 0.00 0.00 0.00 0.00 0.04 0.08 0.25 0.36 0.17 0.11 0.06 0.07 0.02 0.01 0.01 0.00 0.00 0.00 0.00 0.00 0.00 0.00 0.00 0.00 0.00 0.00 0.00 0.00 0.00 0.00 0.00 0.00 0.00 0.00 0.00 0.00
0.27 0.15 0.07 0.01 0.05 0.04 0.00 0.00 0.00 0.01 0.00 0.00 0.03 0.03 0.16 0.23 0.19 0.13 0.08 0.03 0.01 0.01 0.01 0.02 0.02 0.01 0.01 0.00 0.00 0.00 0.02 0.00 0.00 0.00 0.00 0.00 0.00 0.00 0.00 0.00 0.00 0.00 0.00 0.00
0.22 0.12 0.08 0.02 0.04 0.06 0.01 0.01 0.01 0.00 0.00 0.00 0.02 0.02 0.10 0.18 0.19 0.12 0.10 0.06 0.02 0.01 0.02 0.06 0.07 0.08 0.11 0.06 0.00 0.01 0.01 0.01 0.01 0.00 0.00 0.00 0.00 0.00 0.00 0.00 0.00 0.00 0.00 0.00
0.16 0.05 0.02 0.02 0.03 0.10 0.04 0.01 0.05 0.02 0.00 0.00 0.01 0.01 0.01 0.11 0.17 0.18 0.19 0.10 0.03 0.02 0.02 0.06 0.05 0.11 0.11 0.08 0.03 0.01 0.01 0.02 0.04 0.02 0.00 0.00 0.00 0.00 0.00 0.00 0.00 0.00 0.00 0.00
0.19 0.10 0.03 0.01 0.02 0.10 0.05 0.01 0.04 0.03 0.00 0.00 0.00 0.02 0.01 0.01 0.10 0.23 0.14 0.09 0.07 0.04 0.02 0.03 0.01 0.00 0.03 0.03 0.01 0.01 0.06 0.04 0.03 0.02 0.02 0.00 0.00 0.00 0.00 0.00 0.00 0.00 0.00 0.00
0.24 0.14 0.07 0.03 0.03 0.08 0.07 0.03 0.03 0.02 0.00 0.00 0.00 0.00 0.00 0.00 0.02 0.21 0.09 0.13 0.11 0.09 0.05 0.03 0.00 0.00 0.00 0.01 0.00 0.00 0.02 0.03 0.01 0.01 0.03 0.00 0.00 0.00 0.00 0.00 0.00 0.00 0.00 0.00
0.17 0.11 0.06 0.02 0.05 0.11 0.13 0.06 0.04 0.00 0.00 0.00 0.00 0.00 0.00 0.00 0.01 0.19 0.07 0.05 0.04 0.06 0.05 0.02 0.00 0.00 0.00 0.00 0.00 0.00 0.00 0.00 0.00 0.00 0.00 0.00 0.00 0.00 0.00 0.00 0.00 0.00 0.00 0.00
0.15 0.08 0.05 0.02 0.02 0.13 0.17 0.09 0.08 0.01 0.01 0.00 0.00 0.00 0.00 0.00 0.00 0.05 0.08 0.06 0.05 0.05 0.02 0.03 0.01 0.00 0.00 0.00 0.00 0.00 0.00 0.00 0.00 0.00 0.00 0.00 0.00 0.00 0.00 0.00 0.00 0.00 0.00 0.00
0.09 0.07 0.06 0.03 0.03 0.13 0.19 0.08 0.11 0.00 0.00 0.00 0.00 0.00 0.00 0.00 0.00 0.00 0.01 0.02 0.00 0.01 0.02 0.05 0.03 0.01 0.00 0.00 0.00 0.00 0.00 0.00 0.00 0.00 0.00 0.00 0.00 0.00 0.00 0.00 0.00 0.00 0.00 0.00
0.06 0.07 0.05 0.04 0.03 0.12 0.15 0.09 0.24 0.05 0.00 0.01 0.00 0.00 0.00 0.00 0.00 0.00 0.00 0.00 0.00 0.00 0.00 0.00 0.00 0.00 0.00 0.00 0.00 0.00 0.00 0.00 0.00 0.00 0.00 0.00 0.00 0.00 0.00 0.00 0.00 0.00 0.00 0.00
0.05 0.05 0.03 0.03 0.03 0.11 0.13 0.17 0.21 0.21 0.08 0.04 0.01 0.00 0.00 0.00 0.00 0.00 0.00 0.00 0.00 0.01 0.01 0.00 0.00 0.00 0.01 0.01 0.00 0.00 0.00 0.00 0.00 0.00 0.00 0.00 0.00 0.00 0.00 0.00 0.00 0.00 0.00 0.01
0.04 0.04 0.04 0.05 0.06 0.08 0.11 0.06 0.04 0.17 0.22 0.10 0.01 0.00 0.00 0.00 0.00 0.00 0.00 0.00 0.01 0.03 0.04 0.03 0.01 0.01 0.02 0.01 0.00 0.00 0.00 0.00 0.00 0.00 0.00 0.00 0.00 0.00 0.00 0.00 0.01 0.04 0.05 0.04
0.08 0.06 0.08 0.12 0.12 0.12 0.10 0.03 0.05 0.15 0.17 0.11 0.05 0.01 0.00 0.00 0.01 0.02 0.02 0.03 0.05 0.05 0.04 0.02 0.01 0.01 0.02 0.02 0.00 0.00 0.00 0.00 0.00 0.00 0.00 0.00 0.00 0.00 0.01 0.04 0.09 0.10 0.05 0.02
0.13 0.09 0.09 0.12 0.06 0.03 0.03 0.02 0.04 0.05 0.09 0.06 0.03 0.00 0.00 0.00 0.03 0.04 0.03 0.04 0.05 0.02 0.02 0.02 0.01 0.01 0.00 0.00 0.00 0.00 0.00 0.00 0.00 0.00 0.00 0.00 0.00 0.02 0.07 0.12 0.09 0.03 0.01 0.00
0.17 0.08 0.04 0.03 0.03 0.02 0.01 0.00 0.03 0.06 0.07 0.02 0.00 0.00 0.00 0.01 0.02 0.03 0.03 0.02 0.02 0.02 0.01 0.01 0.02 0.01 0.00 0.00 0.00 0.00 0.00 0.00 0.00 0.00 0.00 0.01 0.04 0.07 0.05 0.02 0.00 0.00 0.00 0.00
0.19 0.05 0.01 0.01 0.02 0.00 0.00 0.00 0.00 0.01 0.00 0.00 0.00 0.00 0.00 0.00 0.00 0.01 0.00 0.01 0.01 0.02 0.00 0.01 0.01 0.00 0.00 0.00 0.00 0.00 0.00 0.00 0.00 0.00 0.00 0.00 0.01 0.00 0.00 0.00 0.00 0.00 0.00 0.00
0.15 0.01 0.03 0.01 0.00 0.01 0.00 0.00 0.00 0.00 0.00 0.00 0.00 0.00 0.00 0.00 0.00 0.00 0.01 0.01 0.02 0.01 0.00 0.02 0.00 0.00 0.00 0.00 0.00 0.00 0.00 0.00 0.00 0.00 0.00 0.00 0.00 0.00 0.00 0.00 0.00 0.00 0.00 0.00
0.28 0.31 0.36 0.10 0.06 0.01 0.00 0.01 0.00 0.00 0.00 0.00 0.00 0.00 0.00 0.00 0.00 0.00 0.01 0.02 0.02 0.00 0.02 0.00 0.00 0.00 0.00 0.00 0.00 0.00 0.00 0.00 0.00 0.00 0.00 0.00 0.00 0.00 0.00 0.00 0.00 0.00 0.00 0.00
0.90 0.66 0.44 0.08 0.06 0.00 0.00 0.00 0.00 0.00 0.00 0.00 0.00 0.00 0.00 0.00 0.00 0.00 0.02 0.03 0.01 0.02 0.01 0.00 0.00 0.00 0.00 0.00 0.00 0.00 0.00 0.00 0.00 0.00 0.00 0.00 0.00 0.00 0.00 0.00 0.00 0.00 0.00 0.00
0.77 0.31 0.13 0.03 0.00 0.00 0.00 0.00 0.00 0.00 0.00 0.00 0.00 0.00 0.00 0.00 0.01 0.01 0.03 0.06 0.02 0.00 0.00 0.00 0.00 0.00 0.00 0.00 0.00 0.00 0.00 0.00 0.00 0.00 0.00 0.00 0.00 0.00 0.00 0.00 0.00 0.00 0.00 0.00
0.79 0.31 0.09 0.02 0.00 0.00 0.00 0.00 0.00 0.00 0.00 0.00 0.00 0.01 0.02 0.01 0.01 0.04 0.02 0.01 0.00 0.00 0.00 0.00 0.00 0.00 0.00 0.00 0.00 0.00 0.00 0.00 0.00 0.00 0.00 0.00 0.00 0.00 0.00 0.00 0.00 0.00 0.00 0.00
0.76 0.18 0.01 0.00 0.00 0.00 0.00 0.00 0.00 0.00 0.00 0.00 0.00 0.01 0.00 0.00 0.02 0.03 0.00 0.00 0.00 0.00 0.00 0.00 0.00 0.00 0.00 0.00 0.00 0.00 0.00 0.00 0.00 0.00 0.00 0.00 0.00 0.00 0.00 0.00 0.00 0.00 0.00 0.00

GFSNW_prec_precacc_030.txt.gz
Total_Precipitation_Accumulation
0.31 0.26 0.19 0.14 0.13 0.16 0.13 0.09 0.07 0.05 0.21 0.74 0.63 0.67 0.80 0.82 0.93 1.01 0.78 0.39 0.18 0.11 0.09 0.12 0.13 0.04 0.01 0.00 0.00 0.03 0.12 0.23 0.39 0.38 0.11 0.04 0.05 0.01 0.00 0.00 0.00 0.00 0.00 0.00
0.24 0.21 0.18 0.19 0.19 0.08 0.06 0.08 0.11 0.35 0.16 0.24 0.37 0.56 0.84 1.01 0.92 1.02 0.77 0.44 0.16 0.05 0.02 0.09 0.07 0.00 0.00 0.00 0.00 0.01 0.04 0.16 0.31 0.36 0.15 0.03 0.06 0.01 0.00 0.00 0.00 0.00 0.00 0.00
0.22 0.25 0.29 0.35 0.26 0.09 0.08 0.09 0.08 0.38 0.36 0.07 0.23 0.62 0.81 0.87 0.71 0.84 0.55 0.42 0.15 0.03 0.01 0.01 0.01 0.01 0.00 0.00 0.00 0.00 0.06 0.08 0.20 0.17 0.09 0.01 0.01 0.00 0.00 0.00 0.00 0.00 0.00 0.00
0.28 0.31 0.25 0.32 0.17 0.12 0.13 0.09 0.03 0.04 0.09 0.03 0.04 0.35 0.55 0.72 0.91 0.67 0.58 0.44 0.13 0.01 0.02 0.01 0.00 0.00 0.00 0.00 0.00 0.00 0.07 0.02 0.04 0.01 0.00 0.00 0.00 0.00 0.00 0.00 0.00 0.00 0.00 0.00
0.24 0.31 0.21 0.16 0.10 0.17 0.15 0.08 0.00 0.01 0.01 0.00 0.03 0.24 0.43 0.64 0.58 0.42 0.34 0.24 0.05 0.01 0.01 0.00 0.00 0.00 0.00 0.00 0.00 0.00 0.00 0.01 0.00 0.00 0.00 0.00 0.00 0.00 0.00 0.00 0.00 0.00 0.00 0.00
0.37 0.38 0.43 0.31 0.15 0.13 0.09 0.04 0.00 0.00 0.00 0.01 0.05 0.09 0.26 0.45 0.39 0.25 0.08 0.10 0.04 0.02 0.01 0.00 0.00 0.00 0.00 0.00 0.00 0.00 0.00 0.00 0.00 0.00 0.00 0.00 0.00 0.00 0.00 0.00 0.00 0.00 0.00 0.00
0.38 0.31 0.31 0.17 0.13 0.05 0.01 0.01 0.01 0.04 0.01 0.01 0.03 0.03 0.17 0.33 0.38 0.30 0.16 0.06 0.02 0.01 0.01 0.02 0.02 0.01 0.01 0.01 0.00 0.00 0.02 0.01 0.01 0.00 0.00 0.00 0.00 0.00 0.00 0.00 0.00 0.00 0.00 0.00
0.31 0.24 0.29 0.25 0.20 0.10 0.02 0.01 0.02 0.03 0.02 0.01 0.03 0.02 0.13 0.32 0.37 0.26 0.14 0.07 0.02 0.01 0.06 0.09 0.11 0.11 0.13 0.06 0.01 0.01 0.01 0.02 0.02 0.01 0.00 0.00 0.00 0.00 0.00 0.00 0.00 0.00 0.00 0.00
0.27 0.16 0.08 0.03 0.04 0.12 0.06 0.01 0.08 0.08 0.04 0.02 0.01 0.01 0.04 0.29 0.39 0.32 0.20 0.10 0.03 0.02 0.14 0.14 0.10 0.13 0.13 0.08 0.03 0.01 0.01 0.02 0.04 0.03 0.01 0.00 0.00 0.00 0.00 0.00 0.00 0.00 0.00 0.00
0.27 0.27 0.14 0.08 0.05 0.12 0.08 0.02 0.08 0.16 0.05 0.01 0.00 0.02 0.05 0.09 0.29 0.37 0.15 0.09 0.07 0.05 0.14 0.09 0.03 0.01 0.03 0.03 0.01 0.01 0.06 0.05 0.04 0.03 0.03 0.00 0.00 0.00 0.00 0.00 0.00 0.00 0.00 0.00
0.31 0.35 0.16 0.07 0.05 0.12 0.10 0.03 0.08 0.12 0.05 0.01 0.00 0.00 0.04 0.02 0.11 0.34 0.15 0.13 0.11 0.09 0.09 0.07 0.02 0.00 0.00 0.01 0.00 0.00 0.02 0.04 0.02 0.02 0.03 0.00 0.00 0.00 0.00 0.00 0.00 0.00 0.00 0.00
0.22 0.25 0.12 0.05 0.09 0.16 0.16 0.07 0.09 0.11 0.05 0.01 0.00 0.00 0.00 0.00 0.02 0.26 0.14 0.09 0.04 0.06 0.06 0.02 0.00 0.00 0.00 0.00 0.00 0.00 0.00 0.00 0.00 0.00 0.00 0.00 0.00 0.00 0.00 0.00 0.00 0.00 0.00 0.00
0.19 0.17 0.10 0.05 0.08 0.17 0.19 0.10 0.15 0.11 0.05 0.02 0.00 0.00 0.00 0.00 0.00 0.08 0.20 0.16 0.12 0.07 0.03 0.05 0.01 0.00 0.00 0.00 0.00 0.00 0.00 0.00 0.00 0.00 0.00 0.00 0.00 0.00 0.00 0.00 0.00 0.00 0.00 0.00
0.14 0.13 0.09 0.05 0.09 0.17 0.21 0.09 0.19 0.10 0.05 0.01 0.00 0.00 0.00 0.00 0.00 0.01 0.12 0.19 0.05 0.12 0.12 0.13 0.10 0.02 0.00 0.00 0.00 0.00 0.00 0.00 0.00 0.00 0.00 0.00 0.00 0.00 0.00 0.00 0.00 0.00 0.00 0.00
0.09 0.11 0.08 0.08 0.07 0.16 0.16 0.09 0.35 0.16 0.03 0.02 0.00 0.00 0.00 0.00 0.00 0.00 0.03 0.09 0.00 0.02 0.07 0.08 0.06 0.04 0.01 0.01 0.00 0.00 0.00 0.00 0.00 0.00 0.00 0.00 0.00 0.00 0.00 0.00 0.00 0.00 0.00 0.00
0.06 0.09 0.06 0.07 0.07 0.15 0.16 0.21 0.31 0.33 0.11 0.05 0.01 0.00 0.00 0.00 0.00 0.00 0.00 0.00 0.00 0.01 0.01 0.01 0.00 0.00 0.01 0.01 0.00 0.00 0.00 0.00 0.00 0.00 0.00 0.00 0.00 0.00 0.00 0.00 0.00 0.00 0.00 0.01
0.07 0.08 0.07 0.09 0.09 0.09 0.15 0.09 0.06 0.26 0.29 0.11 0.01 0.01 0.00 0.00 0.00 0.00 0.00 0.00 0.01 0.03 0.04 0.03 0.01 0.01 0.02 0.01 0.00 0.00 0.00 0.00 0.00 0.00 0.00 0.00 0.00 0.00 0.00 0.00 0.01 0.04 0.05 0.04
0.16 0.14 0.15 0.18 0.15 0.14 0.12 0.04 0.09 0.28 0.34 0.17 0.08 0.01 0.00 0.00 0.01 0.02 0.02 0.03 0.05 0.05 0.04 0.02 0.01 0.01 0.02 0.02 0.00 0.00 0.00 0.00 0.00 0.00 0.00 0.00 0.00 0.00 0.01 0.04 0.09 0.10 0.05 0.02
0.33 0.27 0.19 0.19 0.09 0.03 0.05 0.04 0.10 0.10 0.22 0.20 0.09 0.01 0.00 0.00 0.03 0.04 0.03 0.04 0.05 0.02 0.02 0.02 0.01 0.01 0.00 0.00 0.00 0.00 0.00 0.00 0.00 0.00 0.00 0.00 0.00 0.02 0.07 0.12 0.09 0.03 0.01 0.00
0.54 0.28 0.13 0.10 0.05 0.05 0.05 0.03 0.05 0.09 0.10 0.09 0.05 0.01 0.00 0.01 0.02 0.03 0.03 0.02 0.02 0.02 0.01 0.01 0.02 0.01 0.00 0.00 0.00 0.00 0.00 0.00 0.00 0.00 0.00 0.01 0.04 0.07 0.05 0.02 0.00 0.00 0.00 0.00
0.58 0.31 0.07 0.05 0.03 0.01 0.01 0.01 0.01 0.01 0.00 0.00 0.00 0.00 0.00 0.00 0.00 0.01 0.00 0.01 0.01 0.02 0.00 0.01 0.01 0.00 0.00 0.00 0.00 0.00 0.00 0.00 0.00 0.00 0.00 0.00 0.01 0.00 0.00 0.00 0.00 0.00 0.00 0.00
0.37 0.07 0.07 0.03 0.02 0.03 0.01 0.00 0.00 0.00 0.00 0.00 0.00 0.00 0.00 0.00 0.00 0.00 0.01 0.01 0.02 0.01 0.00 0.02 0.00 0.00 0.00 0.00 0.00 0.00 0.00 0.00 0.00 0.00 0.00 0.00 0.00 0.00 0.00 0.00 0.00 0.00 0.00 0.00
0.45 0.42 0.48 0.16 0.13 0.04 0.01 0.01 0.00 0.00 0.00 0.00 0.00 0.00 0.00 0.00 0.00 0.00 0.01 0.02 0.02 0.00 0.02 0.00 0.00 0.00 0.00 0.00 0.00 0.00 0.00 0.00 0.00 0.00 0.00 0.00 0.00 0.00 0.00 0.00 0.00 0.00 0.00 0.00
1.19 0.82 0.58 0.11 0.09 0.00 0.00 0.00 0.00 0.00 0.00 0.00 0.00 0.00 0.00 0.00 0.00 0.00 0.02 0.03 0.01 0.02 0.01 0.00 0.00 0.00 0.00 0.00 0.00 0.00 0.00 0.00 0.00 0.00 0.00 0.00 0.00 0.00 0.00 0.00 0.00 0.00 0.00 0.00
0.98 0.36 0.13 0.03 0.00 0.00 0.00 0.00 0.00 0.00 0.00 0.00 0.00 0.00 0.00 0.00 0.01 0.01 0.03 0.06 0.02 0.00 0.00 0.00 0.00 0.00 0.00 0.00 0.00 0.00 0.00 0.00 0.00 0.00 0.00 0.00 0.00 0.00 0.00 0.00 0.00 0.00 0.00 0.00
0.93 0.38 0.10 0.02 0.00 0.00 0.00 0.00 0.00 0.00 0.00 0.00 0.00 0.01 0.02 0.01 0.01 0.04 0.02 0.01 0.00 0.00 0.00 0.00 0.00 0.00 0.00 0.00 0.00 0.00 0.00 0.00 0.00 0.00 0.00 0.00 0.00 0.00 0.00 0.00 0.00 0.00 0.00 0.00
0.87 0.23 0.01 0.00 0.00 0.00 0.00 0.00 0.00 0.00 0.00 0.00 0.00 0.01 0.00 0.00 0.02 0.03 0.00 0.00 0.00 0.00 0.00 0.00 0.00 0.00 0.00 0.00 0.00 0.00 0.00 0.00 0.00 0.00 0.00 0.00 0.00 0.00 0.00 0.00 0.00 0.00 0.00 0.00

GFSNW_prec_precacc_033.txt.gz
Total_Precipitation_Accumulation
0.52 0.53 0.54 0.38 0.32 0.49 0.37 0.15 0.24 0.24 0.33 1.01 0.78 0.70 0.80 0.82 0.93 1.05 0.88 0.49 0.26 0.17 0.12 0.14 0.13 0.04 0.01 0.00 0.00 0.03 0.12 0.33 0.51 0.43 0.14 0.14 0.25 0.14 0.05 0.02 0.01 0.02 0.00 0.00
0.43 0.49 0.54 0.47 0.63 0.62 0.29 0.15 0.23 0.61 0.25 0.33 0.42 0.57 0.84 1.01 0.93 1.08 0.90 0.53 0.25 0.13 0.08 0.12 0.07 0.00 0.00 0.00 0.00 0.01 0.05 0.27 0.41 0.44 0.22 0.16 0.31 0.06 0.03 0.03 0.02 0.02 0.00 0.00
0.35 0.41 0.49 0.54 0.69 0.74 0.15 0.14 0.19 0.65 0.57 0.11 0.24 0.62 0.82 0.87 0.72 0.94 0.71 0.54 0.27 0.13 0.06 0.02 0.01 0.01 0.00 0.00 0.00 0.01 0.08 0.16 0.40 0.38 0.23 0.06 0.07 0.01 0.00 0.02 0.02 0.01 0.00 0.00
0.38 0.39 0.32 0.42 0.51 0.57 0.16 0.13 0.11 0.09 0.14 0.05 0.05 0.37 0.57 0.73 0.96 0.78 0.73 0.58 0.20 0.06 0.04 0.02 0.00 0.00 0.00 0.00 0.00 0.00 0.17 0.16 0.30 0.25 0.12 0.00 0.00 0.00 0.00 0.00 0.01 0.01 0.00 0.00
0.33 0.36 0.30 0.32 0.37 0.55 0.23 0.11 0.05 0.03 0.01 0.00 0.04 0.28 0.45 0.64 0.63 0.57 0.52 0.38 0.08 0.05 0.02 0.00 0.00 0.00 0.00 0.00 0.00 0.00 0.02 0.09 0.07 0.07 0.07 0.00 0.00 0.00 0.00 0.00 0.00 0.00 0.00 0.00
0.44 0.41 0.55 0.59 0.74 0.73 0.25 0.08 0.03 0.02 0.02 0.02 0.08 0.09 0.27 0.45 0.46 0.38 0.20 0.18 0.09 0.03 0.01 0.00 0.00 0.00 0.00 0.00 0.00 0.00 0.00 0.02 0.05 0.01 0.03 0.01 0.00 0.00 0.00 0.00 0.00 0.00 0.00 0.00
0.42 0.35 0.44 0.40 0.33 0.31 0.13 0.02 0.03 0.07 0.02 0.02 0.04 0.04 0.19 0.34 0.44 0.44 0.28 0.13 0.05 0.02 0.01 0.02 0.03 0.01 0.01 0.01 0.00 0.00 0.02 0.01 0.02 0.00 0.00 0.00 0.00 0.00 0.00 0.00 0.00 0.00 0.00 0.00
0.35 0.28 0.35 0.50 0.44 0.40 0.15 0.01 0.03 0.05 0.03 0.02 0.05 0.05 0.13 0.33 0.43 0.38 0.24 0.10 0.02 0.01 0.06 0.09 0.12 0.14 0.14 0.08 0.02 0.01 0.01 0.02 0.02 0.01 0.00 0.00 0.00 0.00 0.00 0.00 0.00 0.00 0.00 0.00
0.30 0.19 0.14 0.17 0.11 0.16 0.12 0.02 0.09 0.11 0.06 0.04 0.03 0.02 0.05 0.31 0.52 0.48 0.24 0.11 0.03 0.03 0.14 0.15 0.13 0.18 0.14 0.09 0.03 0.01 0.01 0.02 0.05 0.04 0.01 0.00 0.00 0.00 0.00 0.00 0.00 0.00 0.00 0.00
0.30 0.30 0.22 0.21 0.17 0.18 0.13 0.03 0.09 0.20 0.10 0.02 0.04 0.04 0.05 0.13 0.48 0.59 0.24 0.09 0.07 0.05 0.17 0.15 0.04 0.04 0.03 0.04 0.01 0.02 0.08 0.05 0.04 0.04 0.04 0.00 0.00 0.00 0.00 0.00 0.00 0.00 0.00 0.00
0.33 0.38 0.26 0.18 0.09 0.15 0.17 0.04 0.08 0.15 0.10 0.03 0.02 0.01 0.04 0.04 0.24 0.56 0.28 0.13 0.11 0.10 0.20 0.16 0.03 0.00 0.00 0.01 0.00 0.00 0.03 0.04 0.02 0.02 0.03 0.00 0.00 0.00 0.00 0.00 0.00 0.00 0.00 0.00
0.24 0.31 0.22 0.16 0.14 0.20 0.23 0.08 0.09 0.15 0.12 0.05 0.03 0.00 0.00 0.02 0.08 0.38 0.27 0.10 0.04 0.06 0.12 0.04 0.01 0.00 0.00 0.00 0.00 0.00 0.00 0.00 0.00 0.00 0.00 0.00 0.00 0.00 0.00 0.00 0.00 0.00 0.00 0.00
0.21 0.22 0.20 0.12 0.12 0.26 0.26 0.11 0.16 0.20 0.14 0.07 0.02 0.00 0.00 0.00 0.01 0.10 0.28 0.23 0.13 0.07 0.03 0.05 0.01 0.00 0.00 0.00 0.00 0.00 0.00 0.00 0.00 0.00 0.00 0.00 0.00 0.00 0.00 0.00 0.00 0.00 0.00 0.00
0.16 0.15 0.18 0.10 0.11 0.23 0.28 0.09 0.20 0.18 0.15 0.05 0.01 0.00 0.00 0.00 0.00 0.01 0.16 0.30 0.14 0.14 0.13 0.13 0.10 0.02 0.00 0.00 0.00 0.00 0.00 0.00 0.00 0.00 0.00 0.00 0.00 0.00 0.00 0.00 0.00 0.00 0.00 0.00
0.10 0.12 0.15 0.10 0.10 0.20 0.19 0.09 0.37 0.25 0.17 0.10 0.00 0.00 0.00 0.00 0.00 0.00 0.09 0.29 0.16 0.10 0.13 0.10 0.07 0.05 0.02 0.01 0.00 0.00 0.00 0.00 0.00 0.00 0.00 0.00 0.00 0.00 0.00 0.00 0.00 0.00 0.00 0.00
0.07 0.10 0.10 0.09 0.12 0.21 0.21 0.27 0.34 0.41 0.21 0.12 0.01 0.00 0.00 0.00 0.00 0.01 0.06 0.10 0.04 0.03 0.03 0.05 0.03 0.01 0.01 0.02 0.01 0.00 0.00 0.00 0.00 0.00 0.00 0.00 0.00 0.00 0.00 0.00 0.00 0.00 0.00 0.01
0.09 0.10 0.10 0.11 0.16 0.15 0.21 0.11 0.06 0.29 0.38 0.16 0.01 0.01 0.00 0.00 0.00 0.00 0.00 0.00 0.01 0.03 0.04 0.03 0.01 0.01 0.02 0.01 0.00 0.00 0.00 0.00 0.00 0.00 0.00 0.00 0.00 0.00 0.00 0.00 0.01 0.04 0.05 0.04
0.17 0.16 0.20 0.27 0.25 0.20 0.16 0.05 0.12 0.32 0.50 0.23 0.08 0.01 0.00 0.00 0.01 0.02 0.02 0.03 0.05 0.05 0.04 0.02 0.01 0.01 0.02 0.02 0.00 0.00 0.00 0.00 0.00 0.00 0.00 0.00 0.00 0.00 0.01 0.04 0.09 0.10 0.05 0.02
0.34 0.36 0.39 0.39 0.16 0.06 0.05 0.06 0.16 0.18 0.32 0.32 0.11 0.01 0.00 0.00 0.03 0.04 0.03 0.04 0.05 0.02 0.02 0.02 0.01 0.01 0.00 0.00 0.00 0.00 0.00 0.00 0.00 0.00 0.00 0.00 0.00 0.02 0.07 0.12 0.09 0.03 0.01 0.00
0.63 0.68 0.42 0.21 0.10 0.06 0.05 0.06 0.12 0.27 0.16 0.13 0.10 0.01 0.00 0.01 0.02 0.03 0.03 0.02 0.02 0.02 0.01 0.01 0.02 0.01 0.00 0.00 0.00 0.00 0.00 0.00 0.00 0.00 0.00 0.01 0.04 0.07 0.05 0.02 0.00 0.00 0.00 0.00
0.97 0.72 0.19 0.13 0.06 0.02 0.03 0.06 0.05 0.10 0.06 0.01 0.01 0.01 0.01 0.00 0.02 0.01 0.00 0.01 0.01 0.02 0.00 0.01 0.01 0.00 0.00 0.00 0.00 0.00 0.00 0.00 0.00 0.00 0.00 0.00 0.01 0.00 0.00 0.00 0.00 0.00 0.00 0.00
0.54 0.16 0.18 0.09 0.05 0.04 0.02 0.02 0.01 0.00 0.00 0.00 0.00 0.00 0.00 0.00 0.00 0.00 0.01 0.01 0.02 0.01 0.00 0.02 0.00 0.00 0.00 0.00 0.00 0.00 0.00 0.00 0.00 0.00 0.00 0.00 0.00 0.00 0.00 0.00 0.00 0.00 0.00 0.00
0.61 0.58 0.65 0.22 0.17 0.04 0.01 0.01 0.00 0.00 0.00 0.00 0.00 0.00 0.00 0.00 0.00 0.00 0.01 0.02 0.02 0.00 0.02 0.00 0.00 0.00 0.00 0.00 0.00 0.00 0.00 0.00 0.00 0.00 0.00 0.00 0.00 0.00 0.00 0.00 0.00 0.00 0.00 0.00
1.58 1.09 0.75 0.14 0.10 0.00 0.00 0.00 0.00 0.00 0.00 0.00 0.00 0.00 0.00 0.00 0.00 0.00 0.02 0.03 0.01 0.02 0.01 0.00 0.00 0.00 0.00 0.00 0.00 0.00 0.00 0.00 0.00 0.00 0.00 0.00 0.00 0.00 0.00 0.00 0.00 0.00 0.00 0.00
1.29 0.47 0.16 0.03 0.00 0.00 0.00 0.00 0.00 0.00 0.00 0.00 0.00 0.00 0.00 0.00 0.01 0.01 0.03 0.06 0.02 0.00 0.00 0.00 0.00 0.00 0.00 0.00 0.00 0.00 0.00 0.00 0.00 0.00 0.00 0.00 0.00 0.00 0.00 0.00 0.00 0.00 0.00 0.00
1.10 0.44 0.12 0.02 0.00 0.00 0.00 0.00 0.00 0.00 0.00 0.00 0.00 0.01 0.02 0.01 0.01 0.04 0.02 0.01 0.00 0.00 0.00 0.00 0.00 0.00 0.00 0.00 0.00 0.00 0.00 0.00 0.00 0.00 0.00 0.00 0.00 0.00 0.00 0.00 0.00 0.00 0.00 0.00
1.00 0.27 0.01 0.00 0.00 0.00 0.00 0.00 0.00 0.00 0.00 0.00 0.00 0.01 0.00 0.00 0.02 0.03 0.00 0.00 0.00 0.00 0.00 0.00 0.00 0.00 0.00 0.00 0.00 0.00 0.00 0.00 0.00 0.00 0.00 0.00 0.00 0.00 0.00 0.00 0.00 0.00 0.00 0.00

GFSNW_prec_precacc_036.txt.gz
Total_Precipitation_Accumulation
0.54 0.62 0.86 0.67 0.56 0.73 0.81 0.73 0.80 0.52 0.59 1.31 0.99 0.76 0.80 0.82 0.93 1.05 0.88 0.50 0.28 0.22 0.18 0.19 0.15 0.04 0.01 0.00 0.00 0.03 0.12 0.34 0.52 0.44 0.16 0.17 0.34 0.37 0.42 0.45 0.16 0.10 0.00 0.00
0.45 0.62 0.78 0.68 0.85 1.04 1.06 0.68 0.55 0.87 0.50 0.50 0.45 0.58 0.84 1.01 0.93 1.09 0.90 0.55 0.29 0.19 0.16 0.20 0.07 0.00 0.00 0.00 0.00 0.01 0.05 0.30 0.47 0.52 0.28 0.21 0.47 0.40 0.39 0.32 0.15 0.03 0.00 0.00
0.37 0.53 0.61 0.69 0.87 1.03 0.76 0.54 0.42 0.95 1.04 0.28 0.25 0.62 0.82 0.87 0.72 0.94 0.72 0.58 0.35 0.25 0.15 0.05 0.02 0.01 0.00 0.00 0.00 0.01 0.09 0.20 0.50 0.52 0.41 0.22 0.25 0.19 0.18 0.17 0.05 0.03 0.01 0.00
0.40 0.47 0.38 0.49 0.65 0.81 0.47 0.31 0.19 0.18 0.26 0.16 0.06 0.38 0.58 0.74 0.96 0.78 0.77 0.66 0.28 0.17 0.11 0.04 0.01 0.00 0.00 0.00 0.00 0.01 0.17 0.20 0.53 0.52 0.23 0.07 0.14 0.08 0.08 0.03 0.03 0.03 0.01 0.00
0.34 0.41 0.35 0.38 0.54 0.97 0.51 0.22 0.07 0.04 0.01 0.01 0.04 0.29 0.45 0.65 0.63 0.58 0.57 0.47 0.22 0.16 0.06 0.01 0.00 0.00 0.00 0.00 0.01 0.01 0.02 0.12 0.26 0.40 0.13 0.04 0.04 0.02 0.04 0.02 0.01 0.01 0.01 0.00
0.44 0.43 0.59 0.70 0.96 1.26 0.69 0.18 0.03 0.04 0.04 0.02 0.08 0.09 0.27 0.45 0.47 0.41 0.27 0.32 0.23 0.10 0.03 0.00 0.00 0.00 0.00 0.00 0.00 0.00 0.00 0.02 0.13 0.26 0.12 0.01 0.00 0.00 0.00 0.00 0.00 0.01 0.01 0.00
0.43 0.36 0.46 0.49 0.48 0.63 0.54 0.16 0.04 0.08 0.05 0.03 0.05 0.05 0.20 0.36 0.45 0.49 0.35 0.23 0.15 0.05 0.01 0.02 0.03 0.01 0.01 0.01 0.00 0.00 0.02 0.01 0.04 0.06 0.02 0.01 0.00 0.00 0.00 0.00 0.00 0.00 0.00 0.00
0.35 0.29 0.38 0.57 0.58 0.60 0.30 0.10 0.03 0.07 0.09 0.03 0.05 0.05 0.14 0.34 0.45 0.43 0.31 0.17 0.10 0.01 0.06 0.09 0.12 0.15 0.15 0.08 0.02 0.01 0.01 0.02 0.03 0.01 0.00 0.00 0.00 0.00 0.00 0.00 0.00 0.00 0.00 0.00
0.30 0.20 0.16 0.23 0.24 0.25 0.25 0.20 0.13 0.11 0.08 0.06 0.04 0.03 0.06 0.33 0.55 0.56 0.31 0.17 0.03 0.03 0.15 0.15 0.13 0.22 0.15 0.09 0.03 0.01 0.01 0.02 0.05 0.05 0.01 0.00 0.00 0.00 0.00 0.00 0.00 0.00 0.00 0.00
0.30 0.31 0.24 0.23 0.26 0.29 0.24 0.16 0.13 0.20 0.11 0.02 0.04 0.05 0.07 0.16 0.51 0.72 0.37 0.13 0.07 0.06 0.17 0.15 0.04 0.05 0.03 0.04 0.01 0.02 0.08 0.05 0.04 0.05 0.06 0.00 0.00 0.00 0.00 0.00 0.00 0.00 0.00 0.00
0.33 0.39 0.28 0.20 0.17 0.29 0.25 0.06 0.09 0.15 0.13 0.03 0.02 0.02 0.05 0.05 0.27 0.74 0.44 0.14 0.11 0.12 0.21 0.16 0.03 0.00 0.00 0.01 0.00 0.00 0.04 0.04 0.02 0.02 0.03 0.00 0.00 0.00 0.00 0.00 0.00 0.00 0.00 0.00
0.24 0.32 0.24 0.18 0.19 0.31 0.35 0.10 0.10 0.17 0.14 0.06 0.04 0.03 0.01 0.02 0.12 0.52 0.45 0.12 0.04 0.06 0.14 0.07 0.03 0.00 0.00 0.00 0.00 0.00 0.00 0.00 0.00 0.00 0.00 0.00 0.00 0.00 0.00 0.00 0.00 0.00 0.00 0.00
0.21 0.24 0.22 0.16 0.17 0.34 0.39 0.13 0.17 0.22 0.15 0.08 0.03 0.02 0.00 0.00 0.06 0.17 0.42 0.32 0.13 0.07 0.05 0.11 0.03 0.00 0.00 0.00 0.00 0.00 0.00 0.00 0.00 0.00 0.00 0.00 0.00 0.00 0.00 0.00 0.00 0.00 0.00 0.00
0.17 0.17 0.19 0.15 0.17 0.30 0.39 0.11 0.21 0.20 0.17 0.07 0.01 0.00 0.00 0.00 0.02 0.04 0.19 0.35 0.18 0.14 0.13 0.16 0.11 0.02 0.00 0.00 0.00 0.00 0.00 0.00 0.00 0.00 0.00 0.00 0.00 0.00 0.00 0.00 0.00 0.00 0.00 0.00
0.12 0.13 0.16 0.14 0.16 0.28 0.26 0.10 0.37 0.25 0.21 0.18 0.02 0.00 0.00 0.00 0.00 0.01 0.11 0.39 0.25 0.18 0.15 0.10 0.07 0.05 0.02 0.01 0.00 0.00 0.00 0.00 0.00 0.00 0.00 0.00 0.00 0.00 0.00 0.00 0.00 0.00 0.00 0.00
0.08 0.11 0.11 0.10 0.16 0.35 0.30 0.28 0.34 0.42 0.24 0.23 0.04 0.00 0.00 0.00 0.00 0.02 0.13 0.19 0.15 0.16 0.07 0.05 0.04 0.01 0.01 0.02 0.01 0.00 0.00 0.00 0.00 0.00 0.00 0.00 0.00 0.00 0.00 0.00 0.00 0.00 0.00 0.01
0.10 0.11 0.10 0.12 0.21 0.28 0.28 0.12 0.07 0.29 0.41 0.24 0.02 0.01 0.00 0.00 0.00 0.01 0.05 0.02 0.05 0.10 0.09 0.04 0.02 0.01 0.02 0.01 0.00 0.00 0.00 0.00 0.00 0.00 0.00 0.00 0.00 0.00 0.00 0.00 0.01 0.04 0.05 0.04
0.18 0.17 0.21 0.28 0.34 0.35 0.21 0.05 0.13 0.32 0.52 0.28 0.12 0.01 0.00 0.00 0.01 0.02 0.02 0.03 0.05 0.05 0.04 0.02 0.01 0.01 0.02 0.02 0.00 0.00 0.00 0.00 0.00 0.00 0.00 0.00 0.00 0.00 0.01 0.04 0.09 0.10 0.05 0.02
0.36 0.37 0.42 0.53 0.31 0.12 0.06 0.07 0.19 0.22 0.34 0.39 0.13 0.01 0.00 0.00 0.03 0.04 0.03 0.04 0.05 0.02 0.02 0.02 0.01 0.01 0.00 0.00 0.00 0.00 0.00 0.00 0.00 0.00 0.00 0.00 0.00 0.02 0.07 0.12 0.09 0.03 0.01 0.00
0.64 0.76 0.64 0.45 0.19 0.08 0.06 0.07 0.17 0.38 0.27 0.16 0.12 0.01 0.00 0.01 0.02 0.03 0.03 0.02 0.02 0.02 0.01 0.01 0.02 0.01 0.00 0.00 0.00 0.00 0.00 0.00 0.00 0.00 0.00 0.01 0.04 0.07 0.05 0.02 0.00 0.00 0.00 0.00
1.07 0.93 0.35 0.26 0.11 0.02 0.04 0.12 0.09 0.15 0.15 0.04 0.01 0.01 0.01 0.00 0.02 0.01 0.00 0.01 0.01 0.02 0.00 0.01 0.01 0.00 0.00 0.00 0.00 0.00 0.00 0.00 0.00 0.00 0.00 0.00 0.01 0.00 0.00 0.00 0.00 0.00 0.00 0.00
0.69 0.25 0.32 0.16 0.10 0.07 0.03 0.04 0.03 0.01 0.01 0.00 0.00 0.00 0.00 0.01 0.01 0.01 0.01 0.01 0.02 0.01 0.00 0.02 0.00 0.00 0.00 0.00 0.00 0.00 0.00 0.00 0.00 0.00 0.00 0.00 0.00 0.00 0.00 0.00 0.00 0.00 0.00 0.00
0.86 0.82 0.78 0.26 0.20 0.05 0.01 0.01 0.01 0.00 0.00 0.00 0.00 0.00 0.00 0.01 0.00 0.00 0.01 0.02 0.02 0.00 0.02 0.00 0.00 0.00 0.00 0.00 0.00 0.00 0.00 0.00 0.00 0.00 0.00 0.00 0.00 0.00 0.00 0.00 0.00 0.00 0.00 0.00
1.93 1.33 0.85 0.15 0.10 0.00 0.00 0.00 0.00 0.00 0.00 0.00 0.00 0.00 0.00 0.00 0.00 0.00 0.02 0.03 0.01 0.02 0.01 0.00 0.00 0.00 0.00 0.00 0.00 0.00 0.00 0.00 0.00 0.00 0.00 0.00 0.00 0.00 0.00 0.00 0.00 0.00 0.00 0.00
1.57 0.61 0.20 0.04 0.00 0.00 0.00 0.00 0.00 0.00 0.00 0.00 0.00 0.00 0.00 0.00 0.01 0.01 0.03 0.06 0.02 0.00 0.00 0.00 0.00 0.00 0.00 0.00 0.00 0.00 0.00 0.00 0.00 0.00 0.00 0.00 0.00 0.00 0.00 0.00 0.00 0.00 0.00 0.00
1.32 0.54 0.15 0.02 0.00 0.00 0.00 0.00 0.00 0.00 0.00 0.00 0.00 0.01 0.02 0.01 0.01 0.04 0.02 0.01 0.00 0.00 0.00 0.00 0.00 0.00 0.00 0.00 0.00 0.00 0.00 0.00 0.00 0.00 0.00 0.00 0.00 0.00 0.00 0.00 0.00 0.00 0.00 0.00
1.17 0.33 0.02 0.00 0.00 0.00 0.00 0.00 0.00 0.00 0.00 0.00 0.00 0.01 0.00 0.00 0.02 0.03 0.00 0.00 0.00 0.00 0.00 0.00 0.00 0.00 0.00 0.00 0.00 0.00 0.00 0.00 0.00 0.00 0.00 0.00 0.00 0.00 0.00 0.00 0.00 0.00 0.00 0.00

GFSNW_prec_precacc_039.txt.gz
Total_Precipitation_Accumulation
0.54 0.63 0.91 0.81 0.81 0.96 0.99 0.97 1.25 1.06 0.98 2.07 1.34 0.79 0.80 0.82 0.93 1.05 0.88 0.50 0.28 0.22 0.19 0.21 0.16 0.05 0.01 0.00 0.00 0.03 0.12 0.35 0.53 0.44 0.16 0.17 0.35 0.41 0.51 0.68 0.37 0.28 0.17 0.07
0.45 0.62 0.81 0.80 1.10 1.37 1.28 1.13 0.92 1.53 0.78 0.77 0.56 0.59 0.84 1.01 0.93 1.09 0.90 0.55 0.29 0.19 0.19 0.25 0.08 0.00 0.00 0.00 0.00 0.01 0.05 0.33 0.49 0.53 0.36 0.28 0.52 0.45 0.51 0.45 0.45 0.31 0.21 0.04
0.37 0.53 0.62 0.77 1.04 1.27 0.94 0.98 0.92 1.73 1.56 0.39 0.25 0.63 0.82 0.87 0.72 0.94 0.72 0.58 0.35 0.28 0.18 0.08 0.03 0.01 0.00 0.00 0.00 0.01 0.09 0.20 0.50 0.53 0.49 0.48 0.61 0.46 0.43 0.53 0.42 0.14 0.05 0.01
0.40 0.47 0.38 0.52 0.69 0.95 0.64 0.61 0.38 0.39 0.48 0.21 0.07 0.38 0.58 0.74 0.96 0.78 0.78 0.66 0.30 0.22 0.18 0.06 0.03 0.00 0.00 0.00 0.00 0.01 0.18 0.21 0.54 0.58 0.33 0.25 0.56 0.46 0.42 0.33 0.16 0.12 0.02 0.01
0.35 0.41 0.35 0.40 0.56 1.05 0.78 0.36 0.12 0.04 0.01 0.01 0.05 0.30 0.46 0.65 0.63 0.59 0.57 0.48 0.25 0.25 0.14 0.03 0.00 0.00 0.00 0.00 0.01 0.01 0.02 0.13 0.32 0.45 0.35 0.37 0.23 0.22 0.27 0.14 0.07 0.05 0.01 0.00
0.45 0.43 0.59 0.72 1.03 1.43 1.04 0.37 0.06 0.04 0.05 0.02 0.09 0.10 0.27 0.45 0.50 0.44 0.28 0.36 0.32 0.18 0.09 0.02 0.00 0.00 0.00 0.00 0.00 0.00 0.00 0.04 0.19 0.46 0.33 0.19 0.10 0.19 0.11 0.05 0.06 0.02 0.01 0.00
0.43 0.36 0.46 0.50 0.59 0.80 0.73 0.33 0.18 0.10 0.07 0.03 0.05 0.05 0.20 0.36 0.47 0.54 0.40 0.31 0.23 0.11 0.05 0.02 0.03 0.01 0.01 0.01 0.00 0.00 0.02 0.01 0.09 0.19 0.04 0.04 0.01 0.00 0.01 0.05 0.03 0.00 0.01 0.00
0.35 0.29 0.38 0.58 0.64 0.70 0.40 0.21 0.13 0.07 0.09 0.03 0.06 0.05 0.16 0.34 0.46 0.48 0.38 0.25 0.17 0.07 0.09 0.09 0.12 0.15 0.15 0.08 0.02 0.01 0.01 0.02 0.06 0.10 0.01 0.01 0.00 0.00 0.00 0.00 0.00 0.00 0.00 0.00
0.30 0.20 0.16 0.24 0.26 0.28 0.35 0.27 0.19 0.11 0.08 0.07 0.04 0.04 0.06 0.33 0.58 0.61 0.40 0.28 0.09 0.07 0.16 0.15 0.14 0.25 0.15 0.09 0.03 0.01 0.01 0.02 0.07 0.05 0.01 0.00 0.00 0.00 0.00 0.00 0.00 0.00 0.00 0.00
0.30 0.31 0.24 0.24 0.28 0.31 0.29 0.27 0.23 0.21 0.11 0.02 0.04 0.05 0.09 0.20 0.58 0.78 0.49 0.24 0.09 0.07 0.19 0.15 0.04 0.06 0.03 0.04 0.01 0.03 0.08 0.05 0.05 0.05 0.06 0.00 0.00 0.00 0.00 0.00 0.00 0.00 0.00 0.00
0.33 0.39 0.28 0.21 0.19 0.33 0.30 0.16 0.24 0.18 0.13 0.03 0.02 0.03 0.06 0.09 0.34 0.85 0.64 0.22 0.13 0.13 0.22 0.16 0.03 0.00 0.00 0.01 0.00 0.00 0.04 0.04 0.02 0.02 0.03 0.00 0.00 0.00 0.00 0.00 0.00 0.00 0.00 0.00
0.24 0.32 0.24 0.20 0.19 0.36 0.41 0.16 0.16 0.20 0.14 0.06 0.04 0.03 0.03 0.06 0.17 0.58 0.62 0.17 0.05 0.07 0.14 0.07 0.03 0.00 0.00 0.00 0.00 0.00 0.00 0.00 0.00 0.00 0.00 0.00 0.00 0.00 0.00 0.00 0.00 0.00 0.00 0.00
0.21 0.24 0.23 0.17 0.18 0.37 0.46 0.19 0.19 0.23 0.18 0.08 0.03 0.02 0.01 0.01 0.06 0.20 0.55 0.40 0.14 0.08 0.06 0.12 0.06 0.01 0.00 0.00 0.00 0.00 0.00 0.00 0.00 0.00 0.00 0.00 0.00 0.00 0.00 0.00 0.00 0.00 0.00 0.00
0.17 0.18 0.21 0.15 0.18 0.33 0.43 0.17 0.22 0.22 0.18 0.07 0.01 0.01 0.01 0.00 0.05 0.09 0.27 0.44 0.20 0.14 0.13 0.20 0.18 0.04 0.00 0.00 0.00 0.00 0.00 0.00 0.00 0.00 0.00 0.00 0.00 0.00 0.00 0.00 0.00 0.00 0.00 0.00
0.13 0.14 0.16 0.14 0.18 0.31 0.28 0.14 0.37 0.26 0.23 0.20 0.03 0.01 0.01 0.00 0.03 0.06 0.17 0.46 0.32 0.22 0.16 0.13 0.14 0.06 0.02 0.01 0.00 0.00 0.00 0.00 0.00 0.00 0.00 0.00 0.00 0.00 0.00 0.00 0.00 0.00 0.00 0.00
0.10 0.11 0.11 0.11 0.18 0.39 0.38 0.32 0.34 0.42 0.24 0.26 0.05 0.00 0.00 0.00 0.00 0.03 0.16 0.24 0.22 0.23 0.13 0.08 0.04 0.01 0.01 0.02 0.01 0.00 0.00 0.00 0.00 0.00 0.00 0.00 0.00 0.00 0.00 0.00 0.00 0.00 0.00 0.01
0.11 0.12 0.11 0.12 0.24 0.35 0.36 0.14 0.07 0.29 0.41 0.25 0.02 0.01 0.00 0.00 0.00 0.02 0.10 0.06 0.10 0.18 0.15 0.08 0.03 0.01 0.02 0.01 0.00 0.00 0.00 0.00 0.00 0.00 0.00 0.00 0.00 0.00 0.00 0.00 0.01 0.04 0.05 0.04
0.19 0.18 0.21 0.28 0.36 0.43 0.25 0.05 0.13 0.32 0.52 0.29 0.12 0.01 0.00 0.00 0.01 0.04 0.04 0.04 0.09 0.11 0.08 0.02 0.01 0.01 0.02 0.02 0.00 0.00 0.00 0.00 0.00 0.00 0.00 0.00 0.00 0.00 0.01 0.04 0.09 0.10 0.05 0.02
0.38 0.39 0.43 0.54 0.32 0.16 0.10 0.08 0.20 0.22 0.34 0.39 0.14 0.01 0.01 0.00 0.03 0.04 0.03 0.04 0.05 0.03 0.02 0.02 0.01 0.01 0.00 0.00 0.00 0.00 0.00 0.00 0.00 0.00 0.00 0.00 0.00 0.02 0.07 0.12 0.09 0.03 0.01 0.00
0.64 0.77 0.69 0.50 0.21 0.11 0.12 0.10 0.20 0.47 0.29 0.16 0.12 0.01 0.00 0.01 0.02 0.03 0.03 0.02 0.02 0.02 0.01 0.01 0.02 0.01 0.00 0.00 0.00 0.00 0.00 0.00 0.00 0.00 0.00 0.01 0.04 0.07 0.05 0.02 0.00 0.00 0.00 0.00
1.09 0.99 0.43 0.31 0.15 0.07 0.08 0.15 0.15 0.22 0.20 0.06 0.01 0.01 0.01 0.00 0.02 0.01 0.00 0.01 0.01 0.02 0.00 0.01 0.01 0.00 0.00 0.00 0.00 0.00 0.00 0.00 0.00 0.00 0.00 0.00 0.01 0.00 0.00 0.00 0.00 0.00 0.00 0.00
0.77 0.39 0.43 0.24 0.18 0.16 0.08 0.08 0.06 0.02 0.01 0.00 0.00 0.00 0.00 0.03 0.04 0.01 0.01 0.01 0.02 0.01 0.00 0.02 0.00 0.00 0.00 0.00 0.00 0.00 0.00 0.00 0.00 0.00 0.00 0.00 0.00 0.00 0.00 0.00 0.00 0.00 0.00 0.00
1.02 1.05 0.98 0.34 0.27 0.09 0.02 0.02 0.02 0.00 0.00 0.00 0.00 0.00 0.00 0.04 0.06 0.02 0.01 0.02 0.02 0.00 0.02 0.00 0.00 0.00 0.00 0.00 0.00 0.00 0.00 0.00 0.00 0.00 0.00 0.00 0.00 0.00 0.00 0.00 0.00 0.00 0.00 0.00
2.08 1.60 1.02 0.16 0.12 0.00 0.00 0.00 0.00 0.00 0.00 0.00 0.00 0.00 0.00 0.01 0.04 0.03 0.02 0.03 0.01 0.02 0.01 0.00 0.00 0.00 0.00 0.00 0.00 0.00 0.00 0.00 0.00 0.00 0.00 0.00 0.00 0.00 0.00 0.00 0.00 0.00 0.00 0.00
1.80 0.81 0.28 0.04 0.00 0.00 0.00 0.00 0.00 0.00 0.00 0.00 0.00 0.00 0.00 0.00 0.01 0.01 0.03 0.06 0.02 0.00 0.00 0.00 0.00 0.00 0.00 0.00 0.00 0.00 0.00 0.00 0.00 0.00 0.00 0.00 0.00 0.00 0.00 0.00 0.00 0.00 0.00 0.00
1.48 0.66 0.17 0.03 0.00 0.00 0.00 0.00 0.00 0.00 0.00 0.00 0.00 0.01 0.02 0.01 0.01 0.04 0.02 0.01 0.00 0.00 0.00 0.00 0.00 0.00 0.00 0.00 0.00 0.00 0.00 0.00 0.00 0.00 0.00 0.00 0.00 0.00 0.00 0.00 0.00 0.00 0.00 0.00
1.24 0.37 0.03 0.01 0.00 0.00 0.00 0.00 0.00 0.00 0.00 0.00 0.00 0.01 0.00 0.00 0.02 0.03 0.00 0.00 0.00 0.00 0.00 0.00 0.00 0.00 0.00 0.00 0.00 0.00 0.00 0.00 0.00 0.00 0.00 0.00 0.00 0.00 0.00 0.00 0.00 0.00 0.00 0.00

GFSNW_prec_precacc_045.txt.gz
Total_Precipitation_Accumulation
0.55 0.65 0.93 0.83 0.95 1.22 1.33 1.11 1.36 1.37 1.60 3.19 2.11 1.29 0.92 0.83 0.93 1.05 0.88 0.50 0.28 0.22 0.19 0.22 0.16 0.05 0.01 0.00 0.00 0.03 0.12 0.38 0.55 0.44 0.16 0.17 0.35 0.41 0.51 0.78 0.41 0.45 0.42 0.20
0.46 0.64 0.83 0.81 1.24 1.59 1.77 1.34 1.19 2.18 1.14 1.28 0.86 0.79 0.92 1.01 0.93 1.09 0.90 0.55 0.29 0.19 0.19 0.26 0.08 0.01 0.00 0.00 0.00 0.01 0.05 0.36 0.51 0.53 0.37 0.31 0.58 0.46 0.56 0.59 0.75 0.67 0.52 0.13
0.39 0.55 0.63 0.77 1.08 1.42 1.36 1.28 1.34 2.75 2.17 0.58 0.29 0.67 0.86 0.88 0.72 0.94 0.72 0.58 0.35 0.29 0.19 0.09 0.04 0.01 0.00 0.00 0.00 0.01 0.09 0.21 0.50 0.53 0.49 0.51 0.68 0.49 0.49 0.80 0.83 0.33 0.23 0.04
0.43 0.49 0.38 0.52 0.71 1.04 0.87 0.83 0.54 0.68 0.74 0.38 0.12 0.40 0.59 0.75 0.97 0.78 0.78 0.67 0.30 0.22 0.20 0.08 0.05 0.01 0.00 0.00 0.00 0.01 0.19 0.22 0.54 0.58 0.34 0.35 0.77 0.60 0.52 0.73 0.35 0.25 0.06 0.04
0.39 0.42 0.36 0.41 0.58 1.18 1.06 0.71 0.29 0.10 0.05 0.04 0.09 0.33 0.48 0.67 0.64 0.60 0.57 0.48 0.25 0.26 0.16 0.03 0.01 0.00 0.01 0.00 0.01 0.01 0.02 0.14 0.32 0.46 0.45 0.69 0.54 0.32 0.36 0.24 0.15 0.13 0.02 0.01
0.47 0.44 0.59 0.72 1.05 1.65 1.37 0.66 0.35 0.15 0.12 0.08 0.15 0.13 0.28 0.47 0.50 0.45 0.28 0.36 0.34 0.20 0.11 0.08 0.04 0.06 0.02 0.00 0.00 0.00 0.01 0.04 0.21 0.50 0.50 0.54 0.45 0.34 0.17 0.10 0.08 0.03 0.03 0.01
0.45 0.37 0.47 0.50 0.60 0.97 1.09 0.63 0.51 0.26 0.16 0.05 0.06 0.05 0.22 0.39 0.48 0.54 0.41 0.35 0.29 0.13 0.14 0.12 0.06 0.04 0.04 0.02 0.00 0.01 0.03 0.02 0.15 0.28 0.17 0.29 0.18 0.19 0.36 0.21 0.04 0.00 0.01 0.00
0.37 0.30 0.38 0.58 0.65 0.77 0.59 0.45 0.42 0.18 0.16 0.06 0.07 0.07 0.16 0.36 0.47 0.48 0.39 0.31 0.27 0.24 0.34 0.25 0.16 0.19 0.19 0.09 0.02 0.01 0.01 0.03 0.12 0.21 0.13 0.06 0.00 0.04 0.12 0.11 0.04 0.00 0.00 0.00
0.31 0.20 0.17 0.24 0.27 0.32 0.40 0.49 0.41 0.18 0.10 0.07 0.05 0.06 0.07 0.36 0.61 0.62 0.42 0.33 0.19 0.29 0.42 0.26 0.16 0.26 0.16 0.09 0.03 0.01 0.01 0.02 0.14 0.15 0.06 0.00 0.00 0.00 0.00 0.04 0.10 0.03 0.01 0.00
0.31 0.31 0.24 0.24 0.29 0.34 0.32 0.44 0.37 0.27 0.12 0.02 0.04 0.06 0.09 0.21 0.60 0.81 0.56 0.40 0.33 0.36 0.45 0.21 0.04 0.06 0.03 0.04 0.02 0.03 0.08 0.05 0.10 0.11 0.10 0.00 0.00 0.00 0.00 0.00 0.00 0.01 0.00 0.00
0.34 0.39 0.28 0.21 0.21 0.34 0.31 0.26 0.38 0.27 0.15 0.04 0.02 0.03 0.07 0.09 0.36 0.92 0.77 0.47 0.35 0.38 0.44 0.20 0.03 0.00 0.00 0.01 0.00 0.00 0.04 0.04 0.03 0.03 0.03 0.00 0.00 0.00 0.00 0.00 0.00 0.00 0.00 0.00
0.25 0.32 0.24 0.21 0.22 0.37 0.43 0.22 0.26 0.39 0.18 0.06 0.04 0.03 0.03 0.06 0.19 0.67 0.77 0.41 0.15 0.10 0.22 0.08 0.03 0.00 0.00 0.00 0.00 0.00 0.00 0.00 0.00 0.00 0.00 0.00 0.00 0.00 0.00 0.00 0.00 0.00 0.00 0.00
0.21 0.24 0.23 0.19 0.19 0.38 0.49 0.24 0.26 0.37 0.23 0.08 0.03 0.02 0.01 0.01 0.11 0.29 0.73 0.57 0.25 0.11 0.07 0.12 0.06 0.01 0.00 0.00 0.00 0.00 0.00 0.00 0.00 0.00 0.00 0.00 0.00 0.00 0.00 0.00 0.00 0.00 0.00 0.00
0.17 0.18 0.23 0.17 0.19 0.34 0.45 0.20 0.27 0.30 0.20 0.07 0.01 0.01 0.03 0.03 0.14 0.26 0.43 0.60 0.31 0.16 0.14 0.22 0.18 0.05 0.01 0.00 0.00 0.00 0.00 0.00 0.00 0.00 0.00 0.00 0.00 0.00 0.00 0.00 0.00 0.00 0.00 0.00
0.14 0.17 0.18 0.15 0.18 0.31 0.28 0.15 0.39 0.28 0.25 0.25 0.04 0.02 0.03 0.02 0.13 0.24 0.33 0.56 0.38 0.24 0.20 0.15 0.15 0.11 0.03 0.02 0.00 0.00 0.00 0.00 0.00 0.00 0.00 0.00 0.00 0.00 0.00 0.00 0.00 0.00 0.00 0.00
0.13 0.13 0.12 0.12 0.19 0.40 0.41 0.39 0.40 0.42 0.26 0.31 0.08 0.01 0.02 0.01 0.13 0.25 0.32 0.34 0.29 0.27 0.16 0.10 0.05 0.03 0.03 0.03 0.01 0.00 0.00 0.00 0.00 0.00 0.00 0.00 0.00 0.00 0.00 0.00 0.00 0.00 0.00 0.01
0.13 0.14 0.12 0.13 0.25 0.37 0.41 0.17 0.11 0.30 0.47 0.28 0.03 0.01 0.00 0.00 0.05 0.13 0.21 0.13 0.16 0.21 0.19 0.10 0.04 0.01 0.02 0.01 0.00 0.00 0.00 0.00 0.00 0.00 0.00 0.00 0.00 0.00 0.00 0.00 0.01 0.04 0.05 0.04
0.22 0.20 0.23 0.29 0.38 0.46 0.29 0.06 0.14 0.32 0.56 0.29 0.13 0.01 0.00 0.00 0.05 0.11 0.16 0.17 0.18 0.19 0.15 0.05 0.02 0.02 0.03 0.02 0.00 0.00 0.00 0.00 0.00 0.00 0.00 0.00 0.00 0.00 0.01 0.04 0.09 0.10 0.05 0.02
0.42 0.42 0.44 0.56 0.34 0.20 0.16 0.10 0.20 0.22 0.36 0.39 0.14 0.02 0.01 0.00 0.04 0.07 0.08 0.11 0.11 0.08 0.05 0.04 0.03 0.01 0.01 0.00 0.00 0.00 0.00 0.00 0.00 0.00 0.00 0.00 0.00 0.02 0.07 0.12 0.09 0.03 0.01 0.00
0.66 0.78 0.71 0.54 0.22 0.27 0.32 0.17 0.24 0.49 0.30 0.16 0.12 0.01 0.00 0.01 0.02 0.03 0.04 0.03 0.02 0.02 0.01 0.01 0.02 0.01 0.00 0.00 0.00 0.00 0.00 0.00 0.00 0.00 0.00 0.01 0.04 0.07 0.05 0.02 0.00 0.00 0.00 0.00
1.12 1.04 0.54 0.40 0.32 0.40 0.26 0.21 0.17 0.25 0.22 0.06 0.01 0.01 0.01 0.00 0.02 0.02 0.00 0.01 0.01 0.02 0.00 0.01 0.01 0.00 0.00 0.00 0.00 0.00 0.00 0.00 0.00 0.00 0.00 0.00 0.01 0.00 0.00 0.00 0.00 0.00 0.00 0.00
0.85 0.55 0.64 0.42 0.36 0.32 0.19 0.12 0.07 0.03 0.01 0.00 0.00 0.00 0.00 0.04 0.05 0.01 0.01 0.01 0.02 0.01 0.00 0.02 0.00 0.00 0.00 0.00 0.00 0.00 0.00 0.00 0.00 0.00 0.00 0.00 0.00 0.00 0.00 0.00 0.00 0.00 0.00 0.00
1.10 1.28 1.15 0.47 0.34 0.13 0.04 0.03 0.02 0.00 0.00 0.00 0.00 0.00 0.00 0.05 0.10 0.03 0.01 0.02 0.02 0.00 0.02 0.00 0.00 0.00 0.00 0.00 0.00 0.00 0.00 0.00 0.00 0.00 0.00 0.00 0.00 0.00 0.00 0.00 0.00 0.00 0.00 0.00
2.23 1.89 1.16 0.19 0.17 0.00 0.00 0.00 0.00 0.00 0.00 0.00 0.00 0.00 0.00 0.01 0.05 0.07 0.03 0.03 0.01 0.02 0.01 0.00 0.00 0.00 0.00 0.00 0.00 0.00 0.00 0.00 0.00 0.00 0.00 0.00 0.00 0.00 0.00 0.00 0.00 0.00 0.00 0.00
1.94 0.98 0.39 0.06 0.02 0.00 0.00 0.00 0.00 0.00 0.00 0.00 0.00 0.00 0.00 0.01 0.02 0.02 0.04 0.06 0.02 0.00 0.00 0.00 0.00 0.00 0.00 0.00 0.00 0.00 0.00 0.00 0.00 0.00 0.00 0.00 0.00 0.00 0.00 0.00 0.00 0.00 0.00 0.00
1.52 0.75 0.22 0.04 0.00 0.00 0.00 0.00 0.00 0.00 0.00 0.00 0.00 0.01 0.02 0.01 0.01 0.04 0.02 0.01 0.00 0.00 0.00 0.00 0.00 0.00 0.00 0.00 0.00 0.00 0.00 0.00 0.00 0.00 0.00 0.00 0.00 0.00 0.00 0.00 0.00 0.00 0.00 0.00
1.26 0.39 0.03 0.01 0.00 0.00 0.00 0.00 0.00 0.00 0.00 0.00 0.00 0.01 0.00 0.00 0.02 0.03 0.00 0.00 0.00 0.00 0.00 0.00 0.00 0.00 0.00 0.00 0.00 0.00 0.00 0.00 0.00 0.00 0.00 0.00 0.00 0.00 0.00 0.00 0.00 0.00 0.00 0.00

GFSNW_prec_precacc_048.txt.gz
Total_Precipitation_Accumulation
0.58 0.66 0.94 0.84 0.95 1.23 1.38 1.17 1.62 1.47 1.69 3.41 2.18 1.33 1.09 0.87 0.93 1.05 0.88 0.50 0.28 0.22 0.19 0.22 0.16 0.05 0.01 0.00 0.00 0.03 0.12 0.39 0.56 0.44 0.16 0.17 0.35 0.41 0.52 0.79 0.41 0.45 0.43 0.21
0.48 0.66 0.84 0.82 1.24 1.60 1.82 1.40 1.46 2.37 1.22 1.43 0.87 0.81 1.06 1.04 0.93 1.09 0.90 0.55 0.29 0.19 0.19 0.26 0.08 0.01 0.00 0.00 0.00 0.01 0.06 0.38 0.51 0.53 0.37 0.31 0.58 0.46 0.56 0.59 0.77 0.69 0.54 0.14
0.41 0.56 0.64 0.77 1.08 1.43 1.47 1.45 1.77 2.92 2.35 0.61 0.29 0.68 0.94 0.89 0.73 0.94 0.72 0.58 0.35 0.29 0.19 0.09 0.04 0.01 0.00 0.00 0.00 0.01 0.09 0.22 0.50 0.53 0.49 0.51 0.68 0.49 0.49 0.84 0.93 0.35 0.24 0.04
0.45 0.49 0.39 0.52 0.71 1.06 0.91 1.00 0.86 0.77 0.86 0.39 0.13 0.40 0.60 0.76 0.97 0.78 0.78 0.67 0.30 0.22 0.20 0.08 0.05 0.01 0.00 0.00 0.00 0.01 0.19 0.23 0.54 0.58 0.34 0.35 0.77 0.60 0.53 0.85 0.41 0.32 0.07 0.04
0.40 0.42 0.36 0.41 0.58 1.20 1.09 0.81 0.44 0.13 0.06 0.04 0.10 0.34 0.48 0.67 0.64 0.60 0.57 0.48 0.25 0.26 0.16 0.03 0.01 0.00 0.01 0.00 0.01 0.01 0.02 0.14 0.32 0.46 0.45 0.69 0.55 0.33 0.40 0.30 0.22 0.18 0.03 0.02
0.48 0.44 0.59 0.73 1.05 1.69 1.51 0.75 0.40 0.18 0.13 0.09 0.16 0.13 0.28 0.48 0.52 0.45 0.29 0.36 0.34 0.20 0.11 0.08 0.04 0.06 0.03 0.00 0.00 0.00 0.01 0.04 0.21 0.50 0.50 0.55 0.49 0.39 0.22 0.15 0.10 0.06 0.03 0.01
0.45 0.37 0.47 0.50 0.60 0.98 1.19 0.69 0.58 0.32 0.18 0.06 0.06 0.06 0.22 0.39 0.48 0.54 0.41 0.35 0.29 0.13 0.14 0.13 0.06 0.05 0.05 0.04 0.00 0.01 0.04 0.03 0.16 0.28 0.18 0.33 0.23 0.28 0.40 0.21 0.04 0.01 0.01 0.00
0.37 0.30 0.38 0.59 0.65 0.78 0.64 0.53 0.58 0.29 0.21 0.07 0.08 0.07 0.16 0.37 0.47 0.48 0.39 0.31 0.27 0.24 0.35 0.28 0.16 0.20 0.20 0.10 0.03 0.01 0.01 0.04 0.14 0.23 0.16 0.07 0.03 0.11 0.15 0.12 0.04 0.00 0.00 0.00
0.31 0.21 0.17 0.24 0.27 0.33 0.43 0.54 0.54 0.32 0.20 0.10 0.05 0.06 0.07 0.37 0.61 0.62 0.42 0.33 0.19 0.29 0.44 0.31 0.16 0.27 0.16 0.09 0.03 0.01 0.02 0.02 0.16 0.17 0.09 0.00 0.00 0.00 0.00 0.11 0.16 0.03 0.01 0.01
0.31 0.31 0.24 0.24 0.29 0.34 0.35 0.50 0.48 0.35 0.17 0.03 0.04 0.06 0.09 0.21 0.60 0.81 0.57 0.40 0.34 0.40 0.52 0.26 0.05 0.06 0.03 0.04 0.02 0.03 0.09 0.07 0.12 0.14 0.15 0.00 0.00 0.00 0.00 0.00 0.04 0.04 0.01 0.00
0.34 0.40 0.28 0.21 0.22 0.34 0.32 0.28 0.44 0.32 0.16 0.04 0.02 0.03 0.07 0.09 0.36 0.92 0.78 0.49 0.37 0.43 0.50 0.27 0.04 0.00 0.00 0.01 0.00 0.00 0.04 0.05 0.03 0.04 0.05 0.00 0.00 0.00 0.00 0.00 0.00 0.00 0.00 0.00
0.25 0.32 0.24 0.21 0.22 0.38 0.43 0.23 0.27 0.40 0.20 0.06 0.04 0.03 0.03 0.06 0.19 0.67 0.80 0.47 0.19 0.13 0.25 0.10 0.03 0.00 0.00 0.00 0.00 0.00 0.00 0.00 0.00 0.00 0.00 0.00 0.00 0.00 0.00 0.00 0.00 0.00 0.00 0.00
0.22 0.24 0.23 0.20 0.20 0.39 0.50 0.24 0.27 0.38 0.23 0.09 0.03 0.02 0.01 0.01 0.11 0.29 0.77 0.63 0.34 0.18 0.08 0.13 0.06 0.01 0.00 0.00 0.00 0.00 0.00 0.00 0.00 0.00 0.00 0.00 0.00 0.00 0.00 0.00 0.00 0.00 0.00 0.00
0.18 0.19 0.23 0.17 0.19 0.34 0.46 0.20 0.27 0.31 0.22 0.08 0.01 0.01 0.03 0.03 0.15 0.29 0.49 0.67 0.42 0.30 0.16 0.24 0.19 0.05 0.01 0.00 0.00 0.00 0.00 0.00 0.00 0.00 0.00 0.00 0.00 0.00 0.00 0.00 0.00 0.00 0.00 0.00
0.14 0.18 0.18 0.15 0.18 0.31 0.29 0.15 0.39 0.29 0.27 0.28 0.05 0.02 0.04 0.02 0.14 0.31 0.43 0.66 0.45 0.31 0.23 0.17 0.16 0.11 0.03 0.02 0.00 0.00 0.00 0.00 0.00 0.00 0.00 0.00 0.00 0.00 0.00 0.00 0.00 0.00 0.00 0.00
0.13 0.13 0.12 0.12 0.19 0.40 0.41 0.39 0.40 0.43 0.29 0.35 0.10 0.02 0.02 0.01 0.18 0.36 0.42 0.40 0.32 0.31 0.20 0.12 0.06 0.03 0.03 0.03 0.01 0.00 0.00 0.00 0.00 0.00 0.00 0.00 0.00 0.00 0.00 0.00 0.00 0.00 0.00 0.01
0.14 0.15 0.13 0.13 0.25 0.38 0.41 0.18 0.14 0.31 0.50 0.30 0.04 0.04 0.03 0.00 0.10 0.26 0.34 0.18 0.19 0.25 0.22 0.13 0.04 0.02 0.02 0.01 0.00 0.00 0.00 0.00 0.00 0.00 0.00 0.00 0.00 0.00 0.00 0.00 0.01 0.04 0.05 0.04
0.24 0.21 0.23 0.30 0.39 0.46 0.29 0.06 0.14 0.32 0.58 0.30 0.13 0.02 0.01 0.00 0.08 0.20 0.25 0.23 0.20 0.22 0.16 0.06 0.02 0.02 0.03 0.03 0.00 0.00 0.00 0.00 0.00 0.00 0.00 0.00 0.00 0.00 0.01 0.04 0.09 0.10 0.06 0.02
0.44 0.42 0.45 0.57 0.35 0.20 0.17 0.12 0.22 0.23 0.39 0.40 0.14 0.02 0.01 0.00 0.05 0.12 0.14 0.15 0.13 0.10 0.05 0.05 0.03 0.02 0.01 0.00 0.00 0.00 0.00 0.00 0.00 0.00 0.00 0.00 0.00 0.02 0.07 0.12 0.09 0.03 0.01 0.00
0.67 0.79 0.72 0.54 0.23 0.32 0.41 0.23 0.26 0.50 0.32 0.16 0.12 0.01 0.00 0.01 0.02 0.04 0.06 0.06 0.05 0.02 0.01 0.01 0.02 0.01 0.00 0.00 0.00 0.00 0.00 0.00 0.00 0.00 0.00 0.01 0.04 0.07 0.05 0.02 0.00 0.00 0.00 0.00
1.13 1.07 0.56 0.41 0.42 0.48 0.30 0.23 0.19 0.26 0.22 0.06 0.01 0.01 0.01 0.00 0.02 0.02 0.00 0.01 0.01 0.02 0.00 0.01 0.01 0.00 0.00 0.00 0.00 0.00 0.00 0.00 0.00 0.00 0.00 0.00 0.01 0.00 0.00 0.00 0.00 0.00 0.00 0.00
0.86 0.58 0.67 0.50 0.42 0.34 0.20 0.12 0.07 0.03 0.01 0.00 0.00 0.00 0.00 0.04 0.05 0.01 0.01 0.01 0.02 0.01 0.00 0.02 0.00 0.00 0.00 0.00 0.00 0.00 0.00 0.00 0.00 0.00 0.00 0.00 0.00 0.00 0.00 0.00 0.00 0.00 0.00 0.00
1.11 1.31 1.22 0.51 0.35 0.15 0.05 0.03 0.02 0.00 0.00 0.00 0.00 0.00 0.00 0.05 0.10 0.04 0.01 0.02 0.02 0.00 0.02 0.00 0.00 0.00 0.00 0.00 0.00 0.00 0.00 0.00 0.00 0.00 0.00 0.00 0.00 0.00 0.00 0.00 0.00 0.00 0.00 0.00
2.24 1.90 1.19 0.21 0.20 0.00 0.00 0.00 0.00 0.00 0.00 0.00 0.00 0.01 0.01 0.02 0.05 0.07 0.03 0.03 0.01 0.02 0.01 0.00 0.00 0.00 0.00 0.00 0.00 0.00 0.00 0.00 0.00 0.00 0.00 0.00 0.00 0.00 0.00 0.00 0.00 0.00 0.00 0.00
1.94 0.99 0.39 0.06 0.02 0.00 0.00 0.00 0.00 0.00 0.00 0.00 0.00 0.00 0.00 0.01 0.02 0.02 0.04 0.06 0.02 0.00 0.00 0.00 0.00 0.00 0.00 0.00 0.00 0.00 0.00 0.00 0.00 0.00 0.00 0.00 0.00 0.00 0.00 0.00 0.00 0.00 0.00 0.00
1.52 0.75 0.22 0.04 0.00 0.00 0.00 0.00 0.00 0.00 0.00 0.00 0.00 0.01 0.02 0.01 0.01 0.04 0.02 0.01 0.00 0.00 0.00 0.00 0.00 0.00 0.00 0.00 0.00 0.00 0.00 0.00 0.00 0.00 0.00 0.00 0.00 0.00 0.00 0.00 0.00 0.00 0.00 0.00
1.26 0.39 0.03 0.01 0.00 0.00 0.00 0.00 0.00 0.00 0.00 0.00 0.00 0.01 0.00 0.00 0.02 0.03 0.00 0.00 0.00 0.00 0.00 0.00 0.00 0.00 0.00 0.00 0.00 0.00 0.00 0.00 0.00 0.00 0.00 0.00 0.00 0.00 0.00 0.00 0.00 0.00 0.00 0.00

GFSNW_prec_precacc_051.txt.gz
Total_Precipitation_Accumulation
0.59 0.68 0.95 0.85 0.96 1.23 1.40 1.24 1.79 1.65 1.74 3.47 2.21 1.34 1.10 0.96 0.96 1.05 0.88 0.50 0.28 0.22 0.19 0.22 0.16 0.05 0.01 0.00 0.00 0.03 0.12 0.39 0.56 0.44 0.16 0.17 0.35 0.41 0.52 0.80 0.41 0.45 0.43 0.21
0.49 0.67 0.84 0.82 1.25 1.61 1.91 1.52 1.60 2.46 1.29 1.53 0.89 0.83 1.11 1.13 0.95 1.09 0.90 0.55 0.29 0.19 0.19 0.26 0.08 0.01 0.00 0.00 0.00 0.01 0.06 0.38 0.51 0.53 0.37 0.31 0.58 0.46 0.56 0.60 0.78 0.70 0.56 0.14
0.42 0.56 0.64 0.77 1.09 1.44 1.55 1.62 1.95 3.10 2.49 0.65 0.31 0.68 1.01 0.97 0.74 0.94 0.72 0.58 0.35 0.29 0.19 0.09 0.04 0.01 0.00 0.00 0.00 0.01 0.09 0.22 0.50 0.53 0.49 0.51 0.68 0.49 0.49 0.84 0.95 0.36 0.24 0.04
0.45 0.49 0.39 0.53 0.71 1.06 0.96 1.13 0.96 0.80 0.96 0.41 0.14 0.41 0.63 0.79 0.98 0.78 0.78 0.67 0.30 0.22 0.20 0.08 0.05 0.01 0.00 0.00 0.00 0.01 0.19 0.24 0.54 0.58 0.34 0.35 0.77 0.60 0.53 0.86 0.42 0.36 0.08 0.04
0.40 0.42 0.36 0.41 0.58 1.20 1.10 0.86 0.53 0.17 0.09 0.05 0.11 0.34 0.49 0.71 0.64 0.60 0.57 0.48 0.25 0.26 0.16 0.03 0.01 0.00 0.01 0.00 0.01 0.02 0.03 0.15 0.33 0.46 0.45 0.69 0.55 0.33 0.41 0.31 0.24 0.24 0.05 0.03
0.48 0.44 0.59 0.73 1.05 1.69 1.54 0.77 0.44 0.21 0.15 0.10 0.16 0.14 0.28 0.49 0.52 0.45 0.29 0.36 0.34 0.20 0.11 0.08 0.04 0.06 0.03 0.00 0.00 0.01 0.02 0.05 0.22 0.50 0.50 0.55 0.49 0.39 0.23 0.16 0.13 0.10 0.06 0.02
0.45 0.37 0.47 0.51 0.60 0.99 1.23 0.70 0.60 0.34 0.20 0.07 0.07 0.06 0.22 0.39 0.48 0.55 0.41 0.35 0.29 0.13 0.14 0.13 0.06 0.05 0.05 0.04 0.01 0.01 0.05 0.04 0.16 0.28 0.18 0.34 0.24 0.29 0.42 0.22 0.05 0.02 0.02 0.00
0.37 0.30 0.39 0.59 0.65 0.78 0.67 0.54 0.62 0.32 0.23 0.08 0.08 0.07 0.17 0.37 0.47 0.49 0.39 0.31 0.27 0.24 0.35 0.28 0.17 0.20 0.21 0.11 0.04 0.02 0.02 0.07 0.16 0.24 0.16 0.07 0.05 0.12 0.17 0.12 0.04 0.01 0.01 0.00
0.31 0.21 0.17 0.24 0.27 0.33 0.45 0.59 0.62 0.38 0.24 0.11 0.05 0.06 0.08 0.38 0.62 0.63 0.43 0.34 0.19 0.29 0.45 0.31 0.17 0.27 0.16 0.09 0.04 0.02 0.03 0.04 0.19 0.19 0.10 0.01 0.01 0.00 0.00 0.12 0.21 0.04 0.01 0.01
0.31 0.32 0.24 0.24 0.30 0.35 0.36 0.53 0.54 0.45 0.25 0.04 0.05 0.07 0.10 0.22 0.60 0.82 0.57 0.40 0.36 0.41 0.53 0.27 0.05 0.06 0.03 0.04 0.02 0.04 0.11 0.10 0.15 0.15 0.16 0.00 0.00 0.00 0.00 0.01 0.07 0.06 0.03 0.00
0.34 0.40 0.28 0.21 0.22 0.35 0.33 0.29 0.46 0.36 0.19 0.04 0.03 0.03 0.07 0.10 0.36 0.93 0.78 0.49 0.37 0.45 0.51 0.28 0.05 0.01 0.01 0.01 0.00 0.00 0.04 0.05 0.04 0.04 0.05 0.00 0.00 0.00 0.00 0.00 0.00 0.00 0.00 0.01
0.25 0.32 0.25 0.21 0.22 0.38 0.44 0.23 0.28 0.42 0.23 0.07 0.04 0.03 0.03 0.06 0.20 0.67 0.80 0.47 0.19 0.13 0.26 0.10 0.04 0.01 0.00 0.00 0.00 0.00 0.00 0.00 0.00 0.00 0.00 0.00 0.00 0.00 0.00 0.00 0.00 0.00 0.00 0.00
0.22 0.24 0.24 0.20 0.20 0.39 0.51 0.25 0.27 0.39 0.24 0.10 0.03 0.02 0.01 0.01 0.11 0.29 0.77 0.63 0.35 0.19 0.09 0.15 0.07 0.04 0.01 0.01 0.00 0.00 0.00 0.00 0.00 0.00 0.00 0.00 0.00 0.00 0.00 0.00 0.00 0.00 0.00 0.00
0.18 0.19 0.24 0.18 0.19 0.34 0.46 0.21 0.27 0.32 0.22 0.08 0.02 0.01 0.03 0.03 0.15 0.29 0.50 0.69 0.45 0.36 0.21 0.29 0.23 0.10 0.01 0.01 0.00 0.00 0.00 0.00 0.00 0.00 0.00 0.00 0.00 0.00 0.00 0.00 0.00 0.00 0.00 0.00
0.15 0.18 0.19 0.16 0.18 0.31 0.29 0.15 0.39 0.29 0.28 0.29 0.06 0.02 0.04 0.02 0.14 0.33 0.50 0.75 0.51 0.38 0.33 0.20 0.19 0.15 0.05 0.02 0.00 0.00 0.00 0.00 0.00 0.00 0.00 0.00 0.00 0.00 0.00 0.00 0.00 0.00 0.00 0.00
0.14 0.14 0.13 0.12 0.19 0.40 0.41 0.39 0.41 0.44 0.31 0.36 0.10 0.02 0.03 0.01 0.20 0.42 0.48 0.48 0.40 0.38 0.26 0.15 0.09 0.06 0.05 0.04 0.01 0.00 0.00 0.00 0.00 0.00 0.00 0.00 0.00 0.00 0.00 0.00 0.00 0.00 0.00 0.01
0.15 0.16 0.14 0.14 0.26 0.39 0.41 0.18 0.15 0.32 0.51 0.31 0.05 0.05 0.04 0.01 0.14 0.36 0.44 0.22 0.21 0.27 0.25 0.15 0.07 0.05 0.04 0.02 0.00 0.00 0.00 0.00 0.00 0.00 0.00 0.00 0.00 0.00 0.00 0.00 0.01 0.04 0.05 0.04
0.25 0.24 0.24 0.31 0.39 0.47 0.29 0.06 0.14 0.32 0.58 0.31 0.14 0.02 0.01 0.02 0.16 0.33 0.35 0.30 0.24 0.26 0.19 0.07 0.03 0.02 0.03 0.03 0.00 0.00 0.00 0.00 0.00 0.00 0.00 0.00 0.00 0.00 0.01 0.04 0.09 0.10 0.06 0.02
0.47 0.43 0.46 0.58 0.36 0.20 0.17 0.12 0.23 0.23 0.42 0.43 0.14 0.02 0.01 0.00 0.07 0.20 0.25 0.24 0.20 0.14 0.07 0.05 0.04 0.02 0.01 0.00 0.00 0.00 0.00 0.00 0.00 0.00 0.00 0.00 0.00 0.02 0.07 0.12 0.09 0.03 0.01 0.00
0.68 0.79 0.72 0.54 0.23 0.33 0.44 0.28 0.27 0.50 0.33 0.17 0.13 0.01 0.01 0.01 0.02 0.06 0.11 0.13 0.11 0.05 0.02 0.01 0.02 0.01 0.00 0.00 0.00 0.00 0.00 0.00 0.00 0.00 0.00 0.01 0.04 0.07 0.05 0.02 0.00 0.00 0.00 0.00
1.15 1.08 0.57 0.43 0.49 0.55 0.35 0.25 0.19 0.26 0.22 0.07 0.01 0.01 0.02 0.00 0.02 0.02 0.01 0.03 0.03 0.04 0.00 0.01 0.01 0.00 0.00 0.00 0.00 0.00 0.00 0.00 0.00 0.00 0.00 0.00 0.01 0.00 0.00 0.00 0.00 0.00 0.00 0.00
0.88 0.61 0.69 0.54 0.45 0.35 0.20 0.13 0.07 0.03 0.01 0.00 0.00 0.00 0.01 0.04 0.05 0.01 0.01 0.01 0.02 0.01 0.00 0.02 0.00 0.00 0.00 0.00 0.00 0.00 0.00 0.00 0.00 0.00 0.00 0.00 0.00 0.00 0.00 0.00 0.00 0.00 0.00 0.00
1.12 1.32 1.23 0.53 0.36 0.15 0.05 0.04 0.02 0.00 0.00 0.00 0.00 0.00 0.00 0.05 0.10 0.04 0.01 0.02 0.02 0.00 0.02 0.00 0.00 0.00 0.00 0.00 0.00 0.00 0.00 0.00 0.00 0.00 0.00 0.00 0.00 0.00 0.00 0.00 0.00 0.00 0.00 0.00
2.24 1.90 1.19 0.21 0.20 0.00 0.00 0.00 0.00 0.00 0.00 0.00 0.01 0.01 0.01 0.02 0.05 0.07 0.03 0.03 0.01 0.02 0.01 0.00 0.00 0.00 0.00 0.00 0.00 0.00 0.00 0.00 0.00 0.00 0.00 0.00 0.00 0.00 0.00 0.00 0.00 0.00 0.00 0.00
1.94 0.99 0.39 0.06 0.02 0.00 0.00 0.00 0.00 0.00 0.00 0.00 0.00 0.00 0.00 0.01 0.02 0.02 0.04 0.06 0.02 0.00 0.00 0.00 0.00 0.00 0.00 0.00 0.00 0.00 0.00 0.00 0.00 0.00 0.00 0.00 0.00 0.00 0.00 0.00 0.00 0.00 0.00 0.00
1.52 0.75 0.22 0.04 0.00 0.00 0.00 0.00 0.00 0.00 0.00 0.00 0.00 0.01 0.02 0.01 0.01 0.04 0.02 0.01 0.00 0.00 0.00 0.00 0.00 0.00 0.00 0.00 0.00 0.00 0.00 0.00 0.00 0.00 0.00 0.00 0.00 0.00 0.00 0.00 0.00 0.00 0.00 0.00
1.26 0.39 0.03 0.01 0.00 0.00 0.00 0.00 0.00 0.00 0.00 0.00 0.01 0.01 0.00 0.00 0.02 0.03 0.00 0.00 0.00 0.00 0.00 0.00 0.00 0.00 0.00 0.00 0.00 0.00 0.00 0.00 0.00 0.00 0.00 0.00 0.00 0.00 0.00 0.00 0.00 0.00 0.00 0.00

GFSNW_prec_precacc_054.txt.gz
Total_Precipitation_Accumulation
0.60 0.70 0.96 0.85 0.96 1.24 1.42 1.31 1.88 1.79 1.80 3.52 2.25 1.35 1.12 0.99 1.10 1.10 0.88 0.50 0.28 0.22 0.19 0.22 0.16 0.05 0.01 0.00 0.00 0.03 0.12 0.39 0.56 0.44 0.16 0.17 0.35 0.41 0.52 0.80 0.41 0.45 0.43 0.21
0.50 0.68 0.85 0.82 1.25 1.61 1.94 1.58 1.63 2.47 1.37 1.55 0.91 0.87 1.15 1.21 1.10 1.12 0.90 0.55 0.29 0.19 0.19 0.27 0.08 0.01 0.00 0.00 0.00 0.01 0.06 0.38 0.51 0.53 0.37 0.31 0.58 0.46 0.56 0.60 0.78 0.70 0.56 0.14
0.43 0.57 0.64 0.77 1.09 1.44 1.60 1.65 2.00 3.14 2.63 0.69 0.34 0.70 1.06 1.05 0.85 0.96 0.72 0.58 0.35 0.29 0.19 0.09 0.04 0.01 0.00 0.00 0.00 0.01 0.09 0.22 0.50 0.53 0.49 0.51 0.68 0.49 0.49 0.84 0.96 0.36 0.24 0.04
0.46 0.50 0.39 0.53 0.71 1.06 1.00 1.15 1.00 0.87 0.98 0.42 0.17 0.43 0.68 0.86 1.04 0.79 0.78 0.67 0.30 0.22 0.20 0.08 0.05 0.01 0.00 0.00 0.00 0.01 0.19 0.24 0.54 0.58 0.34 0.35 0.77 0.60 0.53 0.86 0.42 0.36 0.08 0.04
0.41 0.43 0.36 0.41 0.58 1.20 1.10 0.87 0.54 0.20 0.11 0.06 0.12 0.35 0.55 0.85 0.67 0.61 0.58 0.49 0.26 0.27 0.16 0.04 0.01 0.00 0.01 0.00 0.01 0.02 0.03 0.15 0.33 0.46 0.45 0.69 0.55 0.33 0.41 0.31 0.24 0.24 0.05 0.03
0.49 0.45 0.60 0.73 1.05 1.70 1.56 0.78 0.46 0.22 0.16 0.11 0.18 0.14 0.29 0.54 0.54 0.46 0.29 0.36 0.34 0.20 0.11 0.08 0.04 0.06 0.03 0.00 0.00 0.01 0.02 0.05 0.22 0.50 0.50 0.55 0.49 0.39 0.23 0.17 0.13 0.11 0.08 0.02
0.46 0.39 0.47 0.51 0.60 0.99 1.26 0.72 0.61 0.35 0.20 0.07 0.07 0.06 0.22 0.39 0.50 0.55 0.41 0.35 0.29 0.14 0.14 0.13 0.06 0.05 0.05 0.04 0.01 0.01 0.05 0.04 0.17 0.29 0.19 0.35 0.24 0.29 0.42 0.23 0.05 0.03 0.05 0.01
0.37 0.30 0.39 0.59 0.65 0.78 0.69 0.55 0.63 0.33 0.24 0.09 0.09 0.08 0.17 0.37 0.48 0.50 0.40 0.31 0.27 0.24 0.35 0.28 0.17 0.20 0.21 0.11 0.04 0.02 0.02 0.08 0.17 0.24 0.16 0.07 0.05 0.12 0.17 0.12 0.04 0.03 0.03 0.00
0.31 0.21 0.17 0.24 0.27 0.34 0.46 0.60 0.63 0.39 0.24 0.11 0.05 0.07 0.09 0.38 0.62 0.63 0.44 0.36 0.20 0.29 0.45 0.31 0.17 0.27 0.16 0.09 0.04 0.03 0.04 0.04 0.24 0.20 0.12 0.01 0.01 0.00 0.00 0.13 0.23 0.04 0.02 0.01
0.31 0.32 0.25 0.24 0.30 0.36 0.37 0.54 0.57 0.48 0.27 0.04 0.05 0.08 0.11 0.23 0.61 0.83 0.58 0.41 0.37 0.41 0.53 0.28 0.05 0.06 0.03 0.04 0.02 0.04 0.13 0.13 0.16 0.15 0.17 0.00 0.00 0.00 0.00 0.01 0.08 0.06 0.03 0.00
0.35 0.40 0.28 0.21 0.22 0.35 0.34 0.29 0.48 0.42 0.24 0.06 0.03 0.05 0.09 0.11 0.37 0.95 0.79 0.49 0.38 0.46 0.52 0.29 0.06 0.01 0.01 0.01 0.00 0.00 0.05 0.06 0.05 0.05 0.06 0.00 0.00 0.00 0.00 0.00 0.00 0.00 0.00 0.01
0.25 0.32 0.25 0.21 0.22 0.38 0.44 0.25 0.29 0.45 0.29 0.09 0.04 0.04 0.04 0.08 0.21 0.69 0.80 0.48 0.20 0.13 0.27 0.11 0.04 0.01 0.01 0.00 0.01 0.00 0.00 0.00 0.00 0.00 0.00 0.00 0.00 0.00 0.00 0.00 0.00 0.00 0.00 0.00
0.22 0.25 0.24 0.20 0.20 0.39 0.51 0.26 0.27 0.40 0.28 0.11 0.05 0.02 0.01 0.01 0.11 0.29 0.77 0.64 0.35 0.19 0.09 0.16 0.08 0.04 0.02 0.01 0.00 0.00 0.00 0.00 0.00 0.00 0.00 0.00 0.00 0.00 0.00 0.00 0.00 0.00 0.00 0.00
0.18 0.20 0.25 0.18 0.19 0.34 0.46 0.21 0.28 0.32 0.22 0.08 0.03 0.01 0.03 0.03 0.15 0.29 0.50 0.69 0.45 0.38 0.24 0.31 0.24 0.11 0.02 0.02 0.01 0.00 0.00 0.00 0.00 0.00 0.00 0.00 0.00 0.00 0.00 0.00 0.00 0.00 0.00 0.00
0.16 0.19 0.20 0.16 0.19 0.31 0.29 0.15 0.39 0.29 0.28 0.30 0.07 0.02 0.04 0.02 0.14 0.33 0.50 0.77 0.55 0.42 0.36 0.23 0.20 0.17 0.07 0.03 0.00 0.00 0.00 0.00 0.00 0.00 0.00 0.00 0.00 0.00 0.00 0.00 0.00 0.00 0.00 0.00
0.14 0.15 0.14 0.13 0.20 0.40 0.42 0.39 0.41 0.44 0.32 0.37 0.10 0.03 0.03 0.02 0.20 0.42 0.51 0.53 0.48 0.44 0.30 0.19 0.11 0.10 0.09 0.06 0.02 0.00 0.00 0.00 0.00 0.00 0.00 0.00 0.00 0.00 0.00 0.00 0.00 0.00 0.00 0.01
0.17 0.18 0.16 0.15 0.26 0.39 0.42 0.19 0.17 0.33 0.53 0.31 0.05 0.05 0.05 0.03 0.19 0.44 0.52 0.28 0.28 0.33 0.30 0.20 0.11 0.08 0.06 0.03 0.00 0.00 0.00 0.00 0.00 0.00 0.00 0.00 0.00 0.00 0.00 0.00 0.01 0.04 0.05 0.04
0.27 0.26 0.25 0.32 0.40 0.47 0.29 0.06 0.15 0.33 0.58 0.31 0.14 0.02 0.01 0.04 0.23 0.43 0.44 0.36 0.27 0.29 0.23 0.09 0.05 0.04 0.04 0.03 0.00 0.00 0.00 0.00 0.00 0.00 0.00 0.00 0.00 0.00 0.01 0.04 0.09 0.10 0.06 0.02
0.50 0.46 0.46 0.59 0.36 0.21 0.17 0.13 0.24 0.23 0.43 0.48 0.14 0.02 0.01 0.01 0.09 0.27 0.37 0.32 0.27 0.21 0.11 0.08 0.06 0.03 0.01 0.00 0.00 0.00 0.00 0.00 0.00 0.00 0.00 0.00 0.00 0.02 0.07 0.12 0.09 0.03 0.01 0.00
0.69 0.80 0.72 0.54 0.23 0.33 0.46 0.31 0.29 0.52 0.34 0.19 0.14 0.01 0.01 0.01 0.03 0.08 0.19 0.24 0.22 0.16 0.08 0.05 0.04 0.01 0.00 0.00 0.00 0.00 0.00 0.00 0.00 0.00 0.00 0.01 0.04 0.07 0.05 0.02 0.00 0.00 0.00 0.00
1.16 1.09 0.59 0.44 0.52 0.59 0.39 0.29 0.20 0.27 0.23 0.07 0.01 0.01 0.02 0.01 0.02 0.03 0.05 0.10 0.12 0.14 0.07 0.04 0.01 0.00 0.00 0.00 0.00 0.00 0.00 0.00 0.00 0.00 0.00 0.00 0.01 0.00 0.00 0.00 0.00 0.00 0.00 0.00
0.90 0.65 0.77 0.59 0.50 0.38 0.21 0.13 0.07 0.03 0.01 0.00 0.01 0.01 0.01 0.04 0.05 0.01 0.04 0.05 0.05 0.06 0.02 0.02 0.00 0.00 0.00 0.00 0.00 0.00 0.00 0.00 0.00 0.00 0.00 0.00 0.00 0.00 0.00 0.01 0.00 0.00 0.00 0.00
1.13 1.37 1.27 0.56 0.37 0.15 0.05 0.04 0.02 0.00 0.00 0.00 0.00 0.01 0.00 0.05 0.10 0.04 0.04 0.05 0.04 0.00 0.02 0.00 0.00 0.00 0.00 0.00 0.00 0.00 0.00 0.00 0.00 0.00 0.00 0.00 0.00 0.00 0.00 0.00 0.00 0.00 0.00 0.00
2.25 1.92 1.20 0.21 0.20 0.00 0.00 0.00 0.00 0.00 0.00 0.01 0.01 0.01 0.01 0.02 0.06 0.07 0.03 0.03 0.02 0.03 0.01 0.00 0.00 0.00 0.00 0.00 0.00 0.00 0.00 0.00 0.00 0.00 0.00 0.00 0.00 0.00 0.00 0.00 0.00 0.00 0.00 0.00
1.94 0.99 0.39 0.07 0.02 0.00 0.00 0.00 0.00 0.00 0.00 0.00 0.00 0.00 0.00 0.01 0.02 0.02 0.04 0.06 0.03 0.00 0.00 0.00 0.00 0.00 0.00 0.00 0.00 0.00 0.00 0.00 0.00 0.00 0.00 0.00 0.00 0.00 0.00 0.00 0.00 0.00 0.00 0.00
1.52 0.75 0.22 0.04 0.00 0.00 0.00 0.00 0.00 0.00 0.00 0.00 0.00 0.01 0.02 0.01 0.01 0.04 0.02 0.01 0.00 0.00 0.00 0.00 0.00 0.00 0.00 0.00 0.00 0.00 0.00 0.00 0.00 0.00 0.00 0.00 0.00 0.00 0.00 0.00 0.00 0.00 0.00 0.00
1.26 0.39 0.03 0.01 0.00 0.00 0.00 0.00 0.00 0.00 0.00 0.00 0.01 0.01 0.00 0.00 0.02 0.03 0.00 0.00 0.00 0.00 0.00 0.00 0.00 0.00 0.00 0.00 0.00 0.00 0.00 0.00 0.00 0.00 0.00 0.00 0.00 0.00 0.00 0.00 0.00 0.00 0.00 0.00

GFSNW_prec_precacc_057.txt.gz
Total_Precipitation_Accumulation
0.61 0.70 0.96 0.86 0.97 1.24 1.43 1.32 1.88 1.80 1.83 3.55 2.30 1.36 1.13 1.02 1.22 1.38 0.98 0.50 0.28 0.22 0.19 0.22 0.16 0.05 0.01 0.00 0.00 0.03 0.12 0.39 0.56 0.44 0.16 0.17 0.35 0.41 0.52 0.80 0.41 0.45 0.43 0.21
0.51 0.69 0.85 0.82 1.25 1.62 1.96 1.58 1.63 2.48 1.39 1.56 0.91 0.89 1.18 1.24 1.33 1.22 0.92 0.56 0.29 0.19 0.19 0.27 0.08 0.01 0.00 0.00 0.00 0.01 0.06 0.38 0.51 0.53 0.38 0.31 0.58 0.46 0.56 0.60 0.79 0.70 0.56 0.14
0.44 0.58 0.64 0.77 1.09 1.45 1.61 1.65 2.01 3.14 2.64 0.69 0.34 0.72 1.09 1.13 1.04 0.98 0.72 0.58 0.35 0.29 0.20 0.09 0.05 0.01 0.00 0.00 0.00 0.01 0.09 0.22 0.50 0.53 0.49 0.51 0.68 0.49 0.49 0.84 0.97 0.36 0.24 0.04
0.47 0.50 0.39 0.53 0.71 1.06 1.00 1.15 1.01 0.88 0.98 0.42 0.18 0.53 0.76 0.99 1.14 0.80 0.78 0.67 0.30 0.22 0.20 0.08 0.05 0.01 0.00 0.00 0.00 0.01 0.19 0.24 0.54 0.58 0.34 0.35 0.77 0.60 0.53 0.86 0.42 0.36 0.08 0.04
0.42 0.43 0.37 0.41 0.58 1.20 1.11 0.87 0.54 0.21 0.12 0.06 0.12 0.37 0.63 1.02 0.72 0.62 0.59 0.49 0.26 0.27 0.16 0.04 0.01 0.00 0.01 0.00 0.01 0.02 0.03 0.15 0.33 0.46 0.45 0.69 0.55 0.33 0.41 0.31 0.24 0.24 0.05 0.03
0.49 0.45 0.61 0.74 1.05 1.70 1.57 0.79 0.46 0.23 0.16 0.11 0.18 0.16 0.42 0.62 0.61 0.47 0.30 0.37 0.34 0.20 0.11 0.08 0.04 0.06 0.03 0.00 0.00 0.01 0.02 0.05 0.23 0.50 0.50 0.55 0.49 0.39 0.23 0.17 0.13 0.11 0.08 0.02
0.46 0.39 0.48 0.51 0.60 1.00 1.28 0.74 0.61 0.35 0.20 0.07 0.08 0.06 0.24 0.43 0.55 0.56 0.41 0.35 0.29 0.14 0.14 0.13 0.06 0.05 0.05 0.04 0.01 0.01 0.05 0.04 0.17 0.29 0.19 0.35 0.24 0.29 0.42 0.23 0.05 0.03 0.05 0.01
0.38 0.30 0.39 0.59 0.65 0.79 0.70 0.57 0.65 0.34 0.24 0.09 0.09 0.08 0.17 0.38 0.48 0.51 0.40 0.31 0.27 0.24 0.35 0.28 0.17 0.20 0.21 0.11 0.04 0.02 0.02 0.09 0.18 0.25 0.16 0.07 0.05 0.12 0.17 0.12 0.04 0.03 0.04 0.00
0.32 0.21 0.17 0.24 0.27 0.34 0.46 0.60 0.63 0.40 0.25 0.11 0.05 0.07 0.09 0.38 0.62 0.64 0.45 0.36 0.20 0.29 0.45 0.31 0.17 0.27 0.16 0.09 0.04 0.03 0.04 0.05 0.26 0.21 0.12 0.01 0.01 0.00 0.00 0.13 0.24 0.04 0.02 0.02
0.31 0.32 0.25 0.24 0.30 0.36 0.37 0.55 0.57 0.48 0.28 0.04 0.05 0.09 0.12 0.23 0.61 0.84 0.58 0.41 0.37 0.41 0.53 0.28 0.05 0.06 0.03 0.04 0.02 0.04 0.14 0.15 0.18 0.15 0.17 0.00 0.00 0.00 0.00 0.01 0.08 0.06 0.03 0.01
0.35 0.40 0.28 0.21 0.22 0.35 0.34 0.30 0.49 0.42 0.24 0.06 0.03 0.06 0.11 0.12 0.37 0.95 0.79 0.49 0.38 0.46 0.52 0.29 0.06 0.01 0.01 0.01 0.00 0.00 0.05 0.07 0.06 0.05 0.06 0.00 0.00 0.00 0.00 0.00 0.00 0.00 0.00 0.01
0.26 0.32 0.25 0.21 0.22 0.39 0.44 0.25 0.29 0.46 0.31 0.09 0.04 0.04 0.05 0.09 0.23 0.69 0.80 0.48 0.20 0.13 0.27 0.11 0.04 0.02 0.01 0.00 0.01 0.00 0.00 0.00 0.00 0.00 0.00 0.00 0.00 0.00 0.00 0.00 0.00 0.00 0.00 0.00
0.23 0.25 0.25 0.21 0.20 0.39 0.51 0.26 0.27 0.42 0.32 0.12 0.05 0.03 0.01 0.01 0.11 0.29 0.77 0.64 0.35 0.19 0.09 0.16 0.08 0.04 0.02 0.01 0.00 0.00 0.00 0.00 0.00 0.00 0.00 0.00 0.00 0.00 0.00 0.00 0.00 0.00 0.00 0.00
0.19 0.20 0.25 0.19 0.19 0.35 0.46 0.21 0.28 0.33 0.23 0.09 0.04 0.01 0.03 0.03 0.15 0.29 0.50 0.69 0.45 0.38 0.24 0.33 0.26 0.11 0.02 0.02 0.01 0.00 0.00 0.00 0.00 0.00 0.00 0.00 0.00 0.00 0.00 0.00 0.00 0.00 0.00 0.00
0.17 0.20 0.20 0.17 0.19 0.31 0.29 0.15 0.39 0.29 0.29 0.31 0.07 0.03 0.04 0.02 0.14 0.33 0.50 0.77 0.55 0.43 0.39 0.26 0.21 0.18 0.08 0.03 0.00 0.00 0.00 0.00 0.00 0.00 0.00 0.00 0.00 0.00 0.00 0.00 0.00 0.00 0.00 0.00
0.15 0.16 0.15 0.16 0.21 0.41 0.42 0.40 0.41 0.44 0.32 0.38 0.10 0.03 0.03 0.02 0.20 0.42 0.51 0.53 0.49 0.47 0.33 0.21 0.12 0.10 0.11 0.08 0.02 0.00 0.00 0.00 0.00 0.00 0.00 0.00 0.00 0.00 0.00 0.00 0.00 0.00 0.00 0.01
0.18 0.19 0.17 0.17 0.27 0.40 0.42 0.20 0.19 0.34 0.54 0.33 0.06 0.05 0.05 0.03 0.19 0.45 0.54 0.31 0.31 0.39 0.35 0.22 0.12 0.10 0.09 0.04 0.00 0.00 0.00 0.00 0.00 0.00 0.00 0.00 0.00 0.00 0.00 0.00 0.01 0.04 0.05 0.04
0.27 0.27 0.27 0.35 0.41 0.47 0.29 0.06 0.15 0.34 0.59 0.32 0.15 0.02 0.01 0.04 0.24 0.45 0.49 0.41 0.30 0.34 0.27 0.12 0.07 0.05 0.06 0.04 0.00 0.00 0.00 0.00 0.00 0.00 0.00 0.00 0.00 0.00 0.01 0.04 0.09 0.10 0.06 0.02
0.50 0.49 0.47 0.59 0.36 0.21 0.17 0.14 0.25 0.23 0.44 0.50 0.16 0.02 0.01 0.01 0.10 0.30 0.41 0.40 0.34 0.28 0.14 0.13 0.12 0.07 0.02 0.00 0.00 0.00 0.00 0.00 0.00 0.00 0.00 0.00 0.00 0.02 0.07 0.12 0.09 0.03 0.01 0.00
0.70 0.80 0.73 0.55 0.23 0.35 0.48 0.35 0.31 0.53 0.34 0.19 0.15 0.01 0.01 0.01 0.04 0.11 0.21 0.31 0.33 0.26 0.17 0.16 0.15 0.05 0.02 0.00 0.00 0.00 0.00 0.00 0.00 0.00 0.00 0.01 0.04 0.07 0.05 0.02 0.00 0.00 0.00 0.00
1.20 1.10 0.60 0.46 0.55 0.63 0.44 0.34 0.23 0.29 0.24 0.08 0.02 0.02 0.03 0.01 0.02 0.04 0.07 0.17 0.23 0.26 0.19 0.19 0.14 0.05 0.00 0.00 0.00 0.00 0.00 0.00 0.00 0.00 0.00 0.00 0.01 0.00 0.00 0.00 0.00 0.00 0.00 0.00
0.92 0.70 0.80 0.63 0.56 0.45 0.25 0.17 0.08 0.03 0.01 0.00 0.01 0.01 0.01 0.04 0.05 0.01 0.07 0.13 0.14 0.16 0.11 0.13 0.09 0.02 0.00 0.00 0.00 0.00 0.00 0.00 0.00 0.00 0.00 0.00 0.00 0.00 0.00 0.01 0.00 0.00 0.00 0.00
1.14 1.46 1.34 0.63 0.43 0.17 0.05 0.05 0.03 0.00 0.00 0.00 0.00 0.01 0.00 0.05 0.10 0.04 0.07 0.12 0.12 0.04 0.04 0.03 0.00 0.00 0.00 0.00 0.00 0.00 0.00 0.00 0.00 0.00 0.00 0.00 0.00 0.00 0.00 0.02 0.01 0.00 0.00 0.00
2.25 1.97 1.24 0.23 0.22 0.00 0.00 0.00 0.00 0.00 0.00 0.01 0.01 0.01 0.01 0.02 0.06 0.07 0.03 0.04 0.06 0.04 0.01 0.00 0.00 0.00 0.00 0.00 0.00 0.00 0.00 0.00 0.00 0.00 0.00 0.00 0.00 0.00 0.00 0.00 0.01 0.00 0.00 0.00
1.95 1.00 0.40 0.07 0.02 0.00 0.00 0.00 0.00 0.00 0.00 0.00 0.00 0.00 0.00 0.01 0.02 0.02 0.04 0.06 0.04 0.00 0.00 0.00 0.00 0.00 0.00 0.00 0.00 0.00 0.00 0.00 0.00 0.00 0.00 0.00 0.00 0.00 0.00 0.00 0.00 0.00 0.00 0.00
1.53 0.75 0.22 0.04 0.00 0.00 0.00 0.00 0.00 0.00 0.00 0.00 0.00 0.01 0.02 0.01 0.01 0.04 0.02 0.01 0.00 0.00 0.00 0.00 0.00 0.00 0.00 0.00 0.00 0.00 0.00 0.00 0.00 0.00 0.00 0.00 0.00 0.00 0.00 0.00 0.00 0.00 0.00 0.00
1.26 0.39 0.03 0.01 0.00 0.00 0.00 0.00 0.00 0.00 0.00 0.00 0.01 0.02 0.00 0.00 0.02 0.03 0.00 0.00 0.00 0.00 0.00 0.00 0.00 0.00 0.00 0.00 0.00 0.00 0.00 0.00 0.00 0.00 0.00 0.00 0.00 0.00 0.00 0.00 0.00 0.00 0.00 0.00

GFSNW_prec_precacc_060.txt.gz
Total_Precipitation_Accumulation
0.61 0.71 0.96 0.86 0.97 1.24 1.44 1.32 1.89 1.81 1.83 3.56 2.31 1.36 1.14 1.05 1.29 1.52 1.06 0.51 0.28 0.22 0.19 0.22 0.16 0.05 0.01 0.00 0.00 0.03 0.12 0.39 0.56 0.45 0.16 0.17 0.35 0.41 0.52 0.80 0.41 0.45 0.43 0.21
0.51 0.69 0.85 0.83 1.25 1.63 1.97 1.58 1.63 2.48 1.39 1.56 0.91 0.89 1.20 1.31 1.42 1.34 0.95 0.56 0.29 0.19 0.19 0.27 0.09 0.01 0.00 0.00 0.00 0.01 0.06 0.38 0.51 0.54 0.38 0.31 0.58 0.46 0.56 0.60 0.79 0.71 0.56 0.14
0.45 0.58 0.64 0.78 1.09 1.46 1.62 1.66 2.02 3.14 2.64 0.69 0.35 0.73 1.12 1.16 1.13 1.04 0.73 0.58 0.35 0.29 0.20 0.09 0.05 0.01 0.00 0.00 0.00 0.01 0.09 0.22 0.50 0.54 0.49 0.51 0.68 0.49 0.49 0.84 0.97 0.36 0.24 0.04
0.47 0.50 0.39 0.53 0.71 1.06 1.00 1.15 1.02 0.89 0.98 0.42 0.18 0.59 0.84 1.09 1.23 0.82 0.78 0.67 0.30 0.23 0.21 0.08 0.05 0.01 0.00 0.00 0.00 0.01 0.19 0.24 0.54 0.58 0.34 0.35 0.77 0.60 0.53 0.86 0.42 0.36 0.08 0.04
0.42 0.43 0.37 0.41 0.58 1.20 1.11 0.87 0.55 0.22 0.12 0.06 0.12 0.38 0.73 1.13 0.76 0.64 0.61 0.51 0.28 0.27 0.16 0.04 0.01 0.00 0.01 0.00 0.01 0.02 0.03 0.15 0.33 0.46 0.45 0.69 0.55 0.33 0.41 0.31 0.24 0.24 0.05 0.03
0.50 0.45 0.61 0.74 1.05 1.71 1.57 0.79 0.46 0.24 0.16 0.11 0.18 0.18 0.50 0.66 0.62 0.49 0.31 0.37 0.34 0.20 0.11 0.08 0.04 0.06 0.03 0.00 0.00 0.01 0.02 0.05 0.23 0.50 0.50 0.55 0.49 0.39 0.23 0.17 0.13 0.11 0.08 0.02
0.46 0.39 0.48 0.51 0.60 1.01 1.29 0.74 0.62 0.36 0.20 0.07 0.08 0.07 0.29 0.52 0.59 0.58 0.41 0.35 0.29 0.14 0.14 0.13 0.06 0.05 0.05 0.04 0.01 0.01 0.05 0.04 0.18 0.29 0.19 0.35 0.24 0.29 0.42 0.23 0.05 0.03 0.05 0.01
0.38 0.31 0.39 0.59 0.65 0.79 0.70 0.57 0.65 0.34 0.24 0.09 0.09 0.08 0.17 0.39 0.49 0.51 0.40 0.31 0.27 0.24 0.35 0.28 0.17 0.20 0.21 0.11 0.04 0.02 0.02 0.09 0.18 0.25 0.17 0.07 0.05 0.12 0.17 0.12 0.04 0.03 0.04 0.01
0.32 0.21 0.18 0.24 0.27 0.34 0.46 0.61 0.63 0.40 0.25 0.11 0.05 0.07 0.09 0.38 0.62 0.64 0.45 0.36 0.20 0.29 0.45 0.31 0.17 0.27 0.16 0.09 0.04 0.03 0.04 0.05 0.27 0.22 0.12 0.01 0.01 0.00 0.00 0.13 0.24 0.04 0.02 0.02
0.32 0.32 0.25 0.24 0.30 0.36 0.37 0.55 0.57 0.49 0.28 0.04 0.05 0.09 0.12 0.23 0.61 0.84 0.58 0.41 0.37 0.41 0.53 0.28 0.05 0.06 0.03 0.04 0.02 0.05 0.15 0.16 0.20 0.16 0.18 0.00 0.00 0.00 0.00 0.01 0.08 0.06 0.03 0.01
0.36 0.41 0.28 0.21 0.22 0.35 0.34 0.30 0.50 0.44 0.25 0.06 0.03 0.06 0.13 0.12 0.37 0.96 0.79 0.49 0.38 0.46 0.52 0.29 0.06 0.01 0.01 0.01 0.00 0.00 0.05 0.07 0.06 0.05 0.06 0.00 0.00 0.00 0.00 0.00 0.00 0.00 0.00 0.01
0.27 0.33 0.25 0.22 0.23 0.39 0.45 0.25 0.30 0.47 0.32 0.10 0.04 0.04 0.06 0.10 0.24 0.69 0.80 0.48 0.20 0.13 0.27 0.11 0.04 0.02 0.01 0.00 0.01 0.00 0.00 0.00 0.00 0.00 0.00 0.00 0.00 0.00 0.00 0.00 0.00 0.00 0.00 0.00
0.23 0.26 0.25 0.21 0.21 0.40 0.52 0.26 0.27 0.43 0.35 0.12 0.05 0.03 0.02 0.02 0.11 0.30 0.77 0.64 0.35 0.19 0.09 0.16 0.08 0.04 0.02 0.01 0.00 0.00 0.00 0.00 0.00 0.00 0.00 0.00 0.00 0.00 0.00 0.00 0.00 0.00 0.00 0.00
0.20 0.22 0.27 0.20 0.20 0.35 0.47 0.21 0.28 0.33 0.24 0.10 0.04 0.02 0.03 0.03 0.15 0.29 0.50 0.69 0.45 0.38 0.24 0.34 0.26 0.12 0.02 0.02 0.01 0.00 0.00 0.00 0.00 0.00 0.00 0.00 0.00 0.00 0.00 0.00 0.00 0.00 0.00 0.00
0.18 0.23 0.22 0.19 0.21 0.33 0.29 0.15 0.39 0.30 0.29 0.32 0.07 0.03 0.04 0.02 0.14 0.33 0.50 0.77 0.55 0.43 0.40 0.27 0.21 0.18 0.08 0.03 0.00 0.00 0.00 0.00 0.00 0.00 0.00 0.00 0.00 0.00 0.00 0.00 0.00 0.00 0.00 0.00
0.16 0.16 0.17 0.17 0.23 0.43 0.42 0.40 0.41 0.44 0.32 0.39 0.11 0.03 0.03 0.02 0.20 0.42 0.51 0.53 0.49 0.47 0.34 0.22 0.13 0.11 0.13 0.11 0.03 0.00 0.00 0.00 0.00 0.00 0.00 0.00 0.00 0.00 0.00 0.00 0.00 0.00 0.00 0.01
0.18 0.19 0.19 0.19 0.31 0.40 0.42 0.22 0.23 0.36 0.54 0.33 0.06 0.05 0.05 0.03 0.19 0.45 0.54 0.33 0.36 0.46 0.43 0.24 0.12 0.12 0.16 0.06 0.01 0.00 0.00 0.00 0.00 0.00 0.00 0.00 0.00 0.00 0.00 0.00 0.01 0.04 0.05 0.04
0.27 0.28 0.30 0.38 0.43 0.47 0.29 0.06 0.16 0.36 0.61 0.33 0.16 0.02 0.01 0.04 0.26 0.45 0.49 0.42 0.32 0.38 0.33 0.16 0.08 0.06 0.10 0.07 0.00 0.00 0.00 0.00 0.00 0.00 0.00 0.00 0.00 0.00 0.01 0.04 0.09 0.10 0.06 0.02
0.51 0.52 0.50 0.59 0.36 0.21 0.18 0.15 0.25 0.23 0.47 0.53 0.16 0.02 0.01 0.01 0.11 0.31 0.42 0.43 0.41 0.31 0.16 0.16 0.18 0.09 0.04 0.01 0.00 0.00 0.00 0.00 0.00 0.00 0.00 0.00 0.00 0.02 0.07 0.12 0.09 0.03 0.01 0.00
0.70 0.81 0.73 0.55 0.24 0.38 0.52 0.40 0.34 0.54 0.36 0.20 0.16 0.01 0.01 0.01 0.05 0.13 0.23 0.36 0.40 0.30 0.21 0.20 0.20 0.09 0.06 0.02 0.00 0.00 0.00 0.00 0.00 0.00 0.00 0.01 0.04 0.07 0.05 0.02 0.00 0.00 0.00 0.00
1.21 1.15 0.63 0.49 0.60 0.71 0.51 0.41 0.27 0.32 0.27 0.09 0.02 0.02 0.03 0.01 0.02 0.05 0.12 0.23 0.31 0.33 0.28 0.33 0.29 0.20 0.04 0.00 0.00 0.00 0.00 0.00 0.00 0.00 0.00 0.00 0.01 0.00 0.00 0.00 0.00 0.00 0.00 0.00
0.92 0.72 0.84 0.70 0.62 0.51 0.29 0.22 0.11 0.05 0.02 0.01 0.01 0.01 0.01 0.04 0.05 0.02 0.11 0.21 0.22 0.25 0.21 0.27 0.20 0.06 0.00 0.00 0.00 0.00 0.00 0.00 0.00 0.00 0.00 0.00 0.00 0.00 0.00 0.01 0.00 0.00 0.00 0.00
1.15 1.50 1.38 0.67 0.48 0.23 0.07 0.06 0.03 0.00 0.00 0.00 0.00 0.01 0.00 0.05 0.10 0.04 0.09 0.19 0.20 0.11 0.11 0.06 0.01 0.00 0.00 0.00 0.00 0.01 0.02 0.00 0.00 0.00 0.00 0.00 0.01 0.02 0.02 0.03 0.01 0.01 0.01 0.02
2.28 2.02 1.30 0.26 0.25 0.01 0.00 0.00 0.00 0.00 0.00 0.01 0.01 0.01 0.01 0.02 0.06 0.07 0.04 0.06 0.13 0.06 0.02 0.00 0.00 0.00 0.00 0.00 0.00 0.00 0.04 0.02 0.00 0.00 0.00 0.00 0.00 0.01 0.01 0.03 0.03 0.01 0.01 0.01
1.96 1.05 0.42 0.07 0.03 0.00 0.00 0.00 0.00 0.00 0.00 0.00 0.00 0.00 0.00 0.01 0.02 0.02 0.05 0.07 0.07 0.00 0.00 0.00 0.00 0.00 0.00 0.00 0.00 0.00 0.00 0.02 0.00 0.00 0.00 0.00 0.00 0.00 0.00 0.00 0.01 0.02 0.00 0.00
1.53 0.77 0.23 0.04 0.01 0.01 0.00 0.00 0.00 0.00 0.00 0.00 0.00 0.01 0.02 0.01 0.01 0.04 0.02 0.01 0.01 0.00 0.00 0.00 0.00 0.00 0.00 0.00 0.00 0.00 0.00 0.00 0.00 0.00 0.00 0.00 0.00 0.00 0.00 0.00 0.00 0.00 0.00 0.00
1.26 0.39 0.03 0.01 0.00 0.00 0.00 0.00 0.00 0.00 0.00 0.00 0.01 0.02 0.00 0.00 0.02 0.03 0.00 0.00 0.00 0.00 0.00 0.00 0.00 0.00 0.00 0.00 0.00 0.00 0.00 0.00 0.00 0.00 0.00 0.00 0.00 0.00 0.00 0.00 0.00 0.00 0.00 0.00

GFSNW_prec_precacc_063.txt.gz
Total_Precipitation_Accumulation
0.62 0.71 0.97 0.86 0.97 1.25 1.44 1.32 1.89 1.81 1.83 3.56 2.31 1.36 1.14 1.08 1.35 1.54 1.07 0.51 0.28 0.22 0.19 0.22 0.16 0.05 0.01 0.00 0.00 0.03 0.12 0.39 0.56 0.45 0.16 0.17 0.35 0.41 0.52 0.80 0.41 0.45 0.43 0.21
0.52 0.70 0.85 0.83 1.25 1.64 1.98 1.58 1.63 2.48 1.39 1.56 0.91 0.89 1.24 1.37 1.47 1.35 0.96 0.56 0.29 0.19 0.19 0.27 0.09 0.01 0.00 0.00 0.00 0.01 0.06 0.38 0.51 0.54 0.38 0.31 0.58 0.46 0.56 0.60 0.79 0.71 0.56 0.14
0.45 0.58 0.65 0.78 1.09 1.46 1.62 1.66 2.02 3.14 2.64 0.69 0.35 0.75 1.17 1.22 1.15 1.04 0.73 0.58 0.35 0.29 0.20 0.09 0.05 0.01 0.00 0.00 0.00 0.01 0.09 0.22 0.50 0.54 0.49 0.51 0.68 0.49 0.49 0.84 0.97 0.36 0.24 0.04
0.47 0.50 0.39 0.53 0.71 1.06 1.00 1.15 1.02 0.89 0.98 0.42 0.18 0.61 0.97 1.19 1.26 0.83 0.78 0.68 0.30 0.23 0.21 0.08 0.05 0.01 0.00 0.00 0.00 0.01 0.19 0.24 0.54 0.58 0.34 0.35 0.77 0.60 0.53 0.86 0.42 0.36 0.08 0.04
0.42 0.43 0.37 0.41 0.58 1.20 1.11 0.87 0.55 0.22 0.12 0.06 0.12 0.41 0.84 1.18 0.78 0.64 0.61 0.51 0.28 0.27 0.16 0.04 0.01 0.00 0.01 0.00 0.01 0.02 0.03 0.15 0.33 0.46 0.45 0.69 0.55 0.33 0.41 0.31 0.24 0.24 0.05 0.03
0.50 0.45 0.61 0.74 1.05 1.71 1.57 0.79 0.46 0.24 0.16 0.11 0.18 0.19 0.51 0.68 0.65 0.54 0.31 0.37 0.34 0.20 0.11 0.08 0.04 0.06 0.03 0.00 0.00 0.01 0.02 0.05 0.23 0.50 0.50 0.55 0.49 0.39 0.23 0.17 0.13 0.11 0.08 0.02
0.46 0.39 0.48 0.51 0.60 1.01 1.29 0.75 0.62 0.36 0.20 0.07 0.08 0.07 0.31 0.54 0.60 0.61 0.42 0.35 0.29 0.14 0.14 0.13 0.06 0.05 0.05 0.04 0.01 0.01 0.05 0.04 0.18 0.29 0.19 0.35 0.24 0.29 0.42 0.23 0.05 0.03 0.05 0.01
0.38 0.31 0.39 0.59 0.65 0.79 0.70 0.57 0.65 0.35 0.25 0.09 0.09 0.08 0.19 0.40 0.49 0.51 0.40 0.31 0.27 0.24 0.35 0.28 0.17 0.20 0.21 0.11 0.04 0.02 0.02 0.09 0.18 0.25 0.17 0.07 0.05 0.12 0.17 0.12 0.04 0.03 0.04 0.01
0.32 0.21 0.18 0.24 0.27 0.34 0.46 0.61 0.63 0.40 0.25 0.11 0.05 0.07 0.09 0.38 0.62 0.64 0.45 0.36 0.20 0.29 0.45 0.31 0.17 0.27 0.16 0.09 0.04 0.03 0.04 0.05 0.27 0.22 0.13 0.01 0.01 0.00 0.00 0.13 0.24 0.04 0.02 0.02
0.32 0.32 0.25 0.24 0.30 0.36 0.37 0.55 0.57 0.50 0.28 0.04 0.05 0.09 0.12 0.23 0.61 0.84 0.58 0.41 0.37 0.41 0.53 0.28 0.05 0.06 0.03 0.04 0.02 0.05 0.15 0.16 0.21 0.17 0.19 0.00 0.00 0.00 0.00 0.02 0.09 0.06 0.03 0.01
0.36 0.41 0.28 0.21 0.22 0.36 0.34 0.30 0.50 0.45 0.25 0.06 0.03 0.06 0.13 0.12 0.37 0.96 0.79 0.49 0.38 0.46 0.52 0.29 0.06 0.01 0.01 0.01 0.00 0.00 0.05 0.07 0.06 0.06 0.07 0.00 0.00 0.00 0.00 0.00 0.00 0.00 0.00 0.01
0.27 0.33 0.26 0.22 0.23 0.40 0.46 0.25 0.31 0.47 0.33 0.10 0.04 0.04 0.06 0.10 0.25 0.70 0.80 0.48 0.20 0.13 0.27 0.11 0.04 0.02 0.01 0.00 0.01 0.00 0.00 0.00 0.00 0.00 0.00 0.00 0.00 0.00 0.00 0.00 0.00 0.00 0.00 0.00
0.24 0.27 0.26 0.22 0.21 0.40 0.52 0.26 0.27 0.43 0.36 0.13 0.05 0.03 0.02 0.02 0.11 0.30 0.78 0.64 0.35 0.19 0.09 0.16 0.08 0.04 0.02 0.01 0.00 0.00 0.00 0.00 0.00 0.00 0.00 0.00 0.00 0.00 0.00 0.00 0.00 0.00 0.00 0.00
0.21 0.22 0.28 0.23 0.22 0.36 0.47 0.22 0.28 0.34 0.26 0.12 0.04 0.02 0.04 0.04 0.15 0.29 0.50 0.69 0.45 0.38 0.24 0.34 0.26 0.12 0.02 0.02 0.01 0.00 0.00 0.00 0.00 0.00 0.00 0.00 0.00 0.00 0.00 0.00 0.00 0.00 0.00 0.00
0.19 0.24 0.23 0.20 0.23 0.35 0.30 0.15 0.39 0.30 0.31 0.34 0.07 0.03 0.04 0.02 0.14 0.33 0.50 0.77 0.55 0.43 0.40 0.27 0.22 0.18 0.08 0.03 0.00 0.00 0.00 0.00 0.00 0.00 0.00 0.00 0.00 0.00 0.00 0.00 0.00 0.00 0.00 0.00
0.16 0.16 0.17 0.20 0.27 0.48 0.42 0.40 0.41 0.44 0.33 0.41 0.12 0.03 0.03 0.02 0.20 0.42 0.51 0.53 0.49 0.48 0.36 0.23 0.13 0.11 0.13 0.11 0.03 0.00 0.00 0.00 0.00 0.00 0.00 0.00 0.00 0.00 0.00 0.00 0.00 0.00 0.00 0.01
0.18 0.19 0.20 0.22 0.38 0.42 0.42 0.24 0.30 0.37 0.55 0.35 0.07 0.05 0.05 0.03 0.19 0.45 0.54 0.33 0.39 0.52 0.51 0.30 0.14 0.13 0.18 0.09 0.01 0.00 0.00 0.00 0.00 0.00 0.00 0.00 0.00 0.00 0.00 0.00 0.01 0.04 0.05 0.04
0.27 0.31 0.35 0.41 0.47 0.48 0.29 0.07 0.17 0.40 0.63 0.35 0.16 0.02 0.01 0.04 0.26 0.46 0.49 0.42 0.33 0.42 0.38 0.21 0.10 0.08 0.14 0.11 0.01 0.00 0.00 0.00 0.00 0.00 0.00 0.00 0.00 0.00 0.01 0.04 0.09 0.10 0.06 0.02
0.51 0.54 0.54 0.60 0.36 0.21 0.21 0.23 0.31 0.26 0.55 0.56 0.17 0.02 0.01 0.01 0.11 0.31 0.43 0.44 0.44 0.35 0.19 0.17 0.27 0.14 0.08 0.01 0.00 0.00 0.00 0.00 0.00 0.00 0.00 0.00 0.00 0.02 0.07 0.12 0.09 0.03 0.01 0.00
0.70 0.81 0.74 0.55 0.24 0.44 0.66 0.55 0.40 0.58 0.39 0.22 0.16 0.02 0.01 0.02 0.05 0.15 0.26 0.40 0.46 0.34 0.23 0.22 0.23 0.17 0.07 0.02 0.00 0.00 0.00 0.00 0.00 0.00 0.00 0.01 0.04 0.07 0.05 0.02 0.00 0.00 0.00 0.00
1.22 1.20 0.69 0.53 0.65 0.85 0.66 0.51 0.32 0.34 0.27 0.09 0.02 0.02 0.03 0.01 0.03 0.08 0.17 0.27 0.37 0.39 0.32 0.41 0.35 0.26 0.07 0.00 0.00 0.00 0.00 0.00 0.00 0.00 0.00 0.00 0.01 0.00 0.00 0.00 0.00 0.00 0.00 0.00
0.92 0.72 0.87 0.77 0.70 0.61 0.37 0.29 0.14 0.07 0.02 0.01 0.01 0.01 0.01 0.04 0.05 0.04 0.14 0.26 0.29 0.31 0.27 0.36 0.29 0.10 0.00 0.00 0.00 0.00 0.00 0.00 0.00 0.00 0.00 0.00 0.00 0.00 0.00 0.01 0.00 0.00 0.00 0.00
1.15 1.52 1.44 0.73 0.52 0.28 0.09 0.07 0.04 0.00 0.00 0.00 0.00 0.01 0.00 0.05 0.11 0.07 0.13 0.26 0.25 0.16 0.16 0.10 0.03 0.00 0.00 0.00 0.00 0.01 0.04 0.00 0.00 0.00 0.00 0.00 0.01 0.02 0.02 0.03 0.01 0.01 0.01 0.02
2.29 2.05 1.33 0.29 0.29 0.01 0.00 0.00 0.00 0.00 0.00 0.01 0.01 0.01 0.01 0.03 0.06 0.08 0.06 0.09 0.18 0.10 0.04 0.02 0.01 0.00 0.00 0.00 0.00 0.00 0.07 0.12 0.08 0.03 0.00 0.00 0.01 0.03 0.03 0.04 0.04 0.01 0.01 0.02
1.97 1.08 0.44 0.10 0.03 0.00 0.00 0.00 0.00 0.00 0.00 0.00 0.00 0.00 0.00 0.01 0.03 0.02 0.05 0.07 0.08 0.01 0.00 0.00 0.00 0.00 0.00 0.00 0.00 0.00 0.01 0.08 0.12 0.09 0.02 0.02 0.01 0.02 0.02 0.01 0.02 0.04 0.00 0.00
1.53 0.78 0.24 0.05 0.01 0.01 0.00 0.00 0.00 0.00 0.00 0.00 0.00 0.01 0.02 0.01 0.01 0.04 0.02 0.01 0.01 0.00 0.00 0.00 0.00 0.00 0.00 0.00 0.00 0.00 0.00 0.00 0.00 0.02 0.01 0.00 0.00 0.00 0.00 0.01 0.01 0.03 0.02 0.01
1.27 0.39 0.03 0.01 0.00 0.00 0.00 0.00 0.00 0.00 0.00 0.00 0.01 0.02 0.01 0.00 0.03 0.03 0.00 0.00 0.00 0.00 0.00 0.00 0.00 0.00 0.00 0.00 0.00 0.00 0.00 0.00 0.00 0.00 0.00 0.00 0.00 0.00 0.00 0.00 0.00 0.00 0.01 0.03

GFSNW_prec_precacc_066.txt.gz
Total_Precipitation_Accumulation
0.62 0.72 0.97 0.86 0.97 1.25 1.44 1.32 1.89 1.81 1.83 3.56 2.31 1.37 1.16 1.12 1.40 1.55 1.07 0.51 0.28 0.22 0.19 0.22 0.16 0.05 0.01 0.00 0.00 0.03 0.12 0.39 0.57 0.45 0.16 0.17 0.35 0.41 0.52 0.80 0.41 0.45 0.43 0.21
0.52 0.70 0.85 0.83 1.25 1.65 1.98 1.58 1.63 2.48 1.39 1.56 0.92 0.90 1.24 1.37 1.47 1.35 0.96 0.56 0.29 0.19 0.19 0.27 0.09 0.01 0.00 0.00 0.00 0.01 0.06 0.38 0.51 0.54 0.38 0.31 0.58 0.46 0.56 0.60 0.79 0.71 0.56 0.14
0.45 0.58 0.65 0.78 1.09 1.46 1.62 1.66 2.02 3.14 2.64 0.69 0.35 0.75 1.17 1.22 1.15 1.04 0.73 0.58 0.35 0.29 0.20 0.09 0.05 0.01 0.00 0.00 0.00 0.01 0.09 0.22 0.50 0.54 0.49 0.51 0.68 0.49 0.49 0.84 0.97 0.36 0.24 0.04
0.48 0.50 0.39 0.53 0.71 1.06 1.00 1.15 1.02 0.89 0.99 0.42 0.20 0.65 1.01 1.21 1.27 0.83 0.78 0.68 0.30 0.23 0.21 0.08 0.05 0.01 0.00 0.00 0.00 0.01 0.19 0.24 0.54 0.58 0.34 0.35 0.77 0.60 0.53 0.86 0.42 0.36 0.08 0.04
0.42 0.43 0.37 0.41 0.58 1.20 1.11 0.88 0.55 0.22 0.12 0.06 0.12 0.44 0.87 1.19 0.78 0.64 0.61 0.51 0.28 0.27 0.16 0.04 0.01 0.00 0.01 0.00 0.01 0.02 0.03 0.15 0.33 0.46 0.45 0.69 0.55 0.33 0.41 0.31 0.24 0.24 0.05 0.03
0.50 0.45 0.61 0.74 1.05 1.71 1.57 0.79 0.46 0.24 0.16 0.11 0.18 0.20 0.54 0.70 0.66 0.55 0.31 0.37 0.34 0.20 0.11 0.08 0.04 0.06 0.03 0.00 0.00 0.01 0.02 0.05 0.23 0.50 0.50 0.55 0.49 0.39 0.23 0.17 0.13 0.11 0.08 0.02
0.47 0.39 0.48 0.51 0.60 1.02 1.29 0.75 0.63 0.36 0.21 0.07 0.08 0.08 0.33 0.56 0.61 0.62 0.43 0.35 0.29 0.14 0.14 0.13 0.06 0.05 0.05 0.04 0.01 0.01 0.05 0.04 0.18 0.29 0.19 0.35 0.24 0.29 0.42 0.23 0.05 0.03 0.05 0.01
0.38 0.31 0.39 0.59 0.65 0.79 0.70 0.57 0.66 0.36 0.25 0.09 0.09 0.08 0.20 0.40 0.49 0.51 0.41 0.31 0.27 0.24 0.35 0.28 0.17 0.20 0.21 0.11 0.04 0.02 0.02 0.09 0.18 0.25 0.17 0.07 0.05 0.12 0.17 0.12 0.04 0.03 0.04 0.01
0.32 0.22 0.18 0.25 0.27 0.34 0.46 0.61 0.64 0.41 0.26 0.11 0.06 0.07 0.09 0.38 0.62 0.64 0.45 0.36 0.20 0.29 0.45 0.31 0.17 0.27 0.16 0.09 0.04 0.03 0.04 0.05 0.27 0.22 0.13 0.01 0.01 0.00 0.00 0.13 0.24 0.04 0.02 0.02
0.32 0.32 0.25 0.25 0.30 0.36 0.37 0.55 0.57 0.50 0.29 0.04 0.05 0.09 0.12 0.23 0.61 0.84 0.58 0.41 0.37 0.41 0.53 0.28 0.05 0.06 0.03 0.04 0.02 0.05 0.15 0.16 0.21 0.17 0.19 0.00 0.00 0.00 0.00 0.02 0.09 0.06 0.03 0.01
0.36 0.41 0.28 0.22 0.23 0.36 0.34 0.30 0.50 0.46 0.26 0.06 0.03 0.06 0.13 0.12 0.37 0.96 0.79 0.49 0.38 0.46 0.52 0.29 0.06 0.01 0.01 0.01 0.00 0.00 0.05 0.07 0.07 0.06 0.07 0.00 0.00 0.00 0.00 0.00 0.00 0.00 0.00 0.01
0.27 0.34 0.26 0.23 0.24 0.40 0.46 0.25 0.31 0.48 0.33 0.10 0.04 0.04 0.06 0.10 0.26 0.70 0.80 0.48 0.20 0.13 0.27 0.11 0.04 0.02 0.01 0.00 0.01 0.00 0.00 0.00 0.00 0.00 0.00 0.00 0.00 0.00 0.00 0.00 0.00 0.00 0.00 0.00
0.24 0.27 0.26 0.22 0.22 0.41 0.53 0.26 0.27 0.43 0.36 0.13 0.05 0.03 0.02 0.02 0.12 0.30 0.78 0.64 0.35 0.19 0.09 0.16 0.08 0.04 0.02 0.01 0.00 0.00 0.00 0.00 0.00 0.00 0.00 0.00 0.00 0.00 0.00 0.00 0.00 0.00 0.00 0.00
0.21 0.23 0.29 0.23 0.23 0.37 0.50 0.22 0.28 0.34 0.27 0.13 0.04 0.02 0.04 0.04 0.15 0.29 0.50 0.69 0.45 0.38 0.24 0.34 0.26 0.12 0.02 0.02 0.01 0.00 0.00 0.00 0.00 0.00 0.00 0.00 0.00 0.00 0.00 0.00 0.00 0.00 0.00 0.00
0.20 0.25 0.24 0.20 0.24 0.38 0.33 0.16 0.39 0.30 0.32 0.36 0.08 0.03 0.04 0.02 0.15 0.33 0.50 0.77 0.55 0.43 0.41 0.27 0.22 0.18 0.08 0.03 0.00 0.00 0.00 0.00 0.00 0.00 0.00 0.00 0.00 0.00 0.00 0.00 0.00 0.00 0.00 0.00
0.17 0.17 0.17 0.20 0.29 0.54 0.44 0.40 0.41 0.44 0.33 0.43 0.14 0.03 0.03 0.02 0.20 0.42 0.51 0.53 0.49 0.48 0.37 0.24 0.13 0.11 0.13 0.11 0.03 0.00 0.00 0.00 0.00 0.00 0.00 0.00 0.00 0.00 0.00 0.00 0.00 0.00 0.00 0.01
0.19 0.20 0.20 0.23 0.41 0.49 0.43 0.25 0.36 0.37 0.55 0.37 0.09 0.05 0.05 0.03 0.20 0.45 0.54 0.33 0.40 0.54 0.55 0.32 0.15 0.13 0.21 0.12 0.02 0.00 0.00 0.00 0.00 0.00 0.00 0.00 0.00 0.00 0.00 0.00 0.01 0.04 0.05 0.04
0.27 0.32 0.43 0.46 0.53 0.51 0.29 0.07 0.22 0.45 0.65 0.40 0.19 0.03 0.01 0.04 0.26 0.47 0.49 0.42 0.33 0.43 0.41 0.24 0.11 0.09 0.18 0.16 0.01 0.00 0.00 0.00 0.00 0.00 0.00 0.00 0.00 0.00 0.01 0.04 0.09 0.10 0.06 0.02
0.51 0.54 0.56 0.61 0.36 0.21 0.21 0.27 0.41 0.34 0.64 0.62 0.18 0.02 0.01 0.01 0.12 0.32 0.44 0.44 0.44 0.36 0.21 0.18 0.30 0.20 0.11 0.02 0.00 0.00 0.00 0.00 0.00 0.00 0.00 0.00 0.00 0.02 0.07 0.12 0.09 0.03 0.01 0.00
0.71 0.82 0.75 0.56 0.25 0.46 0.78 0.74 0.55 0.70 0.47 0.24 0.16 0.02 0.02 0.02 0.06 0.16 0.28 0.42 0.47 0.36 0.24 0.25 0.27 0.19 0.08 0.02 0.00 0.00 0.00 0.00 0.00 0.00 0.00 0.01 0.04 0.07 0.05 0.02 0.00 0.00 0.00 0.00
1.24 1.26 0.81 0.63 0.73 0.96 0.84 0.66 0.41 0.38 0.29 0.09 0.02 0.02 0.03 0.02 0.05 0.11 0.23 0.30 0.41 0.41 0.34 0.48 0.38 0.27 0.07 0.00 0.00 0.00 0.00 0.00 0.00 0.00 0.00 0.00 0.01 0.00 0.00 0.00 0.00 0.00 0.00 0.00
0.92 0.73 0.92 0.83 0.77 0.74 0.50 0.40 0.19 0.10 0.02 0.01 0.01 0.02 0.01 0.05 0.07 0.08 0.19 0.31 0.33 0.32 0.29 0.41 0.32 0.11 0.00 0.00 0.00 0.00 0.00 0.00 0.00 0.00 0.00 0.00 0.00 0.00 0.00 0.01 0.00 0.00 0.00 0.00
1.15 1.54 1.50 0.80 0.59 0.34 0.13 0.11 0.07 0.02 0.00 0.00 0.01 0.02 0.01 0.06 0.15 0.14 0.18 0.29 0.28 0.19 0.18 0.12 0.04 0.01 0.00 0.00 0.00 0.01 0.04 0.01 0.00 0.00 0.00 0.00 0.01 0.02 0.02 0.03 0.01 0.01 0.01 0.02
2.30 2.09 1.39 0.33 0.34 0.02 0.01 0.00 0.01 0.00 0.00 0.01 0.01 0.01 0.01 0.03 0.09 0.10 0.09 0.13 0.20 0.12 0.05 0.03 0.03 0.01 0.00 0.00 0.00 0.00 0.08 0.16 0.15 0.09 0.02 0.01 0.01 0.03 0.04 0.04 0.04 0.01 0.01 0.03
1.98 1.11 0.47 0.12 0.04 0.00 0.00 0.01 0.01 0.00 0.00 0.00 0.00 0.00 0.00 0.01 0.04 0.04 0.06 0.09 0.08 0.01 0.00 0.00 0.00 0.00 0.00 0.01 0.00 0.00 0.01 0.10 0.22 0.30 0.23 0.15 0.07 0.06 0.04 0.01 0.02 0.04 0.01 0.01
1.54 0.79 0.25 0.05 0.01 0.01 0.01 0.01 0.01 0.01 0.01 0.00 0.00 0.01 0.02 0.01 0.01 0.05 0.02 0.02 0.01 0.00 0.00 0.00 0.00 0.00 0.00 0.00 0.00 0.00 0.00 0.00 0.01 0.02 0.04 0.05 0.05 0.07 0.06 0.06 0.03 0.05 0.04 0.01
1.27 0.39 0.04 0.02 0.01 0.01 0.01 0.01 0.00 0.00 0.01 0.00 0.01 0.02 0.01 0.01 0.03 0.03 0.00 0.00 0.00 0.00 0.00 0.00 0.00 0.00 0.00 0.00 0.00 0.00 0.00 0.00 0.00 0.00 0.00 0.00 0.00 0.00 0.01 0.01 0.02 0.02 0.04 0.07

GFSNW_prec_precacc_069.txt.gz
Total_Precipitation_Accumulation
0.62 0.72 0.97 0.86 0.97 1.26 1.44 1.32 1.89 1.81 1.83 3.56 2.31 1.38 1.18 1.13 1.40 1.55 1.07 0.51 0.28 0.22 0.19 0.22 0.16 0.05 0.01 0.00 0.00 0.03 0.12 0.39 0.57 0.45 0.16 0.17 0.35 0.41 0.52 0.80 0.41 0.45 0.43 0.21
0.52 0.70 0.85 0.83 1.25 1.65 1.99 1.58 1.63 2.48 1.39 1.57 0.93 0.90 1.24 1.37 1.47 1.35 0.96 0.56 0.29 0.19 0.19 0.27 0.09 0.01 0.00 0.00 0.00 0.01 0.06 0.38 0.51 0.54 0.38 0.31 0.58 0.46 0.56 0.60 0.79 0.71 0.56 0.14
0.45 0.58 0.65 0.78 1.09 1.46 1.62 1.66 2.02 3.14 2.64 0.70 0.36 0.75 1.17 1.22 1.15 1.04 0.73 0.58 0.35 0.29 0.20 0.09 0.05 0.01 0.00 0.00 0.00 0.01 0.09 0.22 0.50 0.54 0.49 0.51 0.68 0.49 0.49 0.84 0.97 0.36 0.24 0.04
0.48 0.50 0.39 0.53 0.71 1.06 1.00 1.15 1.02 0.90 0.99 0.42 0.22 0.70 1.01 1.21 1.27 0.83 0.78 0.68 0.30 0.23 0.21 0.08 0.05 0.01 0.00 0.00 0.00 0.01 0.19 0.24 0.54 0.58 0.34 0.35 0.77 0.60 0.53 0.86 0.42 0.36 0.08 0.04
0.43 0.43 0.37 0.41 0.58 1.20 1.11 0.88 0.56 0.22 0.12 0.06 0.12 0.47 0.90 1.20 0.78 0.64 0.61 0.51 0.28 0.27 0.16 0.04 0.01 0.00 0.01 0.00 0.01 0.02 0.03 0.15 0.33 0.46 0.45 0.69 0.55 0.33 0.41 0.31 0.24 0.24 0.05 0.03
0.51 0.45 0.61 0.74 1.05 1.71 1.57 0.79 0.46 0.25 0.16 0.11 0.20 0.26 0.57 0.72 0.66 0.56 0.31 0.37 0.34 0.20 0.11 0.08 0.04 0.06 0.03 0.00 0.00 0.01 0.02 0.05 0.23 0.50 0.50 0.55 0.49 0.39 0.23 0.17 0.13 0.11 0.08 0.02
0.47 0.39 0.48 0.51 0.60 1.02 1.29 0.75 0.63 0.37 0.21 0.07 0.10 0.14 0.35 0.57 0.62 0.62 0.43 0.35 0.29 0.14 0.14 0.13 0.06 0.05 0.05 0.04 0.01 0.01 0.05 0.04 0.18 0.29 0.19 0.35 0.24 0.29 0.42 0.23 0.05 0.03 0.05 0.01
0.39 0.31 0.40 0.59 0.65 0.79 0.70 0.57 0.66 0.36 0.25 0.09 0.09 0.09 0.20 0.40 0.49 0.51 0.41 0.31 0.27 0.24 0.35 0.28 0.17 0.20 0.21 0.11 0.04 0.02 0.02 0.09 0.18 0.25 0.17 0.07 0.05 0.12 0.17 0.12 0.04 0.03 0.04 0.01
0.32 0.22 0.19 0.25 0.27 0.34 0.46 0.61 0.64 0.41 0.27 0.11 0.06 0.07 0.09 0.38 0.62 0.64 0.45 0.36 0.20 0.29 0.45 0.31 0.17 0.27 0.16 0.09 0.04 0.03 0.04 0.05 0.27 0.22 0.13 0.01 0.01 0.00 0.00 0.13 0.24 0.04 0.02 0.02
0.32 0.33 0.26 0.25 0.30 0.36 0.37 0.55 0.57 0.50 0.30 0.04 0.05 0.09 0.12 0.23 0.61 0.84 0.58 0.41 0.37 0.41 0.53 0.28 0.05 0.06 0.03 0.04 0.02 0.05 0.15 0.16 0.21 0.17 0.19 0.00 0.00 0.00 0.00 0.02 0.09 0.06 0.03 0.01
0.37 0.42 0.29 0.22 0.24 0.37 0.34 0.30 0.50 0.46 0.27 0.06 0.03 0.06 0.13 0.12 0.37 0.96 0.79 0.49 0.38 0.46 0.52 0.29 0.06 0.01 0.01 0.01 0.00 0.00 0.05 0.07 0.07 0.06 0.07 0.00 0.00 0.00 0.00 0.00 0.00 0.00 0.00 0.01
0.27 0.34 0.26 0.23 0.25 0.42 0.47 0.25 0.31 0.48 0.33 0.10 0.04 0.04 0.06 0.10 0.26 0.70 0.80 0.48 0.20 0.13 0.27 0.11 0.04 0.02 0.01 0.00 0.01 0.00 0.00 0.00 0.00 0.00 0.00 0.00 0.00 0.00 0.00 0.00 0.00 0.00 0.00 0.00
0.24 0.27 0.27 0.23 0.22 0.42 0.56 0.26 0.27 0.43 0.36 0.13 0.05 0.03 0.02 0.02 0.12 0.30 0.78 0.64 0.35 0.19 0.09 0.16 0.08 0.04 0.02 0.01 0.00 0.00 0.00 0.00 0.00 0.00 0.00 0.00 0.00 0.00 0.00 0.00 0.00 0.00 0.00 0.00
0.21 0.23 0.29 0.24 0.24 0.38 0.51 0.22 0.28 0.34 0.28 0.13 0.04 0.02 0.04 0.04 0.15 0.29 0.50 0.69 0.45 0.38 0.24 0.34 0.26 0.12 0.02 0.02 0.01 0.00 0.00 0.00 0.00 0.00 0.00 0.00 0.00 0.00 0.00 0.00 0.00 0.00 0.00 0.00
0.20 0.25 0.24 0.20 0.24 0.40 0.34 0.16 0.39 0.30 0.32 0.38 0.08 0.03 0.04 0.02 0.16 0.33 0.51 0.77 0.55 0.43 0.41 0.28 0.22 0.18 0.08 0.03 0.00 0.00 0.00 0.00 0.00 0.00 0.00 0.00 0.00 0.00 0.00 0.00 0.00 0.00 0.00 0.00
0.17 0.17 0.18 0.21 0.30 0.58 0.47 0.41 0.41 0.44 0.33 0.45 0.15 0.03 0.03 0.02 0.20 0.43 0.52 0.54 0.49 0.48 0.39 0.25 0.14 0.11 0.13 0.11 0.03 0.00 0.00 0.00 0.00 0.00 0.00 0.00 0.00 0.00 0.00 0.00 0.00 0.00 0.00 0.01
0.19 0.20 0.20 0.24 0.42 0.53 0.48 0.27 0.39 0.38 0.55 0.40 0.13 0.07 0.05 0.04 0.21 0.46 0.55 0.34 0.40 0.55 0.58 0.34 0.15 0.13 0.22 0.14 0.02 0.00 0.00 0.00 0.00 0.00 0.00 0.00 0.00 0.00 0.00 0.00 0.01 0.04 0.05 0.04
0.27 0.32 0.44 0.48 0.57 0.56 0.32 0.09 0.25 0.50 0.71 0.48 0.25 0.06 0.02 0.06 0.28 0.48 0.51 0.42 0.33 0.44 0.42 0.25 0.13 0.12 0.23 0.19 0.01 0.00 0.00 0.00 0.00 0.00 0.00 0.00 0.00 0.00 0.01 0.04 0.09 0.10 0.06 0.02
0.51 0.54 0.56 0.62 0.37 0.23 0.22 0.28 0.47 0.46 0.77 0.73 0.23 0.05 0.02 0.03 0.13 0.33 0.44 0.45 0.45 0.36 0.22 0.19 0.31 0.22 0.13 0.02 0.00 0.00 0.00 0.00 0.00 0.00 0.00 0.00 0.00 0.02 0.07 0.12 0.09 0.03 0.01 0.00
0.71 0.82 0.76 0.59 0.26 0.46 0.82 0.85 0.75 0.85 0.55 0.28 0.18 0.02 0.03 0.03 0.08 0.17 0.29 0.43 0.48 0.37 0.24 0.26 0.29 0.20 0.08 0.02 0.00 0.00 0.00 0.00 0.00 0.00 0.00 0.01 0.04 0.07 0.05 0.02 0.00 0.00 0.00 0.00
1.24 1.27 0.87 0.72 0.83 1.06 1.00 0.81 0.53 0.45 0.32 0.10 0.02 0.02 0.04 0.03 0.09 0.12 0.25 0.33 0.44 0.42 0.34 0.52 0.40 0.27 0.07 0.00 0.00 0.00 0.00 0.00 0.00 0.00 0.00 0.00 0.01 0.00 0.00 0.00 0.00 0.00 0.00 0.00
0.92 0.73 0.93 0.88 0.83 0.86 0.65 0.50 0.26 0.13 0.04 0.03 0.03 0.02 0.01 0.06 0.08 0.12 0.25 0.34 0.38 0.33 0.31 0.44 0.33 0.11 0.00 0.00 0.00 0.00 0.00 0.00 0.00 0.00 0.00 0.00 0.00 0.00 0.00 0.01 0.00 0.00 0.00 0.00
1.15 1.54 1.52 0.87 0.66 0.39 0.18 0.17 0.12 0.08 0.04 0.04 0.03 0.07 0.05 0.12 0.22 0.20 0.24 0.34 0.30 0.21 0.20 0.13 0.04 0.01 0.00 0.00 0.00 0.01 0.04 0.01 0.01 0.01 0.01 0.00 0.01 0.02 0.02 0.03 0.01 0.01 0.01 0.02
2.30 2.10 1.43 0.37 0.40 0.03 0.02 0.02 0.06 0.08 0.02 0.01 0.04 0.04 0.04 0.07 0.14 0.14 0.12 0.17 0.24 0.15 0.06 0.03 0.03 0.01 0.00 0.01 0.02 0.01 0.09 0.18 0.17 0.11 0.05 0.02 0.01 0.04 0.05 0.05 0.04 0.02 0.02 0.03
1.98 1.11 0.49 0.15 0.05 0.01 0.02 0.07 0.05 0.05 0.02 0.00 0.00 0.01 0.01 0.02 0.06 0.05 0.07 0.11 0.09 0.01 0.00 0.00 0.00 0.00 0.02 0.05 0.06 0.05 0.05 0.16 0.28 0.36 0.33 0.31 0.24 0.20 0.13 0.04 0.04 0.06 0.02 0.01
1.54 0.80 0.25 0.06 0.02 0.02 0.06 0.07 0.05 0.04 0.02 0.00 0.00 0.01 0.02 0.01 0.02 0.06 0.03 0.02 0.01 0.00 0.00 0.00 0.00 0.01 0.02 0.01 0.00 0.00 0.01 0.02 0.03 0.05 0.06 0.07 0.10 0.14 0.16 0.16 0.12 0.10 0.06 0.02
1.27 0.39 0.04 0.02 0.02 0.05 0.07 0.09 0.07 0.03 0.03 0.02 0.01 0.02 0.01 0.02 0.04 0.03 0.00 0.00 0.00 0.00 0.00 0.00 0.00 0.00 0.00 0.00 0.00 0.00 0.00 0.00 0.00 0.00 0.00 0.00 0.00 0.00 0.01 0.01 0.05 0.07 0.10 0.11

GFSNW_prec_precacc_072.txt.gz
Total_Precipitation_Accumulation
0.62 0.72 0.97 0.86 0.97 1.26 1.44 1.32 1.89 1.81 1.83 3.56 2.31 1.39 1.19 1.14 1.40 1.55 1.07 0.51 0.28 0.22 0.19 0.22 0.16 0.05 0.02 0.00 0.00 0.03 0.12 0.39 0.57 0.46 0.16 0.17 0.35 0.41 0.52 0.80 0.41 0.45 0.43 0.21
0.52 0.70 0.85 0.83 1.25 1.65 1.99 1.58 1.63 2.48 1.39 1.57 0.93 0.90 1.24 1.38 1.47 1.35 0.96 0.56 0.29 0.19 0.19 0.27 0.09 0.01 0.00 0.00 0.00 0.01 0.06 0.38 0.52 0.54 0.38 0.31 0.58 0.46 0.56 0.60 0.79 0.71 0.56 0.14
0.45 0.59 0.65 0.78 1.09 1.46 1.62 1.66 2.02 3.14 2.64 0.70 0.37 0.76 1.17 1.22 1.15 1.04 0.73 0.58 0.35 0.29 0.20 0.09 0.05 0.01 0.00 0.00 0.00 0.01 0.09 0.22 0.50 0.54 0.49 0.51 0.68 0.49 0.49 0.84 0.97 0.36 0.24 0.04
0.48 0.50 0.39 0.53 0.71 1.06 1.00 1.15 1.02 0.90 0.99 0.43 0.23 0.70 1.02 1.21 1.27 0.83 0.78 0.68 0.30 0.23 0.21 0.08 0.05 0.01 0.00 0.00 0.00 0.01 0.19 0.24 0.54 0.58 0.34 0.35 0.77 0.60 0.53 0.86 0.42 0.36 0.08 0.04
0.43 0.43 0.37 0.41 0.58 1.20 1.11 0.88 0.56 0.22 0.12 0.07 0.13 0.47 0.90 1.20 0.78 0.64 0.61 0.51 0.28 0.27 0.16 0.04 0.01 0.00 0.01 0.00 0.01 0.02 0.03 0.15 0.33 0.46 0.45 0.69 0.55 0.33 0.41 0.31 0.24 0.24 0.05 0.03
0.51 0.46 0.61 0.74 1.05 1.71 1.57 0.79 0.47 0.26 0.16 0.11 0.22 0.28 0.61 0.73 0.67 0.56 0.31 0.37 0.34 0.20 0.11 0.08 0.04 0.06 0.03 0.00 0.00 0.01 0.02 0.05 0.23 0.50 0.50 0.55 0.49 0.39 0.23 0.17 0.13 0.11 0.08 0.02
0.48 0.40 0.48 0.51 0.60 1.02 1.29 0.75 0.63 0.37 0.21 0.08 0.13 0.16 0.36 0.58 0.62 0.62 0.43 0.35 0.29 0.14 0.14 0.13 0.06 0.05 0.05 0.04 0.01 0.01 0.05 0.04 0.18 0.29 0.19 0.35 0.24 0.29 0.42 0.23 0.05 0.03 0.05 0.01
0.39 0.31 0.40 0.59 0.65 0.79 0.70 0.57 0.66 0.37 0.26 0.09 0.10 0.11 0.20 0.41 0.49 0.51 0.41 0.31 0.27 0.24 0.35 0.28 0.17 0.20 0.21 0.11 0.04 0.02 0.02 0.09 0.18 0.25 0.17 0.07 0.05 0.12 0.17 0.12 0.04 0.03 0.04 0.01
0.32 0.23 0.19 0.25 0.28 0.34 0.46 0.61 0.64 0.41 0.27 0.12 0.06 0.08 0.10 0.39 0.62 0.64 0.45 0.36 0.20 0.29 0.45 0.31 0.17 0.27 0.16 0.09 0.04 0.03 0.04 0.05 0.27 0.22 0.13 0.01 0.01 0.00 0.00 0.13 0.25 0.04 0.02 0.02
0.32 0.33 0.27 0.25 0.30 0.37 0.37 0.55 0.57 0.50 0.30 0.04 0.05 0.09 0.12 0.24 0.62 0.84 0.58 0.41 0.37 0.41 0.53 0.28 0.05 0.06 0.03 0.04 0.02 0.05 0.15 0.16 0.21 0.17 0.19 0.00 0.00 0.00 0.00 0.03 0.09 0.06 0.03 0.01
0.37 0.42 0.29 0.23 0.24 0.38 0.34 0.30 0.50 0.46 0.28 0.06 0.03 0.06 0.13 0.13 0.38 0.96 0.79 0.49 0.38 0.46 0.52 0.29 0.06 0.01 0.01 0.01 0.00 0.00 0.05 0.07 0.07 0.06 0.07 0.00 0.00 0.00 0.00 0.00 0.00 0.00 0.00 0.01
0.27 0.34 0.26 0.23 0.25 0.43 0.48 0.25 0.31 0.48 0.34 0.10 0.04 0.04 0.06 0.10 0.26 0.70 0.80 0.48 0.20 0.13 0.27 0.11 0.04 0.02 0.01 0.00 0.01 0.00 0.00 0.00 0.00 0.00 0.00 0.00 0.00 0.00 0.00 0.00 0.00 0.00 0.00 0.00
0.25 0.27 0.27 0.23 0.23 0.43 0.59 0.27 0.27 0.43 0.36 0.13 0.05 0.03 0.02 0.02 0.12 0.30 0.78 0.64 0.35 0.19 0.09 0.16 0.08 0.04 0.02 0.01 0.00 0.00 0.00 0.00 0.00 0.00 0.00 0.00 0.00 0.00 0.00 0.00 0.00 0.00 0.00 0.00
0.21 0.23 0.30 0.24 0.24 0.38 0.53 0.23 0.28 0.34 0.28 0.14 0.04 0.02 0.04 0.04 0.15 0.29 0.51 0.69 0.45 0.38 0.24 0.34 0.26 0.12 0.02 0.02 0.01 0.00 0.00 0.00 0.00 0.00 0.00 0.00 0.00 0.00 0.00 0.00 0.00 0.00 0.00 0.00
0.20 0.26 0.24 0.21 0.25 0.40 0.36 0.16 0.39 0.30 0.33 0.38 0.08 0.03 0.04 0.02 0.16 0.34 0.51 0.77 0.56 0.43 0.42 0.29 0.22 0.18 0.08 0.03 0.00 0.00 0.00 0.00 0.00 0.00 0.00 0.00 0.00 0.00 0.00 0.00 0.00 0.00 0.00 0.00
0.17 0.17 0.18 0.21 0.30 0.59 0.49 0.42 0.41 0.44 0.34 0.46 0.16 0.03 0.03 0.02 0.21 0.45 0.53 0.54 0.50 0.49 0.41 0.27 0.14 0.11 0.13 0.12 0.04 0.00 0.00 0.00 0.00 0.00 0.00 0.00 0.00 0.00 0.00 0.00 0.00 0.00 0.00 0.01
0.19 0.20 0.20 0.24 0.42 0.58 0.62 0.30 0.40 0.38 0.57 0.42 0.14 0.09 0.05 0.05 0.24 0.49 0.61 0.38 0.43 0.59 0.60 0.36 0.16 0.13 0.23 0.14 0.02 0.00 0.00 0.00 0.00 0.00 0.00 0.00 0.00 0.00 0.00 0.00 0.01 0.04 0.05 0.04
0.27 0.32 0.44 0.48 0.58 0.61 0.35 0.10 0.26 0.51 0.75 0.51 0.31 0.11 0.06 0.09 0.37 0.54 0.53 0.48 0.37 0.45 0.42 0.26 0.13 0.13 0.27 0.21 0.01 0.00 0.00 0.00 0.00 0.00 0.00 0.00 0.00 0.00 0.01 0.04 0.09 0.10 0.06 0.02
0.51 0.54 0.56 0.63 0.37 0.25 0.26 0.29 0.49 0.48 0.83 0.81 0.31 0.11 0.05 0.05 0.21 0.34 0.46 0.46 0.47 0.37 0.22 0.20 0.32 0.23 0.14 0.02 0.00 0.00 0.00 0.00 0.00 0.00 0.00 0.00 0.00 0.02 0.07 0.12 0.09 0.03 0.01 0.00
0.71 0.83 0.76 0.61 0.29 0.49 0.82 0.88 0.85 0.96 0.61 0.30 0.20 0.04 0.08 0.09 0.13 0.19 0.30 0.45 0.49 0.38 0.25 0.27 0.31 0.21 0.08 0.02 0.00 0.00 0.00 0.00 0.00 0.00 0.00 0.01 0.04 0.07 0.05 0.02 0.00 0.00 0.00 0.00
1.24 1.27 0.88 0.75 0.91 1.17 1.10 0.92 0.61 0.49 0.36 0.11 0.03 0.02 0.07 0.09 0.20 0.17 0.27 0.34 0.46 0.43 0.34 0.53 0.41 0.27 0.07 0.00 0.00 0.00 0.00 0.00 0.00 0.00 0.00 0.00 0.01 0.00 0.00 0.00 0.00 0.00 0.00 0.00
0.92 0.73 0.93 0.89 0.88 0.96 0.75 0.56 0.30 0.16 0.05 0.05 0.04 0.03 0.02 0.09 0.11 0.16 0.27 0.35 0.40 0.34 0.31 0.46 0.33 0.11 0.00 0.00 0.00 0.00 0.00 0.00 0.00 0.00 0.00 0.00 0.00 0.00 0.00 0.01 0.00 0.00 0.00 0.00
1.15 1.54 1.53 0.90 0.70 0.44 0.24 0.24 0.21 0.18 0.08 0.09 0.14 0.15 0.07 0.15 0.26 0.24 0.27 0.37 0.31 0.23 0.22 0.13 0.04 0.01 0.00 0.00 0.00 0.02 0.04 0.01 0.01 0.01 0.01 0.00 0.01 0.02 0.03 0.03 0.01 0.01 0.01 0.02
2.30 2.11 1.45 0.43 0.45 0.05 0.06 0.10 0.18 0.23 0.17 0.13 0.12 0.13 0.10 0.13 0.21 0.18 0.14 0.19 0.27 0.17 0.07 0.04 0.03 0.01 0.00 0.02 0.04 0.04 0.11 0.20 0.19 0.12 0.06 0.03 0.03 0.04 0.05 0.05 0.04 0.02 0.02 0.03
1.98 1.12 0.50 0.17 0.08 0.03 0.09 0.16 0.14 0.16 0.14 0.05 0.03 0.03 0.03 0.07 0.12 0.08 0.09 0.14 0.11 0.02 0.02 0.05 0.00 0.00 0.03 0.07 0.11 0.12 0.12 0.23 0.35 0.42 0.38 0.36 0.30 0.28 0.21 0.11 0.08 0.09 0.05 0.03
1.54 0.80 0.26 0.06 0.03 0.05 0.11 0.16 0.18 0.18 0.15 0.04 0.01 0.01 0.03 0.03 0.03 0.07 0.04 0.03 0.03 0.01 0.03 0.06 0.04 0.04 0.05 0.02 0.01 0.00 0.01 0.02 0.05 0.09 0.12 0.14 0.15 0.18 0.20 0.19 0.17 0.19 0.17 0.12
1.27 0.39 0.04 0.02 0.02 0.06 0.12 0.17 0.17 0.11 0.11 0.11 0.05 0.02 0.01 0.03 0.05 0.03 0.00 0.00 0.00 0.00 0.00 0.02 0.03 0.01 0.00 0.00 0.00 0.00 0.00 0.00 0.00 0.00 0.00 0.00 0.00 0.00 0.01 0.02 0.05 0.10 0.18 0.22

GFSNW_prec_precacc_075.txt.gz
Total_Precipitation_Accumulation
0.62 0.72 0.97 0.86 0.97 1.26 1.44 1.32 1.89 1.81 1.83 3.56 2.32 1.39 1.19 1.14 1.40 1.55 1.07 0.51 0.28 0.22 0.19 0.22 0.16 0.05 0.02 0.00 0.00 0.03 0.12 0.39 0.58 0.46 0.16 0.18 0.35 0.42 0.52 0.80 0.41 0.45 0.43 0.21
0.52 0.70 0.85 0.83 1.25 1.65 1.99 1.58 1.63 2.48 1.39 1.57 0.93 0.90 1.24 1.38 1.47 1.35 0.96 0.56 0.29 0.19 0.19 0.27 0.09 0.01 0.00 0.00 0.00 0.01 0.06 0.38 0.52 0.54 0.38 0.31 0.58 0.46 0.56 0.60 0.79 0.71 0.56 0.14
0.45 0.59 0.65 0.78 1.09 1.46 1.62 1.66 2.02 3.14 2.64 0.70 0.37 0.76 1.17 1.22 1.15 1.04 0.73 0.58 0.35 0.29 0.20 0.09 0.05 0.01 0.00 0.00 0.00 0.01 0.09 0.22 0.50 0.54 0.49 0.51 0.68 0.49 0.49 0.84 0.97 0.36 0.24 0.04
0.48 0.51 0.39 0.53 0.71 1.06 1.00 1.15 1.02 0.90 0.99 0.43 0.23 0.71 1.02 1.21 1.27 0.83 0.78 0.68 0.30 0.23 0.21 0.08 0.05 0.01 0.00 0.00 0.00 0.01 0.19 0.24 0.54 0.58 0.34 0.35 0.77 0.60 0.53 0.86 0.42 0.36 0.08 0.04
0.43 0.43 0.37 0.41 0.58 1.20 1.11 0.88 0.56 0.23 0.12 0.07 0.13 0.47 0.90 1.20 0.78 0.64 0.61 0.51 0.28 0.27 0.16 0.04 0.01 0.00 0.01 0.00 0.01 0.02 0.03 0.15 0.33 0.46 0.45 0.69 0.55 0.33 0.41 0.31 0.24 0.24 0.05 0.03
0.51 0.46 0.61 0.74 1.05 1.71 1.57 0.79 0.47 0.26 0.16 0.11 0.22 0.29 0.64 0.74 0.68 0.56 0.31 0.37 0.34 0.20 0.11 0.08 0.04 0.06 0.03 0.00 0.00 0.01 0.02 0.05 0.23 0.50 0.50 0.55 0.49 0.39 0.23 0.17 0.13 0.11 0.08 0.02
0.48 0.40 0.48 0.51 0.60 1.02 1.29 0.75 0.64 0.38 0.21 0.08 0.13 0.16 0.37 0.58 0.62 0.62 0.43 0.35 0.29 0.14 0.14 0.13 0.06 0.05 0.05 0.04 0.01 0.01 0.05 0.04 0.18 0.29 0.19 0.35 0.24 0.29 0.42 0.23 0.05 0.03 0.05 0.01
0.39 0.31 0.40 0.60 0.65 0.79 0.70 0.57 0.67 0.38 0.26 0.09 0.10 0.11 0.21 0.41 0.49 0.51 0.41 0.31 0.27 0.24 0.35 0.28 0.17 0.20 0.21 0.11 0.04 0.02 0.02 0.09 0.18 0.25 0.17 0.07 0.05 0.12 0.17 0.12 0.04 0.03 0.04 0.01
0.32 0.23 0.19 0.25 0.28 0.35 0.46 0.61 0.64 0.41 0.28 0.12 0.06 0.08 0.11 0.40 0.62 0.64 0.45 0.36 0.20 0.29 0.45 0.31 0.17 0.27 0.16 0.09 0.04 0.03 0.04 0.05 0.27 0.22 0.13 0.01 0.01 0.00 0.00 0.13 0.26 0.04 0.02 0.02
0.32 0.33 0.27 0.25 0.30 0.37 0.38 0.55 0.57 0.50 0.30 0.04 0.05 0.09 0.14 0.28 0.62 0.84 0.59 0.41 0.37 0.41 0.53 0.28 0.05 0.06 0.03 0.04 0.02 0.05 0.15 0.16 0.21 0.17 0.19 0.00 0.00 0.00 0.00 0.03 0.10 0.06 0.03 0.01
0.37 0.42 0.29 0.23 0.24 0.38 0.35 0.30 0.50 0.47 0.28 0.06 0.03 0.06 0.13 0.13 0.38 0.96 0.79 0.50 0.38 0.46 0.52 0.29 0.06 0.01 0.01 0.01 0.00 0.00 0.05 0.07 0.07 0.06 0.07 0.00 0.00 0.00 0.00 0.00 0.00 0.00 0.00 0.01
0.27 0.34 0.27 0.24 0.26 0.44 0.48 0.26 0.31 0.49 0.35 0.10 0.04 0.04 0.06 0.10 0.26 0.70 0.80 0.48 0.20 0.13 0.27 0.11 0.04 0.02 0.01 0.00 0.01 0.00 0.00 0.00 0.00 0.00 0.00 0.00 0.00 0.00 0.00 0.00 0.00 0.00 0.00 0.00
0.25 0.27 0.27 0.24 0.24 0.43 0.60 0.29 0.28 0.44 0.37 0.13 0.05 0.03 0.02 0.02 0.12 0.30 0.78 0.65 0.35 0.20 0.09 0.16 0.08 0.04 0.02 0.01 0.00 0.00 0.00 0.00 0.00 0.00 0.00 0.00 0.00 0.00 0.00 0.00 0.00 0.00 0.00 0.00
0.21 0.24 0.30 0.24 0.24 0.38 0.54 0.25 0.30 0.36 0.29 0.14 0.04 0.02 0.04 0.04 0.15 0.29 0.51 0.70 0.46 0.38 0.24 0.35 0.27 0.12 0.02 0.02 0.01 0.00 0.00 0.00 0.00 0.00 0.00 0.00 0.00 0.00 0.00 0.00 0.00 0.00 0.00 0.00
0.20 0.26 0.25 0.21 0.25 0.41 0.37 0.17 0.40 0.31 0.35 0.39 0.08 0.03 0.04 0.02 0.16 0.34 0.51 0.77 0.57 0.47 0.45 0.31 0.24 0.18 0.08 0.03 0.00 0.00 0.00 0.00 0.00 0.00 0.00 0.00 0.00 0.00 0.00 0.00 0.00 0.00 0.00 0.00
0.17 0.17 0.18 0.21 0.31 0.60 0.53 0.45 0.42 0.45 0.35 0.50 0.16 0.03 0.03 0.02 0.21 0.45 0.53 0.54 0.50 0.53 0.46 0.30 0.16 0.11 0.13 0.12 0.04 0.00 0.00 0.00 0.00 0.00 0.00 0.00 0.00 0.00 0.00 0.00 0.00 0.00 0.00 0.01
0.19 0.20 0.21 0.25 0.43 0.60 0.65 0.33 0.42 0.39 0.59 0.46 0.15 0.09 0.05 0.05 0.25 0.50 0.63 0.42 0.46 0.62 0.63 0.38 0.16 0.14 0.23 0.15 0.02 0.00 0.00 0.00 0.00 0.00 0.00 0.00 0.00 0.00 0.00 0.00 0.01 0.04 0.05 0.04
0.27 0.32 0.44 0.48 0.59 0.63 0.38 0.11 0.28 0.52 0.78 0.52 0.33 0.13 0.07 0.11 0.41 0.59 0.58 0.59 0.48 0.55 0.46 0.27 0.14 0.14 0.27 0.22 0.01 0.00 0.00 0.00 0.00 0.00 0.00 0.00 0.00 0.00 0.01 0.04 0.09 0.10 0.06 0.02
0.51 0.54 0.56 0.63 0.38 0.26 0.26 0.32 0.53 0.50 0.89 0.85 0.35 0.18 0.14 0.07 0.28 0.42 0.52 0.47 0.51 0.41 0.24 0.20 0.32 0.24 0.14 0.02 0.00 0.00 0.00 0.00 0.00 0.00 0.00 0.00 0.00 0.02 0.07 0.12 0.09 0.03 0.01 0.00
0.71 0.83 0.76 0.61 0.30 0.51 0.84 0.91 0.92 1.04 0.64 0.31 0.21 0.06 0.21 0.15 0.21 0.26 0.33 0.46 0.49 0.39 0.25 0.28 0.32 0.22 0.08 0.02 0.00 0.00 0.00 0.00 0.00 0.00 0.00 0.01 0.04 0.07 0.05 0.02 0.00 0.00 0.00 0.00
1.24 1.27 0.88 0.75 0.91 1.20 1.15 0.96 0.65 0.52 0.37 0.11 0.03 0.03 0.16 0.16 0.25 0.22 0.28 0.37 0.46 0.44 0.35 0.54 0.42 0.28 0.07 0.00 0.00 0.00 0.00 0.00 0.00 0.00 0.00 0.00 0.01 0.00 0.00 0.00 0.00 0.00 0.00 0.00
0.92 0.74 0.93 0.89 0.89 1.00 0.81 0.60 0.33 0.19 0.06 0.09 0.06 0.04 0.05 0.17 0.21 0.23 0.34 0.36 0.41 0.34 0.32 0.49 0.34 0.11 0.00 0.00 0.00 0.00 0.00 0.00 0.00 0.00 0.00 0.00 0.00 0.00 0.00 0.01 0.00 0.00 0.00 0.00
1.15 1.55 1.54 0.92 0.74 0.48 0.29 0.34 0.38 0.36 0.20 0.20 0.22 0.21 0.08 0.19 0.31 0.28 0.31 0.39 0.32 0.24 0.24 0.14 0.04 0.02 0.00 0.00 0.00 0.02 0.04 0.01 0.01 0.01 0.01 0.00 0.01 0.02 0.03 0.03 0.01 0.01 0.01 0.02
2.30 2.12 1.46 0.45 0.50 0.11 0.19 0.26 0.32 0.38 0.36 0.32 0.28 0.31 0.19 0.18 0.28 0.23 0.15 0.20 0.28 0.19 0.08 0.04 0.06 0.01 0.00 0.02 0.05 0.05 0.12 0.21 0.20 0.13 0.06 0.04 0.04 0.05 0.06 0.06 0.05 0.02 0.02 0.03
1.98 1.12 0.50 0.17 0.09 0.06 0.16 0.23 0.23 0.29 0.31 0.25 0.22 0.20 0.14 0.18 0.20 0.11 0.10 0.16 0.13 0.02 0.03 0.11 0.04 0.01 0.03 0.07 0.11 0.13 0.14 0.27 0.41 0.47 0.44 0.42 0.35 0.32 0.25 0.14 0.10 0.10 0.06 0.04
1.54 0.80 0.26 0.06 0.03 0.05 0.12 0.18 0.23 0.28 0.31 0.19 0.10 0.08 0.09 0.10 0.06 0.09 0.06 0.06 0.05 0.05 0.10 0.15 0.08 0.07 0.05 0.03 0.01 0.00 0.01 0.02 0.06 0.09 0.14 0.16 0.17 0.21 0.23 0.22 0.19 0.21 0.19 0.15
1.27 0.39 0.04 0.02 0.03 0.06 0.12 0.17 0.18 0.14 0.18 0.21 0.15 0.06 0.06 0.07 0.08 0.03 0.00 0.01 0.00 0.00 0.00 0.09 0.11 0.07 0.02 0.00 0.00 0.00 0.00 0.00 0.00 0.00 0.00 0.00 0.00 0.00 0.01 0.02 0.06 0.10 0.21 0.27

GFSNW_prec_precacc_078.txt.gz
Total_Precipitation_Accumulation
0.62 0.72 0.97 0.86 0.97 1.26 1.44 1.32 1.89 1.81 1.83 3.56 2.32 1.39 1.19 1.14 1.41 1.56 1.07 0.51 0.28 0.22 0.20 0.22 0.16 0.05 0.02 0.00 0.00 0.04 0.15 0.43 0.67 0.57 0.18 0.19 0.36 0.44 0.54 0.83 0.44 0.46 0.43 0.21
0.52 0.70 0.85 0.83 1.25 1.65 1.99 1.58 1.63 2.48 1.39 1.57 0.93 0.90 1.25 1.38 1.47 1.35 0.96 0.56 0.29 0.19 0.19 0.27 0.09 0.01 0.00 0.00 0.00 0.01 0.06 0.39 0.56 0.62 0.44 0.33 0.58 0.46 0.57 0.60 0.79 0.71 0.56 0.14
0.45 0.59 0.65 0.78 1.09 1.46 1.62 1.66 2.02 3.14 2.64 0.70 0.38 0.76 1.17 1.23 1.16 1.05 0.73 0.58 0.35 0.29 0.20 0.09 0.05 0.01 0.00 0.00 0.00 0.01 0.09 0.22 0.50 0.54 0.50 0.52 0.68 0.49 0.50 0.85 0.97 0.36 0.24 0.04
0.48 0.51 0.39 0.53 0.71 1.06 1.00 1.15 1.02 0.90 0.99 0.43 0.24 0.71 1.02 1.22 1.28 0.83 0.78 0.68 0.30 0.23 0.21 0.08 0.05 0.01 0.00 0.00 0.00 0.01 0.19 0.24 0.54 0.58 0.34 0.35 0.77 0.60 0.53 0.86 0.42 0.36 0.08 0.04
0.43 0.43 0.37 0.41 0.58 1.20 1.11 0.88 0.57 0.23 0.13 0.07 0.13 0.47 0.90 1.21 0.79 0.65 0.61 0.51 0.28 0.27 0.16 0.04 0.01 0.00 0.01 0.00 0.01 0.02 0.03 0.15 0.33 0.46 0.45 0.69 0.55 0.33 0.41 0.31 0.24 0.24 0.05 0.03
0.51 0.46 0.61 0.74 1.05 1.71 1.57 0.80 0.47 0.27 0.16 0.12 0.23 0.30 0.66 0.74 0.68 0.59 0.31 0.37 0.34 0.20 0.11 0.08 0.04 0.06 0.03 0.00 0.00 0.01 0.02 0.05 0.23 0.50 0.50 0.55 0.49 0.39 0.23 0.17 0.13 0.11 0.08 0.02
0.48 0.40 0.48 0.52 0.60 1.02 1.29 0.75 0.65 0.38 0.21 0.09 0.14 0.17 0.38 0.59 0.62 0.64 0.43 0.35 0.29 0.14 0.14 0.13 0.06 0.05 0.05 0.04 0.01 0.01 0.05 0.04 0.18 0.29 0.19 0.35 0.24 0.29 0.42 0.23 0.05 0.03 0.05 0.01
0.39 0.31 0.40 0.60 0.65 0.80 0.70 0.57 0.67 0.38 0.26 0.09 0.11 0.12 0.22 0.42 0.49 0.53 0.42 0.31 0.27 0.24 0.35 0.29 0.17 0.21 0.21 0.11 0.04 0.02 0.02 0.09 0.18 0.25 0.17 0.07 0.05 0.12 0.17 0.12 0.04 0.03 0.04 0.01
0.32 0.23 0.19 0.25 0.28 0.35 0.46 0.61 0.64 0.41 0.28 0.12 0.06 0.08 0.13 0.43 0.63 0.66 0.46 0.36 0.20 0.29 0.45 0.32 0.18 0.28 0.16 0.09 0.04 0.03 0.04 0.05 0.27 0.22 0.13 0.01 0.01 0.00 0.00 0.13 0.26 0.04 0.02 0.02
0.32 0.33 0.27 0.25 0.30 0.38 0.38 0.56 0.57 0.51 0.30 0.04 0.05 0.09 0.15 0.35 0.67 0.85 0.59 0.41 0.37 0.41 0.54 0.29 0.06 0.07 0.03 0.04 0.02 0.05 0.15 0.16 0.21 0.17 0.19 0.00 0.00 0.00 0.00 0.03 0.11 0.06 0.03 0.01
0.37 0.42 0.29 0.23 0.24 0.39 0.35 0.30 0.51 0.47 0.29 0.06 0.03 0.06 0.13 0.14 0.42 1.01 0.80 0.51 0.40 0.47 0.53 0.29 0.06 0.01 0.01 0.01 0.00 0.00 0.05 0.07 0.07 0.06 0.07 0.00 0.00 0.00 0.01 0.00 0.00 0.00 0.00 0.01
0.27 0.34 0.27 0.24 0.26 0.44 0.49 0.26 0.32 0.50 0.37 0.10 0.04 0.04 0.06 0.10 0.26 0.70 0.80 0.49 0.22 0.14 0.27 0.11 0.04 0.02 0.01 0.00 0.01 0.00 0.00 0.00 0.00 0.00 0.00 0.00 0.00 0.00 0.00 0.00 0.00 0.00 0.00 0.00
0.25 0.27 0.27 0.24 0.25 0.44 0.60 0.29 0.29 0.45 0.39 0.13 0.05 0.03 0.02 0.02 0.12 0.30 0.78 0.65 0.37 0.21 0.09 0.17 0.08 0.04 0.02 0.02 0.00 0.00 0.00 0.00 0.00 0.00 0.00 0.00 0.00 0.00 0.00 0.00 0.00 0.00 0.00 0.00
0.21 0.24 0.30 0.25 0.25 0.39 0.54 0.25 0.31 0.39 0.32 0.16 0.04 0.02 0.04 0.04 0.15 0.29 0.51 0.70 0.47 0.38 0.25 0.36 0.28 0.13 0.02 0.02 0.01 0.00 0.00 0.00 0.00 0.00 0.00 0.00 0.00 0.00 0.00 0.00 0.00 0.00 0.00 0.00
0.20 0.26 0.25 0.21 0.26 0.41 0.38 0.17 0.40 0.32 0.38 0.41 0.08 0.03 0.04 0.02 0.16 0.34 0.51 0.77 0.57 0.48 0.46 0.33 0.25 0.19 0.08 0.03 0.00 0.00 0.00 0.00 0.00 0.00 0.00 0.00 0.00 0.00 0.00 0.00 0.00 0.00 0.00 0.00
0.17 0.18 0.18 0.22 0.32 0.62 0.54 0.46 0.42 0.45 0.37 0.57 0.18 0.03 0.03 0.02 0.21 0.45 0.53 0.54 0.51 0.55 0.52 0.34 0.17 0.11 0.13 0.12 0.04 0.00 0.00 0.00 0.00 0.00 0.00 0.00 0.00 0.00 0.00 0.00 0.00 0.00 0.00 0.01
0.19 0.20 0.21 0.25 0.45 0.62 0.66 0.34 0.45 0.40 0.62 0.51 0.17 0.09 0.06 0.05 0.26 0.52 0.64 0.42 0.46 0.63 0.66 0.40 0.17 0.15 0.24 0.16 0.02 0.00 0.00 0.00 0.00 0.00 0.00 0.00 0.00 0.00 0.00 0.00 0.01 0.04 0.05 0.04
0.27 0.32 0.45 0.48 0.59 0.64 0.39 0.12 0.30 0.55 0.81 0.55 0.34 0.13 0.08 0.13 0.43 0.62 0.60 0.61 0.51 0.60 0.51 0.29 0.14 0.14 0.28 0.22 0.01 0.00 0.00 0.00 0.00 0.00 0.00 0.00 0.00 0.00 0.01 0.04 0.09 0.10 0.06 0.02
0.51 0.54 0.56 0.64 0.39 0.27 0.27 0.33 0.55 0.52 0.92 0.93 0.36 0.20 0.22 0.17 0.33 0.44 0.56 0.55 0.62 0.47 0.27 0.21 0.33 0.24 0.15 0.02 0.00 0.00 0.00 0.00 0.00 0.00 0.00 0.00 0.00 0.02 0.07 0.12 0.09 0.03 0.01 0.00
0.71 0.83 0.77 0.61 0.30 0.51 0.85 0.93 0.96 1.11 0.67 0.33 0.22 0.06 0.24 0.26 0.33 0.34 0.43 0.51 0.53 0.40 0.25 0.28 0.32 0.22 0.08 0.02 0.00 0.00 0.00 0.00 0.00 0.00 0.00 0.01 0.04 0.07 0.05 0.02 0.00 0.00 0.00 0.00
1.24 1.27 0.88 0.76 0.91 1.20 1.17 0.98 0.67 0.53 0.39 0.12 0.04 0.03 0.21 0.23 0.45 0.36 0.34 0.40 0.46 0.44 0.35 0.55 0.43 0.28 0.07 0.00 0.00 0.00 0.00 0.00 0.00 0.00 0.00 0.00 0.01 0.00 0.00 0.00 0.00 0.00 0.00 0.00
0.92 0.74 0.93 0.89 0.89 1.01 0.83 0.62 0.38 0.24 0.09 0.14 0.13 0.12 0.16 0.26 0.31 0.33 0.43 0.37 0.42 0.35 0.33 0.49 0.34 0.11 0.00 0.00 0.00 0.00 0.00 0.00 0.00 0.00 0.00 0.00 0.00 0.00 0.00 0.01 0.00 0.00 0.00 0.00
1.15 1.55 1.54 0.93 0.75 0.51 0.35 0.43 0.51 0.48 0.34 0.38 0.38 0.36 0.22 0.30 0.44 0.33 0.35 0.41 0.32 0.24 0.24 0.15 0.04 0.02 0.00 0.00 0.00 0.02 0.04 0.01 0.01 0.01 0.01 0.00 0.01 0.02 0.03 0.03 0.01 0.01 0.01 0.02
2.30 2.12 1.46 0.45 0.52 0.17 0.31 0.32 0.37 0.45 0.46 0.44 0.42 0.48 0.37 0.28 0.37 0.31 0.16 0.22 0.29 0.21 0.09 0.05 0.06 0.04 0.01 0.02 0.05 0.05 0.12 0.21 0.20 0.14 0.07 0.05 0.04 0.06 0.07 0.07 0.06 0.03 0.02 0.03
1.98 1.12 0.50 0.18 0.10 0.07 0.18 0.23 0.24 0.31 0.36 0.37 0.38 0.37 0.28 0.34 0.35 0.18 0.12 0.18 0.14 0.03 0.05 0.16 0.11 0.06 0.03 0.07 0.11 0.13 0.14 0.27 0.41 0.47 0.45 0.43 0.36 0.33 0.26 0.16 0.12 0.12 0.07 0.05
1.54 0.80 0.26 0.06 0.03 0.05 0.12 0.18 0.23 0.29 0.32 0.28 0.25 0.19 0.20 0.24 0.16 0.13 0.07 0.07 0.07 0.11 0.18 0.22 0.15 0.15 0.07 0.03 0.01 0.00 0.01 0.02 0.06 0.09 0.14 0.16 0.17 0.22 0.24 0.22 0.19 0.21 0.20 0.16
1.27 0.39 0.04 0.02 0.03 0.06 0.12 0.17 0.18 0.14 0.19 0.28 0.26 0.14 0.12 0.13 0.13 0.04 0.01 0.03 0.05 0.01 0.01 0.15 0.17 0.16 0.07 0.02 0.00 0.00 0.00 0.00 0.00 0.00 0.00 0.00 0.00 0.00 0.01 0.02 0.06 0.10 0.21 0.28

GFSNW_prec_precacc_081.txt.gz
Total_Precipitation_Accumulation
0.62 0.72 0.97 0.86 0.97 1.26 1.44 1.32 1.89 1.81 1.83 3.56 2.32 1.39 1.19 1.14 1.41 1.56 1.08 0.51 0.28 0.22 0.20 0.22 0.16 0.05 0.04 0.02 0.03 0.08 0.16 0.43 0.70 0.59 0.19 0.19 0.36 0.44 0.54 0.83 0.44 0.46 0.44 0.21
0.52 0.70 0.85 0.83 1.25 1.65 1.99 1.58 1.63 2.48 1.39 1.57 0.93 0.90 1.25 1.38 1.47 1.36 0.96 0.56 0.29 0.19 0.19 0.27 0.09 0.01 0.00 0.00 0.00 0.01 0.08 0.41 0.58 0.65 0.46 0.34 0.58 0.46 0.57 0.60 0.79 0.71 0.57 0.14
0.45 0.59 0.65 0.78 1.09 1.46 1.62 1.66 2.02 3.14 2.64 0.70 0.38 0.76 1.17 1.23 1.16 1.05 0.73 0.58 0.35 0.29 0.20 0.09 0.05 0.01 0.00 0.00 0.00 0.01 0.09 0.23 0.52 0.55 0.51 0.52 0.68 0.49 0.50 0.85 0.98 0.36 0.24 0.04
0.48 0.51 0.39 0.53 0.71 1.06 1.00 1.15 1.03 0.90 0.99 0.43 0.24 0.72 1.02 1.22 1.28 0.83 0.78 0.68 0.30 0.23 0.21 0.08 0.05 0.01 0.00 0.00 0.00 0.01 0.19 0.24 0.55 0.59 0.34 0.35 0.77 0.60 0.53 0.86 0.42 0.36 0.08 0.04
0.43 0.43 0.37 0.41 0.58 1.20 1.11 0.88 0.57 0.23 0.13 0.07 0.13 0.48 0.91 1.21 0.79 0.65 0.62 0.51 0.28 0.27 0.16 0.04 0.01 0.00 0.01 0.00 0.01 0.02 0.03 0.15 0.33 0.46 0.45 0.69 0.55 0.33 0.41 0.31 0.25 0.24 0.05 0.03
0.51 0.46 0.61 0.74 1.05 1.71 1.57 0.80 0.47 0.28 0.16 0.12 0.23 0.31 0.67 0.75 0.69 0.62 0.33 0.37 0.34 0.20 0.11 0.08 0.04 0.06 0.03 0.00 0.00 0.01 0.02 0.05 0.23 0.50 0.50 0.55 0.49 0.39 0.23 0.17 0.13 0.11 0.08 0.02
0.48 0.40 0.48 0.52 0.60 1.02 1.29 0.75 0.65 0.38 0.21 0.09 0.14 0.17 0.39 0.60 0.62 0.66 0.44 0.35 0.29 0.14 0.14 0.13 0.06 0.05 0.05 0.04 0.01 0.01 0.05 0.04 0.18 0.29 0.19 0.35 0.24 0.29 0.42 0.23 0.05 0.03 0.05 0.01
0.39 0.31 0.40 0.60 0.65 0.80 0.70 0.57 0.67 0.38 0.26 0.09 0.11 0.12 0.23 0.42 0.49 0.56 0.44 0.31 0.27 0.24 0.35 0.29 0.17 0.21 0.21 0.11 0.04 0.02 0.02 0.09 0.18 0.25 0.17 0.07 0.05 0.12 0.17 0.12 0.04 0.03 0.04 0.01
0.32 0.23 0.19 0.25 0.28 0.35 0.46 0.61 0.64 0.41 0.28 0.12 0.06 0.08 0.13 0.45 0.64 0.70 0.48 0.37 0.20 0.29 0.45 0.32 0.18 0.28 0.16 0.09 0.04 0.03 0.04 0.05 0.27 0.22 0.13 0.01 0.01 0.00 0.00 0.13 0.26 0.04 0.02 0.02
0.32 0.33 0.27 0.25 0.30 0.38 0.38 0.56 0.57 0.51 0.30 0.04 0.05 0.09 0.15 0.35 0.69 0.86 0.59 0.41 0.37 0.41 0.54 0.29 0.06 0.07 0.03 0.04 0.02 0.05 0.15 0.16 0.21 0.17 0.19 0.00 0.00 0.00 0.00 0.04 0.11 0.06 0.03 0.01
0.37 0.42 0.29 0.23 0.24 0.39 0.35 0.30 0.51 0.48 0.29 0.06 0.03 0.06 0.13 0.14 0.43 1.05 0.83 0.53 0.43 0.47 0.53 0.29 0.06 0.01 0.01 0.01 0.00 0.00 0.05 0.07 0.07 0.06 0.07 0.00 0.00 0.00 0.01 0.00 0.00 0.00 0.00 0.01
0.27 0.34 0.27 0.24 0.26 0.45 0.49 0.26 0.32 0.50 0.38 0.10 0.04 0.04 0.06 0.10 0.26 0.71 0.82 0.53 0.27 0.14 0.27 0.11 0.04 0.02 0.01 0.00 0.01 0.00 0.00 0.00 0.00 0.00 0.00 0.00 0.00 0.00 0.00 0.00 0.00 0.00 0.00 0.00
0.25 0.27 0.27 0.25 0.25 0.45 0.61 0.29 0.29 0.46 0.40 0.13 0.05 0.03 0.02 0.02 0.12 0.30 0.78 0.68 0.40 0.23 0.10 0.17 0.08 0.04 0.02 0.02 0.00 0.00 0.00 0.00 0.00 0.00 0.00 0.00 0.00 0.00 0.00 0.00 0.00 0.00 0.00 0.00
0.21 0.24 0.31 0.26 0.25 0.39 0.55 0.25 0.31 0.40 0.33 0.17 0.04 0.02 0.04 0.04 0.15 0.29 0.51 0.72 0.47 0.38 0.25 0.37 0.28 0.13 0.02 0.02 0.01 0.00 0.00 0.00 0.00 0.00 0.00 0.00 0.00 0.00 0.00 0.00 0.00 0.00 0.00 0.00
0.20 0.26 0.26 0.22 0.26 0.42 0.39 0.17 0.40 0.33 0.41 0.44 0.08 0.03 0.04 0.02 0.16 0.34 0.51 0.77 0.57 0.49 0.47 0.33 0.25 0.19 0.08 0.03 0.00 0.00 0.00 0.00 0.00 0.00 0.00 0.00 0.00 0.00 0.00 0.00 0.00 0.00 0.00 0.00
0.17 0.18 0.19 0.22 0.32 0.65 0.55 0.46 0.43 0.46 0.39 0.62 0.20 0.03 0.03 0.02 0.21 0.45 0.53 0.54 0.51 0.55 0.53 0.35 0.17 0.11 0.13 0.12 0.04 0.00 0.00 0.00 0.00 0.00 0.00 0.00 0.00 0.00 0.00 0.00 0.00 0.00 0.00 0.01
0.19 0.20 0.21 0.26 0.46 0.63 0.67 0.35 0.45 0.41 0.63 0.54 0.18 0.09 0.06 0.05 0.26 0.52 0.64 0.43 0.46 0.63 0.67 0.41 0.18 0.16 0.24 0.16 0.02 0.00 0.00 0.00 0.00 0.00 0.00 0.00 0.00 0.00 0.00 0.00 0.01 0.04 0.05 0.04
0.27 0.32 0.45 0.48 0.59 0.64 0.39 0.12 0.31 0.55 0.83 0.56 0.35 0.13 0.09 0.15 0.48 0.63 0.62 0.62 0.52 0.62 0.53 0.30 0.15 0.15 0.28 0.22 0.01 0.00 0.00 0.00 0.00 0.00 0.00 0.00 0.00 0.00 0.01 0.04 0.09 0.10 0.06 0.02
0.51 0.54 0.56 0.64 0.39 0.28 0.27 0.33 0.56 0.53 0.93 0.94 0.37 0.20 0.25 0.22 0.52 0.47 0.58 0.58 0.67 0.50 0.29 0.22 0.33 0.24 0.15 0.02 0.00 0.00 0.00 0.00 0.00 0.00 0.00 0.00 0.00 0.02 0.07 0.12 0.09 0.03 0.01 0.00
0.71 0.83 0.77 0.61 0.30 0.51 0.85 0.94 0.98 1.14 0.71 0.35 0.23 0.06 0.25 0.26 0.44 0.49 0.45 0.52 0.55 0.44 0.26 0.29 0.32 0.22 0.08 0.02 0.00 0.00 0.00 0.00 0.00 0.00 0.00 0.01 0.04 0.07 0.05 0.02 0.00 0.00 0.00 0.00
1.24 1.27 0.88 0.76 0.91 1.20 1.18 0.99 0.68 0.55 0.41 0.16 0.10 0.10 0.28 0.26 0.52 0.61 0.42 0.47 0.47 0.45 0.35 0.55 0.43 0.28 0.07 0.00 0.00 0.00 0.00 0.00 0.00 0.00 0.00 0.00 0.01 0.00 0.00 0.00 0.00 0.00 0.00 0.00
0.92 0.74 0.93 0.89 0.89 1.01 0.83 0.62 0.40 0.28 0.14 0.22 0.27 0.25 0.26 0.32 0.39 0.53 0.59 0.40 0.43 0.35 0.33 0.50 0.34 0.11 0.00 0.00 0.00 0.00 0.00 0.00 0.00 0.00 0.00 0.00 0.00 0.00 0.00 0.01 0.00 0.00 0.00 0.00
1.15 1.55 1.54 0.93 0.75 0.51 0.37 0.45 0.55 0.51 0.38 0.43 0.44 0.40 0.27 0.40 0.53 0.42 0.47 0.46 0.33 0.24 0.25 0.15 0.04 0.02 0.00 0.00 0.00 0.02 0.04 0.01 0.01 0.01 0.01 0.00 0.01 0.02 0.03 0.03 0.01 0.01 0.01 0.02
2.30 2.12 1.46 0.45 0.52 0.18 0.34 0.35 0.37 0.45 0.47 0.46 0.47 0.57 0.44 0.37 0.51 0.40 0.20 0.23 0.29 0.21 0.09 0.05 0.06 0.04 0.01 0.02 0.05 0.05 0.12 0.21 0.21 0.14 0.07 0.05 0.05 0.07 0.07 0.07 0.06 0.03 0.03 0.03
1.98 1.12 0.50 0.18 0.10 0.07 0.18 0.23 0.24 0.31 0.36 0.38 0.44 0.49 0.38 0.46 0.49 0.26 0.16 0.20 0.15 0.03 0.05 0.19 0.15 0.11 0.08 0.10 0.12 0.13 0.14 0.27 0.41 0.47 0.45 0.43 0.36 0.33 0.26 0.16 0.12 0.12 0.07 0.05
1.54 0.80 0.26 0.06 0.03 0.05 0.12 0.18 0.23 0.29 0.32 0.29 0.34 0.31 0.34 0.38 0.26 0.20 0.14 0.09 0.09 0.15 0.24 0.28 0.18 0.20 0.15 0.08 0.01 0.00 0.01 0.02 0.06 0.09 0.14 0.16 0.17 0.22 0.24 0.22 0.19 0.21 0.20 0.16
1.27 0.39 0.04 0.02 0.03 0.06 0.12 0.17 0.18 0.14 0.19 0.29 0.31 0.25 0.22 0.23 0.23 0.10 0.08 0.13 0.11 0.03 0.02 0.18 0.20 0.23 0.18 0.11 0.02 0.01 0.00 0.00 0.00 0.00 0.00 0.00 0.00 0.00 0.01 0.02 0.06 0.10 0.21 0.28

GFSNW_prec_precacc_084.txt.gz
Total_Precipitation_Accumulation
0.62 0.72 0.97 0.86 0.97 1.26 1.44 1.32 1.89 1.81 1.83 3.56 2.32 1.39 1.19 1.14 1.41 1.56 1.08 0.51 0.28 0.22 0.21 0.24 0.18 0.10 0.18 0.25 0.25 0.20 0.30 0.54 0.78 0.61 0.20 0.19 0.38 0.47 0.54 0.83 0.44 0.46 0.44 0.21
0.52 0.70 0.85 0.83 1.25 1.65 1.99 1.58 1.63 2.48 1.39 1.57 0.93 0.90 1.25 1.38 1.47 1.36 0.96 0.56 0.29 0.19 0.19 0.27 0.09 0.01 0.00 0.01 0.06 0.03 0.11 0.44 0.61 0.68 0.48 0.36 0.61 0.47 0.57 0.60 0.79 0.71 0.57 0.14
0.45 0.59 0.65 0.78 1.09 1.46 1.62 1.66 2.02 3.14 2.64 0.70 0.38 0.77 1.17 1.23 1.16 1.06 0.73 0.58 0.35 0.29 0.20 0.09 0.05 0.01 0.00 0.00 0.01 0.01 0.09 0.23 0.52 0.55 0.51 0.52 0.68 0.49 0.50 0.85 0.98 0.36 0.24 0.04
0.48 0.51 0.39 0.53 0.71 1.06 1.00 1.15 1.03 0.91 1.00 0.43 0.24 0.72 1.03 1.22 1.28 0.83 0.78 0.68 0.30 0.23 0.21 0.08 0.05 0.01 0.00 0.00 0.00 0.01 0.19 0.24 0.55 0.59 0.34 0.35 0.77 0.60 0.53 0.86 0.42 0.36 0.08 0.04
0.43 0.43 0.37 0.41 0.58 1.20 1.11 0.88 0.57 0.23 0.13 0.07 0.13 0.48 0.91 1.21 0.79 0.67 0.65 0.51 0.28 0.27 0.16 0.04 0.01 0.00 0.01 0.00 0.01 0.02 0.03 0.15 0.33 0.46 0.45 0.69 0.55 0.33 0.41 0.31 0.25 0.24 0.05 0.03
0.51 0.46 0.61 0.74 1.05 1.71 1.57 0.80 0.47 0.28 0.16 0.12 0.23 0.31 0.68 0.75 0.71 0.63 0.34 0.37 0.35 0.20 0.11 0.08 0.04 0.06 0.03 0.00 0.00 0.01 0.02 0.05 0.23 0.50 0.50 0.55 0.49 0.39 0.23 0.17 0.13 0.11 0.08 0.02
0.48 0.40 0.48 0.52 0.60 1.02 1.29 0.75 0.65 0.38 0.21 0.09 0.14 0.17 0.39 0.60 0.64 0.68 0.44 0.36 0.30 0.14 0.14 0.13 0.06 0.05 0.05 0.04 0.01 0.01 0.05 0.04 0.18 0.29 0.19 0.35 0.24 0.29 0.42 0.23 0.05 0.03 0.05 0.01
0.39 0.31 0.40 0.60 0.65 0.80 0.70 0.57 0.67 0.38 0.26 0.09 0.11 0.12 0.23 0.42 0.49 0.59 0.47 0.32 0.27 0.24 0.35 0.29 0.17 0.21 0.21 0.11 0.04 0.02 0.02 0.09 0.18 0.25 0.17 0.07 0.05 0.12 0.17 0.12 0.04 0.03 0.04 0.01
0.32 0.23 0.19 0.25 0.28 0.35 0.46 0.61 0.64 0.41 0.28 0.12 0.06 0.08 0.13 0.45 0.64 0.72 0.52 0.37 0.20 0.29 0.45 0.32 0.18 0.28 0.16 0.09 0.04 0.03 0.04 0.05 0.27 0.22 0.13 0.01 0.01 0.00 0.00 0.13 0.26 0.04 0.02 0.02
0.32 0.33 0.27 0.25 0.30 0.38 0.38 0.56 0.57 0.51 0.31 0.04 0.05 0.09 0.15 0.36 0.69 0.87 0.61 0.41 0.37 0.41 0.54 0.29 0.06 0.07 0.03 0.04 0.02 0.05 0.15 0.16 0.21 0.17 0.19 0.00 0.00 0.00 0.00 0.04 0.11 0.06 0.03 0.01
0.37 0.42 0.29 0.23 0.24 0.39 0.35 0.30 0.51 0.48 0.30 0.06 0.03 0.06 0.13 0.14 0.43 1.05 0.83 0.55 0.45 0.47 0.53 0.29 0.06 0.01 0.01 0.01 0.00 0.00 0.05 0.07 0.07 0.06 0.07 0.00 0.00 0.00 0.01 0.00 0.00 0.00 0.00 0.01
0.27 0.34 0.27 0.24 0.26 0.46 0.49 0.26 0.32 0.50 0.38 0.10 0.04 0.04 0.06 0.10 0.26 0.71 0.82 0.56 0.37 0.18 0.27 0.12 0.04 0.02 0.01 0.00 0.01 0.00 0.00 0.00 0.00 0.00 0.00 0.00 0.00 0.00 0.00 0.00 0.00 0.00 0.00 0.00
0.25 0.27 0.27 0.25 0.25 0.45 0.61 0.29 0.29 0.46 0.40 0.13 0.05 0.03 0.02 0.02 0.12 0.30 0.78 0.69 0.45 0.29 0.10 0.17 0.08 0.04 0.02 0.02 0.00 0.00 0.00 0.00 0.00 0.00 0.00 0.00 0.00 0.00 0.00 0.00 0.00 0.00 0.00 0.00
0.21 0.24 0.31 0.26 0.26 0.39 0.56 0.25 0.31 0.41 0.34 0.19 0.04 0.02 0.04 0.04 0.15 0.29 0.51 0.73 0.51 0.40 0.25 0.37 0.28 0.13 0.02 0.02 0.01 0.00 0.00 0.00 0.00 0.00 0.00 0.00 0.00 0.00 0.00 0.00 0.00 0.00 0.00 0.00
0.20 0.26 0.26 0.22 0.26 0.43 0.40 0.17 0.40 0.33 0.42 0.47 0.09 0.03 0.04 0.02 0.16 0.34 0.51 0.77 0.58 0.50 0.48 0.34 0.25 0.19 0.08 0.03 0.00 0.00 0.00 0.00 0.00 0.00 0.00 0.00 0.00 0.00 0.00 0.00 0.00 0.00 0.00 0.00
0.17 0.18 0.19 0.22 0.33 0.67 0.55 0.46 0.43 0.46 0.40 0.68 0.21 0.03 0.03 0.02 0.21 0.45 0.53 0.54 0.51 0.55 0.53 0.36 0.18 0.11 0.13 0.12 0.04 0.00 0.00 0.00 0.00 0.00 0.00 0.00 0.00 0.00 0.00 0.00 0.00 0.00 0.00 0.01
0.19 0.20 0.21 0.27 0.47 0.63 0.67 0.35 0.46 0.41 0.64 0.59 0.20 0.09 0.06 0.06 0.26 0.52 0.64 0.43 0.47 0.64 0.68 0.42 0.18 0.16 0.25 0.16 0.02 0.00 0.00 0.00 0.00 0.00 0.00 0.00 0.00 0.00 0.00 0.00 0.01 0.04 0.05 0.04
0.27 0.32 0.45 0.48 0.59 0.64 0.39 0.13 0.31 0.56 0.84 0.57 0.35 0.13 0.10 0.16 0.54 0.65 0.62 0.62 0.53 0.65 0.55 0.31 0.16 0.16 0.29 0.22 0.01 0.00 0.00 0.00 0.00 0.00 0.00 0.00 0.00 0.00 0.01 0.04 0.09 0.10 0.06 0.02
0.51 0.54 0.56 0.64 0.39 0.28 0.27 0.33 0.57 0.54 0.94 0.94 0.38 0.22 0.27 0.22 0.57 0.55 0.65 0.62 0.71 0.51 0.30 0.22 0.34 0.25 0.15 0.02 0.00 0.00 0.00 0.00 0.00 0.00 0.00 0.00 0.00 0.02 0.07 0.12 0.09 0.03 0.01 0.00
0.71 0.83 0.77 0.61 0.30 0.51 0.85 0.95 0.99 1.15 0.72 0.37 0.27 0.12 0.29 0.29 0.48 0.52 0.62 0.56 0.58 0.46 0.27 0.29 0.34 0.22 0.08 0.02 0.00 0.00 0.00 0.00 0.00 0.00 0.00 0.01 0.04 0.07 0.05 0.02 0.00 0.00 0.00 0.00
1.24 1.27 0.88 0.76 0.91 1.20 1.18 0.99 0.68 0.55 0.41 0.17 0.11 0.14 0.31 0.27 0.58 0.66 0.49 0.60 0.48 0.45 0.35 0.55 0.43 0.28 0.07 0.00 0.00 0.00 0.00 0.00 0.00 0.00 0.00 0.00 0.01 0.00 0.00 0.00 0.00 0.00 0.00 0.00
0.92 0.74 0.93 0.89 0.89 1.01 0.83 0.63 0.40 0.28 0.14 0.22 0.29 0.26 0.28 0.33 0.44 0.67 0.72 0.49 0.49 0.36 0.33 0.50 0.34 0.11 0.00 0.00 0.00 0.00 0.00 0.00 0.00 0.00 0.00 0.00 0.00 0.00 0.00 0.01 0.00 0.00 0.00 0.00
1.15 1.55 1.54 0.93 0.75 0.51 0.37 0.45 0.55 0.51 0.38 0.43 0.44 0.40 0.28 0.41 0.59 0.49 0.60 0.53 0.35 0.24 0.25 0.15 0.04 0.02 0.00 0.00 0.00 0.02 0.04 0.01 0.01 0.01 0.01 0.01 0.01 0.02 0.03 0.03 0.01 0.01 0.01 0.02
2.30 2.12 1.46 0.45 0.52 0.18 0.34 0.35 0.37 0.45 0.47 0.46 0.48 0.57 0.45 0.39 0.58 0.46 0.27 0.29 0.31 0.22 0.09 0.05 0.06 0.04 0.01 0.02 0.05 0.05 0.12 0.21 0.21 0.15 0.08 0.06 0.05 0.07 0.07 0.07 0.06 0.04 0.03 0.04
1.98 1.12 0.50 0.18 0.10 0.07 0.18 0.23 0.24 0.31 0.36 0.38 0.44 0.50 0.42 0.52 0.58 0.34 0.22 0.25 0.16 0.03 0.06 0.20 0.16 0.11 0.09 0.12 0.14 0.13 0.14 0.27 0.41 0.48 0.45 0.43 0.36 0.33 0.26 0.16 0.12 0.12 0.07 0.05
1.54 0.80 0.26 0.06 0.03 0.05 0.12 0.18 0.23 0.29 0.32 0.29 0.34 0.33 0.42 0.50 0.35 0.30 0.19 0.14 0.13 0.18 0.26 0.31 0.22 0.22 0.18 0.14 0.05 0.01 0.01 0.02 0.06 0.09 0.14 0.16 0.17 0.22 0.24 0.22 0.19 0.21 0.20 0.16
1.27 0.39 0.04 0.02 0.03 0.06 0.12 0.17 0.18 0.14 0.19 0.29 0.31 0.26 0.28 0.33 0.34 0.22 0.22 0.27 0.18 0.07 0.04 0.19 0.21 0.26 0.27 0.23 0.08 0.04 0.00 0.00 0.00 0.00 0.00 0.00 0.00 0.00 0.01 0.02 0.06 0.10 0.21 0.28